[[[{"header":{"parameterUnit":"kt","parameterCategory":2,"dx":1,"dy":1,"la1":29.587661999999998,"la2":31.0,"lo1":-88.76705300000003,"lo2":-86.6583820000003,"nx":115,"ny":88,"refTime":"2022-10-28T12:00:00:Z","depth":0,"parameterNumber":1,"parameterNumberName":"U-component_of_WINDS"},"data":[6.0118,6.0118,6.0118,6.0118,6.0118,6.0118,6.0118,6.0118,6.0118,6.0118,6.0118,6.0118,6.0118,6.0118,6.0118,6.0118,6.0118,6.0043,6.0043,5.974,5.9683,5.9513,5.9323,5.9209,5.8545,5.8602,5.8735,5.8392,5.7381,5.8184,5.9001,5.8963,5.902,5.9248,5.991,6.0043,6.0118,6.0043,5.9816,5.9683,5.9986,5.9986,6.0118,6.0118,6.0118,6.0118,6.0118,6.0118,6.0118,6.0118,6.0118,6.0118,6.0118,6.0118,6.0118,6.0118,6.0118,6.0118,6.0118,6.0118,6.0118,6.0118,6.0118,6.0118,6.0118,6.0118,5.9929,5.9437,5.9323,5.8981,5.8792,5.8582,5.8278,5.8088,5.7705,5.7245,5.6727,5.6572,5.6457,5.6399,5.6399,5.6399,5.6399,5.6341,5.6341,5.6341,5.6341,5.6341,5.6341,5.6341,5.6341,5.6341,5.6341,5.6341,5.6341,5.6341,5.6341,5.6341,5.6341,5.6341,5.6341,5.6341,5.6341,5.6341,5.6341,5.6341,5.6341,5.6341,5.6341,5.6341,5.6341,5.6341,5.6341,5.6341,5.6341,6.0118,6.0118,6.0118,6.0118,6.0118,6.0118,6.0118,6.0118,6.0118,6.0118,6.0118,6.0118,6.0118,6.0118,6.0118,6.0118,6.0118,6.0118,5.8678,5.8316,5.9266,5.9152,5.8963,5.9038,5.9342,5.9626,5.9759,5.9342,5.8867,5.9077,5.9418,5.9683,5.9607,5.9418,5.9853,6.0118,6.0118,6.0118,6.0118,6.0118,6.0118,6.0118,6.0118,6.0118,6.0118,6.0118,6.0118,6.0118,6.0118,6.0118,6.0118,6.0118,6.0118,6.0118,6.0118,6.0118,6.0118,6.0118,6.0118,6.0118,6.0118,6.0118,6.0118,6.0118,6.0118,6.0118,6.0118,5.9929,5.9929,5.9816,5.9626,5.938,5.9134,5.883,5.8335,5.7838,5.7321,5.6803,5.663,5.6381,5.6381,5.6381,5.6399,5.6341,5.6341,5.6341,5.6341,5.6341,5.6341,5.6341,5.6341,5.6341,5.6341,5.6341,5.6341,5.6341,5.6341,5.6341,5.6341,5.6341,5.6341,5.6341,5.6341,5.6341,5.6341,5.6341,5.6341,5.6341,5.6341,5.6341,5.6341,5.6341,5.6341,5.6341,5.6341,6.0118,6.0118,6.0118,6.0118,6.0118,6.0118,6.0118,6.0118,6.0118,6.0118,6.0118,6.0118,6.0118,6.0118,6.0118,6.0118,6.0118,6.0118,5.9095,5.8735,5.9494,5.9038,5.9209,5.9626,5.9986,6.0118,6.0118,6.0099,5.9816,5.974,5.9664,5.991,5.9853,5.9797,5.9986,6.0118,6.0118,6.0118,6.0118,6.0118,6.0118,6.0118,6.0118,6.0118,6.0118,6.0118,6.0118,6.0118,6.0118,6.0118,6.0118,6.0118,6.0118,6.0118,6.0118,6.0118,6.0118,6.0118,6.0118,6.0118,6.0118,6.0118,6.0118,6.0118,6.0118,6.0118,6.0118,6.0118,6.0118,6.0118,5.9929,5.9853,5.9607,5.9418,5.8963,5.8563,5.8106,5.759,5.7245,5.7015,5.69,5.6842,5.6514,5.6514,5.6399,5.6399,5.6341,5.6341,5.6341,5.6341,5.6341,5.6341,5.6341,5.6341,5.6341,5.6341,5.6341,5.6341,5.6341,5.6341,5.6341,5.6341,5.6341,5.6341,5.6341,5.6341,5.6341,5.6341,5.6341,5.6341,5.6341,5.6341,5.6341,5.6341,5.6341,6.0118,6.0118,6.0118,6.0118,6.0118,6.0118,6.0118,6.0118,6.0118,6.0118,6.0118,6.0118,6.0118,6.0118,6.0118,6.0118,6.0118,6.0118,6.0118,5.9929,5.9929,5.9759,6.0043,5.9929,6.0043,6.0118,6.0118,6.0118,6.0043,6.0043,6.0043,6.0043,6.0043,5.9986,6.0118,6.0118,6.0118,6.0118,6.0118,6.0118,6.0118,6.0118,6.0118,6.0118,6.0118,6.0118,6.0118,6.0118,6.0118,6.0118,6.0118,6.0118,6.0118,6.0118,6.0118,6.0118,6.0118,6.0118,6.0118,6.0118,6.0118,6.0118,6.0118,6.0118,6.0118,6.0118,6.0118,6.0118,6.0118,6.0118,6.0043,6.0043,5.9986,5.9797,5.9551,5.9304,5.9001,5.8545,5.8106,5.782,5.759,5.7245,5.6803,5.663,5.6514,5.6457,5.6399,5.6341,5.6341,5.6341,5.6341,5.6341,5.6341,5.6341,5.6341,5.6341,5.6341,5.6341,5.6341,5.6341,5.6341,5.6341,5.6341,5.6341,5.6341,5.6341,5.6341,5.6341,5.6341,5.6341,5.6341,5.6341,5.6341,5.6341,5.6341,6.0118,6.0118,6.0118,6.0118,6.0118,6.0118,6.0118,6.0118,6.0118,6.0118,6.0118,6.0118,6.0118,6.0118,6.0118,6.0118,6.0118,6.0118,6.0118,6.0043,6.0118,6.0118,6.0118,6.0118,6.0118,6.0118,6.0118,6.0118,6.0118,6.0118,6.0118,6.0118,6.0118,6.0118,6.0118,6.0118,6.0118,6.0118,6.0118,6.0118,6.0118,6.0118,6.0118,6.0118,6.0118,6.0118,6.0118,6.0118,6.0118,6.0118,6.0118,6.0118,6.0118,6.0118,6.0118,6.0118,6.0118,6.0118,6.0118,6.0118,6.0118,6.0118,6.0118,6.0118,6.0118,6.0118,6.0118,6.0118,6.0118,6.0118,6.0118,6.0118,6.0118,5.9986,5.9853,5.9664,5.9418,5.9191,5.881,5.8525,5.822,5.782,5.7379,5.6976,5.69,5.6572,5.6457,5.6341,5.6341,5.6341,5.6341,5.6341,5.6341,5.6341,5.6341,5.6341,5.6341,5.6341,5.6341,5.6341,5.6341,5.6341,5.6341,5.6341,5.6341,5.6341,5.6341,5.6341,5.6341,5.6341,5.6341,5.6341,5.6341,5.6341,5.6341,6.0118,6.0118,6.0118,6.0118,6.0118,6.0118,6.0118,6.0118,6.0118,6.0118,6.0118,6.0118,6.0118,6.0118,6.0118,6.0118,6.0118,6.0118,6.0118,6.0118,6.0118,6.0118,6.0118,6.0118,6.0118,6.0118,6.0118,6.0118,6.0118,6.0118,6.0118,6.0118,6.0118,6.0118,6.0118,6.0118,6.0118,6.0118,6.0118,6.0118,6.0118,6.0118,6.0118,6.0118,6.0118,6.0118,6.0118,6.0118,6.0118,6.0118,6.0118,6.0118,6.0118,6.0118,6.0118,6.0118,6.0118,6.0118,6.0118,6.0118,6.0118,6.0118,6.0118,6.0118,6.0118,6.0118,6.0118,6.0118,6.0118,6.0118,6.0118,6.0118,6.0118,6.0118,5.9986,5.9929,5.9797,5.9683,5.9437,5.9209,5.8867,5.8392,5.7992,5.759,5.7188,5.69,5.6669,5.6554,5.6496,5.6496,5.6572,5.6399,5.6341,5.6341,5.6341,5.6341,5.6341,5.6341,5.6341,5.6341,5.6341,5.6341,5.6341,5.6341,5.6341,5.6341,5.6341,5.6341,5.6341,5.6341,5.6341,5.6341,5.6341,5.6341,5.6341,6.0118,6.0118,6.0118,6.0118,6.0118,6.0118,6.0118,6.0118,6.0118,6.0118,6.0118,6.0118,6.0118,6.0118,6.0118,6.0118,6.0118,6.0118,6.0118,6.0118,6.0118,6.0118,6.0118,6.0118,6.0118,6.0118,6.0118,6.0118,6.0118,6.0118,6.0118,6.0118,6.0118,6.0118,6.0118,6.0118,6.0118,6.0118,6.0118,6.0118,6.0118,6.0118,6.0118,6.0118,6.0118,6.0118,6.0118,6.0118,6.0118,6.0118,6.0118,6.0118,6.0118,6.0118,6.0118,6.0118,6.0118,6.0118,6.0118,6.0118,6.0118,6.0118,6.0118,6.0118,6.0118,6.0118,6.0118,6.0118,6.0118,6.0118,6.0118,6.0118,6.0118,6.0118,6.0043,6.0043,5.9986,5.9872,5.9872,5.9626,5.9569,5.9095,5.8621,5.8145,5.7762,5.736,5.7015,5.6824,5.6727,5.6785,5.6785,5.6457,5.6341,5.6341,5.6341,5.6341,5.6341,5.6341,5.6341,5.6341,5.6341,5.6341,5.6341,5.6341,5.6341,5.6341,5.6341,5.6341,5.6341,5.6341,5.6341,5.6341,5.6341,5.6341,5.6341,6.0099,6.0118,6.0118,6.0118,6.0118,6.0118,6.0118,6.0118,6.0118,6.0118,6.0118,6.0118,6.0118,6.0118,6.0118,6.0118,6.0118,6.0118,6.0118,6.0118,6.0118,6.0118,6.0118,6.0118,6.0118,6.0118,6.0118,6.0118,6.0118,6.0118,6.0118,6.0118,6.0118,6.0118,6.0118,6.0118,6.0118,6.0118,6.0118,6.0118,6.0118,6.0118,6.0118,6.0118,6.0118,6.0118,6.0118,6.0118,6.0118,6.0118,6.0118,6.0118,6.0118,6.0118,6.0118,6.0118,6.0118,6.0118,6.0118,6.0118,6.0118,6.0118,6.0118,6.0118,6.0118,6.0118,6.0118,6.0118,6.0118,6.0118,6.0118,6.0118,6.0118,6.0118,6.0118,6.0118,6.0118,6.0118,6.0118,6.0043,5.991,5.974,5.9209,5.8792,5.8449,5.803,5.7744,5.7457,5.7055,5.713,5.69,5.6554,5.6341,5.6341,5.6341,5.6341,5.6341,5.6341,5.6341,5.6341,5.6341,5.6341,5.6341,5.6341,5.6341,5.6341,5.6341,5.6341,5.6341,5.6341,5.6341,5.6341,5.6341,5.6341,5.6341,5.9492,6.0024,6.0118,6.0118,6.0118,6.0118,6.0118,6.0118,6.0118,6.0118,6.0118,6.0118,6.0118,6.0118,6.0118,6.0118,6.0118,6.0118,6.0118,6.0118,6.0118,6.0118,6.0118,6.0118,6.0118,6.0118,6.0118,6.0118,6.0118,6.0118,6.0118,6.0118,6.0118,6.0118,6.0118,6.0118,6.0118,6.0118,6.0118,6.0118,6.0118,6.0118,6.0118,6.0118,6.0118,6.0118,6.0118,6.0118,6.0118,6.0118,6.0118,6.0118,6.0118,6.0118,6.0118,6.0118,6.0118,6.0118,6.0118,6.0118,6.0118,6.0118,6.0118,6.0118,6.0118,6.0118,6.0118,6.0118,6.0118,6.0118,6.0118,6.0118,6.0118,6.0118,6.0118,6.0118,6.0118,6.0118,6.0118,6.0118,6.0043,5.9929,5.9683,5.9323,5.902,5.8735,5.8449,5.7916,5.7457,5.7285,5.7055,5.6612,5.6341,5.6341,5.6341,5.6341,5.6341,5.6341,5.6341,5.6341,5.6341,5.6341,5.6341,5.6341,5.6341,5.6341,5.6341,5.6341,5.6341,5.6341,5.6341,5.6341,5.6341,5.6341,5.6341,5.9282,6.0043,6.0118,6.0118,6.0118,6.0118,6.0118,6.0118,6.0118,6.0118,6.0118,6.0118,6.0118,6.0118,6.0118,6.0118,6.0118,6.0118,6.0118,6.0118,6.0118,6.0118,6.0118,6.0118,6.0118,6.0118,6.0118,6.0118,6.0118,6.0118,6.0118,6.0118,6.0118,6.0118,6.0118,6.0118,6.0118,6.0118,6.0118,6.0118,6.0118,6.0118,6.0118,6.0118,6.0118,6.0118,6.0118,6.0118,6.0118,6.0118,6.0118,6.0118,6.0118,6.0118,6.0118,6.0118,6.0118,6.0118,6.0118,6.0118,6.0118,6.0118,6.0118,6.0118,6.0118,6.0118,6.0118,6.0118,6.0118,6.0118,6.0118,6.0118,6.0118,6.0118,6.0118,6.0118,6.0118,6.0118,6.0118,6.0118,6.0118,6.0043,5.9986,5.9626,5.9551,5.9323,5.9266,5.881,5.7934,5.7648,5.7285,5.6785,5.6399,5.6399,5.6341,5.6341,5.6341,5.6341,5.6341,5.6341,5.6341,5.6341,5.6341,5.6341,5.6341,5.6341,5.6341,5.6341,5.6341,5.6341,5.6341,5.6341,5.6341,5.6341,5.6341,5.9169,5.9986,6.0099,6.0118,6.0118,6.0118,6.0118,6.0118,6.0118,6.0118,6.0118,6.0118,6.0118,6.0118,6.0118,6.0118,6.0118,6.0118,6.0118,6.0118,6.0118,6.0118,6.0118,6.0118,6.0118,6.0118,6.0118,6.0118,6.0118,6.0118,6.0118,6.0118,6.0118,6.0118,6.0118,6.0118,6.0118,6.0118,6.0118,6.0118,6.0118,6.0118,6.0118,6.0118,6.0118,6.0118,6.0118,6.0118,6.0118,6.0118,6.0118,6.0118,6.0118,6.0118,6.0118,6.0118,6.0118,6.0118,6.0118,6.0118,6.0118,6.0118,6.0118,6.0118,6.0118,6.0118,6.0118,6.0118,6.0118,6.0118,6.0118,6.0118,6.0118,6.0118,6.0118,6.0118,6.0118,6.0118,6.0118,6.0118,6.0118,6.0118,6.0043,6.0043,5.9986,5.9986,6.0043,5.9456,5.8468,5.7934,5.7533,5.7015,5.6514,5.6457,5.6341,5.6341,5.6399,5.6341,5.6341,5.6341,5.6341,5.6341,5.6341,5.6341,5.6341,5.6341,5.6341,5.6341,5.6341,5.6341,5.6341,5.6341,5.6341,5.6341,5.6341,5.8334,5.915,5.9796,6.0118,6.0118,6.0118,6.0118,6.0118,6.0118,6.0118,6.0118,6.0118,6.0118,6.0118,6.0118,6.0118,6.0118,6.0118,6.0118,6.0118,6.0118,6.0118,6.0118,6.0118,6.0118,6.0118,6.0118,6.0118,6.0118,6.0118,6.0118,6.0118,6.0118,6.0118,6.0118,6.0118,6.0118,6.0118,6.0118,6.0118,6.0118,6.0118,6.0118,6.0118,6.0118,6.0118,6.0118,6.0118,6.0118,6.0118,6.0118,6.0118,6.0118,6.0118,6.0118,6.0118,6.0118,6.0118,6.0118,6.0118,6.0118,6.0118,6.0118,6.0118,6.0118,6.0118,6.0118,6.0118,6.0118,6.0118,6.0118,6.0118,6.0118,6.0118,6.0118,6.0118,6.0118,6.0118,6.0118,6.0118,6.0118,6.0118,6.0043,6.0043,6.0043,6.0043,6.0043,5.9645,5.881,5.8335,5.7877,5.7303,5.6785,5.6572,5.6399,5.6457,5.6514,5.6457,5.6341,5.6341,5.6341,5.6341,5.6341,5.6341,5.6341,5.6341,5.6341,5.6341,5.6341,5.6341,5.6341,5.6341,5.6341,5.6341,5.6341,5.8009,5.8771,5.9682,6.0118,6.0118,6.0118,6.0118,6.0118,6.0118,6.0118,6.0118,6.0118,6.0118,6.0118,6.0118,6.0118,6.0118,6.0118,6.0118,6.0118,6.0118,6.0118,6.0118,6.0118,6.0118,6.0118,6.0118,6.0118,6.0118,6.0118,6.0118,6.0118,6.0118,6.0118,6.0118,6.0118,6.0118,6.0118,6.0118,6.0118,6.0118,6.0118,6.0118,6.0118,6.0118,6.0118,6.0118,6.0118,6.0118,6.0118,6.0118,6.0118,6.0118,6.0118,6.0118,6.0118,6.0118,6.0118,6.0118,6.0118,6.0118,6.0118,6.0118,6.0118,6.0118,6.0118,6.0118,6.0118,6.0118,6.0118,6.0118,6.0118,6.0118,6.0118,6.0118,6.0118,6.0118,6.0118,6.0118,6.0118,6.0118,6.0118,6.0118,6.0118,6.0118,6.0156,6.0062,5.9816,5.9266,5.8735,5.8278,5.7762,5.7475,5.7303,5.69,5.6727,5.6612,5.6514,5.6341,5.6341,5.6341,5.6341,5.6341,5.6341,5.6341,5.6341,5.6341,5.6341,5.6341,5.6341,5.6341,5.6341,5.6341,5.6341,5.6341,5.8009,5.8771,5.9663,6.0118,6.0118,6.0118,6.0118,6.0118,6.0118,6.0118,6.0118,6.0118,6.0118,6.0118,6.0118,6.0118,6.0118,6.0118,6.0118,6.0118,6.0118,6.0118,6.0118,6.0118,6.0118,6.0118,6.0118,6.0118,6.0118,6.0118,6.0118,6.0118,6.0118,6.0118,6.0118,6.0118,6.0118,6.0118,6.0118,6.0118,6.0118,6.0118,6.0118,6.0118,6.0118,6.0118,6.0118,6.0118,6.0118,6.0118,6.0118,6.0118,6.0118,6.0118,6.0118,6.0118,6.0118,6.0118,6.0118,6.0118,6.0118,6.0118,6.0118,6.0118,6.0118,6.0118,6.0118,6.0118,6.0118,6.0118,6.0118,6.0118,6.0118,6.0118,6.0118,6.0118,6.0118,6.0118,6.0118,6.0118,6.0118,6.0118,6.0118,6.0118,6.0118,6.0422,6.0384,6.0119,5.9587,5.9189,5.8713,5.8392,5.8163,5.782,5.7475,5.7188,5.7015,5.6803,5.6514,5.6399,5.6399,5.6341,5.6341,5.6341,5.6341,5.6341,5.6341,5.6341,5.6341,5.6341,5.6341,5.6341,5.6341,5.6341,5.6341,5.8009,5.8771,5.9682,6.0118,6.0118,6.0118,6.0118,6.0118,6.0118,6.0118,6.0118,6.0118,6.0118,6.0118,6.0118,6.0118,6.0118,6.0118,6.0118,6.0118,6.0118,6.0118,6.0118,6.0118,6.0118,6.0118,6.0118,6.0118,6.0118,6.0118,6.0118,6.0118,6.0118,6.0118,6.0118,6.0118,6.0118,6.0118,6.0118,6.0118,6.0118,6.0118,6.0118,6.0118,6.0118,6.0118,6.0118,6.0118,6.0118,6.0118,6.0118,6.0118,6.0118,6.0118,6.0118,6.0118,6.0118,6.0118,6.0118,6.0118,6.0118,6.0118,6.0118,6.0118,6.0118,6.0118,6.0118,6.0118,6.0118,6.0118,6.0118,6.0118,6.0118,6.0118,6.0118,6.0118,6.0118,6.0118,6.0118,6.0118,6.0118,6.0118,6.027,6.0194,6.0403,6.0764,6.0631,6.0403,6.0023,5.9681,5.9282,5.8963,5.8678,5.8239,5.7934,5.7648,5.736,5.7091,5.6687,5.6457,5.6554,5.6554,5.6572,5.6457,5.6341,5.6341,5.6341,5.6341,5.6341,5.6341,5.6341,5.6341,5.6341,5.6341,5.6341,5.8505,5.9321,5.989,6.0118,6.0118,6.0118,6.0118,6.0118,6.0118,6.0118,6.0118,6.0118,6.0118,6.0118,6.0118,6.0118,6.0118,6.0118,6.0118,6.0118,6.0118,6.0118,6.0118,6.0118,6.0118,6.0118,6.0118,6.0118,6.0118,6.0118,6.0118,6.0118,6.0118,6.0118,6.0118,6.0118,6.0118,6.0118,6.0118,6.0118,6.0118,6.0118,6.0118,6.0118,6.0118,6.0118,6.0118,6.0118,6.0118,6.0118,6.0118,6.0118,6.0118,6.0118,6.0118,6.0118,6.0118,6.0118,6.0118,6.0118,6.0118,6.0118,6.0118,6.0118,6.0118,6.0118,6.0118,6.0118,6.0118,6.0118,6.0118,6.0118,6.0118,6.0118,6.0118,6.0118,6.0118,6.0118,6.0118,6.0118,6.0137,6.0403,6.065,6.103,6.1581,6.158,6.1295,6.0915,6.0515,6.0079,5.9701,5.9437,5.9095,5.8753,5.8449,5.822,5.7992,5.7648,5.7206,5.7073,5.7015,5.69,5.69,5.6842,5.6687,5.6514,5.6341,5.6399,5.6399,5.6399,5.6341,5.6341,5.6341,5.6341,5.6341,5.9226,6.0099,6.0099,6.0118,6.0118,6.0118,6.0118,6.0118,6.0118,6.0118,6.0118,6.0118,6.0118,6.0118,6.0118,6.0118,6.0118,6.0118,6.0118,6.0118,6.0118,6.0118,6.0118,6.0118,6.0118,6.0118,6.0118,6.0118,6.0118,6.0118,6.0118,6.0118,6.0118,6.0118,6.0118,6.0118,6.0118,6.0118,6.0118,6.0118,6.0118,6.0118,6.0118,6.0118,6.0118,6.0118,6.0118,6.0118,6.0118,6.0118,6.0118,6.0118,6.0118,6.0118,6.0118,6.0118,6.0118,6.0118,6.0118,6.0118,6.0118,6.0118,6.0118,6.0118,6.0118,6.0118,6.0118,6.0118,6.0118,6.0118,6.0118,6.0118,6.0118,6.0118,6.0118,6.0118,6.0118,6.0118,6.0118,6.0156,6.0878,6.1068,6.1314,6.2037,6.2569,6.2207,6.1884,6.1466,6.0952,6.0327,5.9872,5.9853,5.9588,5.9399,5.9209,5.8906,5.8621,5.8335,5.8049,5.7877,5.7705,5.7475,5.7418,5.7188,5.7015,5.686,5.6803,5.6687,5.6514,5.6457,5.6399,5.6341,5.6399,5.6341,5.6341,5.9226,6.0118,6.0118,6.0118,6.0118,6.0118,6.0118,6.0118,6.0118,6.0118,6.0118,6.0118,6.0118,6.0118,6.0118,6.0118,6.0118,6.0118,6.0118,6.0118,6.0118,6.0118,6.0118,6.0118,6.0118,6.0118,6.0118,6.0118,6.0118,6.0118,6.0118,6.0118,6.0118,6.0118,6.0118,6.0118,6.0118,6.0118,6.0118,6.0118,6.0118,6.0118,6.0118,6.0118,6.0118,6.0118,6.0118,6.0118,6.0118,6.0118,6.0118,6.0118,6.0118,6.0118,6.0118,6.0118,6.0118,6.0118,6.0118,6.0118,6.0118,6.0118,6.0118,6.0118,6.0118,6.0118,6.0118,6.0118,6.0118,6.0118,6.0118,6.0118,6.0118,6.0118,6.0118,6.0137,6.0175,6.0251,6.0232,6.084,6.1581,6.1999,6.2227,6.2778,6.2873,6.2567,6.1884,6.1446,6.1105,6.0536,6.0118,6.0118,6.0043,5.991,5.974,5.938,5.9152,5.8924,5.8753,5.8639,5.8411,5.8106,5.782,5.7514,5.7418,5.7475,5.7245,5.713,5.7033,5.6803,5.6514,5.6399,5.6572,5.6572,5.6514,5.9625,6.0099,6.0118,6.0118,6.0118,6.0118,6.0118,6.0118,6.0118,6.0118,6.0118,6.0118,6.0118,6.0118,6.0118,6.0118,6.0118,6.0118,6.0118,6.0118,6.0118,6.0118,6.0118,6.0118,6.0118,6.0118,6.0118,6.0118,6.0118,6.0118,6.0118,6.0118,6.0118,6.0118,6.0118,6.0118,6.0118,6.0118,6.0118,6.0118,6.0118,6.0118,6.0118,6.0118,6.0118,6.0118,6.0118,6.0118,6.0118,6.0118,6.0118,6.0118,6.0118,6.0118,6.0118,6.0118,6.0118,6.0118,6.0118,6.0118,6.0118,6.0118,6.0118,6.0118,6.0118,6.0118,6.0118,6.0118,6.0118,6.0118,6.0118,6.0118,6.0118,6.0118,6.0118,6.0251,6.0536,6.0631,6.0992,6.1543,6.2303,6.2835,6.3082,6.2987,6.3061,6.2624,6.1922,6.1503,6.1219,6.0669,6.0118,6.0118,6.0062,5.9986,5.9929,5.974,5.9645,5.9569,5.9437,5.9342,5.9152,5.881,5.8449,5.8218,5.8163,5.822,5.8086,5.7908,5.7587,5.7321,5.726,5.7163,5.7012,5.6745,5.6687,6.0985,6.0646,6.0646,6.042,6.0099,6.0118,6.0118,6.0118,6.0118,6.0118,6.0118,6.0118,6.0118,6.0118,6.0118,6.0118,6.0118,6.0118,6.0118,6.0118,6.0118,6.0118,6.0118,6.0118,6.0118,6.0118,6.0118,6.0118,6.0118,6.0118,6.0118,6.0118,6.0118,6.0118,6.0118,6.0118,6.0118,6.0118,6.0118,6.0118,6.0118,6.0118,6.0118,6.0118,6.0118,6.0118,6.0118,6.0118,6.0118,6.0118,6.0118,6.0118,6.0118,6.0118,6.0118,6.0118,6.0118,6.0118,6.0118,6.0118,6.0118,6.0118,6.0118,6.0118,6.0118,6.0118,6.0118,6.0118,6.0118,6.0118,6.0118,6.0118,6.0137,6.0327,6.0403,6.065,6.1295,6.1675,6.2036,6.2472,6.3061,6.3611,6.3232,6.3063,6.2757,6.2169,6.1656,6.139,6.0973,6.0422,6.0118,6.0118,6.0118,6.0118,6.0118,6.0043,5.9986,5.9853,5.9797,5.974,5.9626,5.9437,5.9455,5.9452,5.9395,5.9148,5.8938,5.8706,5.8363,5.7854,5.7966,5.8136,5.7699,5.7188,5.7015,6.4764,6.3055,6.3055,6.1846,6.0269,6.0118,6.0118,6.0118,6.0118,6.0118,6.0118,6.0118,6.0118,6.0118,6.0118,6.0118,6.0118,6.0118,6.0118,6.0118,6.0118,6.0118,6.0118,6.0118,6.0118,6.0118,6.0118,6.0118,6.0118,6.0118,6.0118,6.0118,6.0118,6.0118,6.0118,6.0118,6.0118,6.0118,6.0118,6.0118,6.0118,6.0118,6.0118,6.0118,6.0118,6.0118,6.0118,6.0118,6.0118,6.0118,6.0118,6.0118,6.0118,6.0118,6.0118,6.0118,6.0118,6.0118,6.0118,6.0118,6.0118,6.0118,6.0118,6.0118,6.0118,6.0118,6.0118,6.0118,6.0118,6.0118,6.0118,6.0118,6.0365,6.084,6.103,6.1485,6.2284,6.2985,6.308,6.3422,6.3403,6.3367,6.312,6.2719,6.2226,6.177,6.1466,6.1087,6.0517,6.0118,6.0118,6.0118,6.0118,6.0118,6.0118,6.0062,6.0062,5.9986,6.0043,5.9986,5.9929,5.9853,5.9891,6.0137,6.023,6.0095,5.9846,5.9543,5.903,5.8442,5.8384,5.8762,5.8363,5.7684,5.7475,6.6275,6.5258,6.4013,6.2944,6.1809,6.059,6.0118,6.0118,6.0118,6.0118,6.0118,6.0118,6.0118,6.0118,6.0118,6.0118,6.0118,6.0118,6.0118,6.0118,6.0118,6.0118,6.0118,6.0118,6.0118,6.0118,6.0118,6.0118,6.0118,6.0118,6.0118,6.0118,6.0118,6.0118,6.0118,6.0118,6.0118,6.0118,6.0118,6.0118,6.0118,6.0118,6.0118,6.0118,6.0118,6.0118,6.0118,6.0118,6.0118,6.0118,6.0118,6.0118,6.0118,6.0118,6.0118,6.0118,6.0118,6.0118,6.0118,6.0118,6.0118,6.0118,6.0118,6.0118,6.0118,6.0118,6.0118,6.0118,6.0118,6.0118,6.0118,6.0118,6.046,6.1049,6.1181,6.1846,6.2814,6.3099,6.3099,6.3099,6.3118,6.2892,6.2569,6.2093,6.1656,6.1352,6.1068,6.0631,6.0118,6.0118,6.0118,6.0118,6.0118,6.0118,6.0118,6.0118,6.0118,6.0118,6.0118,6.0118,6.0118,6.0119,6.0232,6.0176,6.0175,6.0231,6.0721,6.0249,5.9832,5.9807,5.9802,5.9577,5.9274,5.8688,5.829,6.8092,6.7446,6.573,6.4764,6.4013,6.2386,6.1621,6.1621,6.1135,6.1041,6.0759,6.0288,6.0118,6.0118,6.0118,6.0118,6.0118,6.0118,6.0118,6.0118,6.0118,6.0118,6.0118,6.0118,6.0118,6.0118,6.0118,6.0118,6.0118,6.0118,6.0118,6.0118,6.0118,6.0118,6.0118,6.0118,6.0118,6.0118,6.0118,6.0118,6.0118,6.0118,6.0118,6.0118,6.0118,6.0118,6.0118,6.0118,6.0118,6.0118,6.0118,6.0118,6.0118,6.0118,6.0118,6.0118,6.0118,6.0118,6.0118,6.0118,6.0118,6.0118,6.0118,6.0118,6.0118,6.0118,6.0118,6.0118,6.0118,6.0118,6.0118,6.0118,6.046,6.103,6.1238,6.1827,6.3025,6.2968,6.2588,6.2398,6.2264,6.2246,6.1999,6.1258,6.1087,6.0935,6.0574,6.0213,6.0118,6.0118,6.0118,6.0118,6.0118,6.0118,6.0118,6.0118,6.0118,6.0118,6.0118,6.0118,6.0118,6.0119,6.0365,6.0346,6.0194,6.0859,6.154,6.1218,6.1218,6.1484,6.1634,6.1287,6.0733,5.975,5.9201,7.19,6.9982,6.9704,6.8446,6.6635,6.62,6.5655,6.5655,6.3958,6.3146,6.2832,6.1022,6.0797,6.0118,6.0646,6.0213,6.0213,6.0156,6.0099,6.0118,6.0118,6.0118,6.0118,6.0118,6.0118,6.0118,6.0118,6.0118,6.0118,6.0118,6.0118,6.0118,6.0118,6.0118,6.0118,6.0118,6.0118,6.0118,6.0118,6.0118,6.0118,6.0118,6.0118,6.0118,6.0118,6.0118,6.0118,6.0118,6.0118,6.0118,6.0118,6.0118,6.0118,6.0118,6.0118,6.0118,6.0118,6.0118,6.0118,6.0118,6.0118,6.0118,6.0118,6.0118,6.0118,6.0118,6.0118,6.0118,6.0118,6.0118,6.0118,6.0118,6.0441,6.1049,6.1162,6.1656,6.2436,6.2645,6.2284,6.1561,6.1409,6.1011,6.0574,6.0232,6.0213,6.0441,6.0308,6.0118,6.0118,6.0118,6.0118,6.0118,6.0118,6.0118,6.0118,6.0118,6.0118,6.0118,6.0118,6.0118,6.0118,6.0213,6.0441,6.0574,6.0403,6.0859,6.1751,6.2378,6.2624,6.2702,6.2093,6.2186,6.2146,6.0624,5.9775,7.3299,7.2289,7.0933,6.977,6.8811,6.7446,6.683,6.6689,6.5839,6.5457,6.5313,6.4379,6.3993,6.3847,6.2665,6.2106,6.1902,6.0722,6.0156,6.0099,6.0156,6.0118,6.0118,6.0118,6.0118,6.0118,6.0118,6.0118,6.0156,6.0118,6.0118,6.0269,6.0118,6.0118,6.0213,6.0118,6.0118,6.0118,6.0118,6.0118,6.0118,6.0118,6.0118,6.0118,6.0118,6.0118,6.0118,6.0118,6.0118,6.0118,6.0118,6.0118,6.0118,6.0118,6.0118,6.0118,6.0118,6.0118,6.0118,6.0118,6.0118,6.0118,6.0118,6.0118,6.0118,6.0118,6.0118,6.0118,6.0118,6.0118,6.0118,6.0118,6.0441,6.1011,6.0821,6.0707,6.1011,6.1239,6.0916,6.0707,6.0555,6.0384,6.0157,6.0137,6.0118,6.0118,6.0118,6.0118,6.0118,6.0118,6.0118,6.0118,6.0118,6.0118,6.0118,6.0118,6.0118,6.0118,6.0118,6.0118,6.0118,6.0137,6.0232,6.0308,6.0441,6.0764,6.1485,6.215,6.2854,6.3042,6.2415,6.2015,6.1618,6.0534,6.0137,7.3867,7.3712,7.1975,7.1294,7.1008,6.9535,6.8767,6.866,6.8146,6.7791,6.7554,6.7176,6.658,6.6668,6.5094,6.4454,6.3902,6.2126,6.0966,6.0985,6.0985,6.0759,6.0156,6.0118,6.0118,6.0118,6.0118,6.0383,6.0929,6.121,6.1472,6.1826,6.2218,6.179,6.1022,6.1154,6.0778,6.0156,6.0118,6.0118,6.0118,6.0118,6.0118,6.0118,6.0118,6.0118,6.0118,6.0118,6.0118,6.0118,6.0118,6.0118,6.0118,6.0118,6.0118,6.0118,6.0118,6.0118,6.0118,6.0118,6.0118,6.0118,6.0118,6.0118,6.0118,6.0118,6.0118,6.0118,6.0118,6.0118,6.0118,6.0118,6.0289,6.0764,6.0441,6.0194,6.0213,6.0118,6.0118,6.0118,6.0156,6.0175,6.0118,6.0118,6.0118,6.0118,6.0118,6.0118,6.0118,6.0118,6.0118,6.0118,6.0118,6.0118,6.0118,6.0118,6.0118,6.0118,6.0118,6.0118,6.0118,6.0118,6.0118,6.0175,6.0403,6.1087,6.1675,6.215,6.2833,6.3592,6.3042,6.2529,6.1808,6.0954,6.0574,7.3867,7.3838,7.366,7.3505,7.3454,7.3224,7.2913,7.2861,7.1114,7.0164,6.9717,6.8361,6.7317,6.7068,6.7014,6.671,6.6275,6.4399,6.3424,6.3646,6.3313,6.2498,6.1003,6.0909,6.0985,6.0703,6.0646,6.1529,6.3257,6.3368,6.4399,6.5764,6.5709,6.5402,6.3681,6.3368,6.233,6.0703,6.0326,6.0213,6.0118,6.0118,6.0118,6.0118,6.0118,6.0118,6.0232,6.0609,6.0533,6.0213,6.0646,6.0703,6.0213,6.0118,6.0213,6.0118,6.0118,6.0118,6.0118,6.0118,6.0118,6.0118,6.0118,6.0118,6.0118,6.0118,6.0118,6.0118,6.0118,6.0118,6.0118,6.0118,6.0137,6.0138,6.0119,6.0118,6.0118,6.0118,6.0118,6.0118,6.0118,6.0118,6.0118,6.0118,6.0118,6.0118,6.0118,6.0118,6.0118,6.0118,6.0118,6.0118,6.0118,6.0118,6.0118,6.0118,6.0118,6.0118,6.0118,6.0118,6.0118,6.0118,6.0118,6.0308,6.0555,6.1409,6.2074,6.2472,6.3042,6.3137,6.308,6.3194,6.2548,6.158,6.1086,7.4353,7.4301,7.3993,7.3867,7.3867,7.3867,7.3867,7.3735,7.2913,7.2549,7.2393,7.1564,7.1249,7.0986,6.9717,6.9131,6.8789,6.6689,6.6438,6.7522,6.6493,6.5238,6.4544,6.4324,6.4379,6.4324,6.4324,6.4799,6.5621,6.5675,6.6057,6.6743,6.683,6.6417,6.5785,6.5566,6.4544,6.2609,6.2218,6.1585,6.0383,6.0118,6.0118,6.0099,6.0118,6.0118,6.0269,6.2924,6.4379,6.4324,6.4324,6.3626,6.2386,6.2238,6.1585,6.0496,6.0118,6.0156,6.0118,6.0326,6.0118,6.0118,6.0118,6.0156,6.0099,6.0118,6.0118,6.0118,6.0118,6.0118,6.0118,6.0118,6.0118,6.0118,6.0118,6.0118,6.0118,6.0118,6.0118,6.0118,6.0118,6.0118,6.0118,6.0118,6.0118,6.0118,6.0118,6.0118,6.0118,6.0118,6.0118,6.0118,6.0118,6.0118,6.0118,6.0118,6.0118,6.0118,6.0118,6.0118,6.0118,6.0118,6.0118,6.0289,6.0346,6.1106,6.1694,6.2264,6.2529,6.2226,6.1998,6.2055,6.1979,6.1257,6.1313,7.3438,7.3435,7.3361,7.3348,7.3371,7.3773,7.3867,7.3867,7.3867,7.3867,7.3867,7.3867,7.3867,7.3402,7.2236,7.1452,7.1324,6.9929,6.9504,6.9898,6.8704,6.7554,6.6906,6.6776,6.683,6.683,6.683,6.7176,6.777,6.7931,6.8414,6.8949,6.9163,6.8682,6.8039,6.7877,6.6873,6.4874,6.4599,6.3902,6.2366,6.2218,6.2218,6.2199,6.2143,6.2162,6.231,6.5183,6.6797,6.6722,6.6851,6.6221,6.4929,6.4544,6.3827,6.2422,6.2218,6.2218,6.2218,6.2254,6.2366,6.2274,6.2274,6.2162,6.2143,6.1678,6.1247,6.1267,6.0477,6.0118,6.0118,6.0118,6.0118,6.0118,6.0118,6.0326,6.1078,6.059,6.0156,6.0118,6.0118,6.0118,6.0118,6.0118,6.0118,6.0118,6.0118,6.0118,6.0118,6.0118,6.0118,6.0118,6.0118,6.0118,6.0118,6.0118,6.0118,6.0118,6.0118,6.0118,6.0118,6.0118,6.0118,6.0156,6.0156,6.046,6.1068,6.1408,6.1541,6.1389,6.1583,6.1412,6.0973,6.0992,6.1163,7.0873,7.1179,7.1875,7.2346,7.2514,7.3337,7.3824,7.3759,7.3829,7.3857,7.3857,7.3918,7.3918,7.3867,7.3609,7.3562,7.3366,7.301,7.2122,7.0798,7.0428,6.9291,6.7554,6.764,6.7587,6.7533,6.7176,6.8307,7.0269,7.0375,7.1324,7.3172,7.3172,7.2057,7.0353,7.0269,6.9185,6.7338,6.6851,6.6668,6.6776,6.633,6.6179,6.6363,6.6743,6.6851,6.6851,6.7122,6.75,6.7317,6.7317,6.696,6.723,6.6906,6.6743,6.6363,6.6526,6.6613,6.6526,6.6288,6.6091,6.6091,6.6451,6.6091,6.5655,6.4489,6.3535,6.3257,6.1902,6.0383,6.0496,6.0665,6.074,6.0232,6.0872,6.1565,6.2462,6.1472,6.0118,6.0118,6.0118,6.0118,6.0118,6.0118,6.0118,6.0118,6.0118,6.0118,6.0118,6.0118,6.0118,6.0118,6.0118,6.0118,6.0118,6.0118,6.0118,6.0118,6.0175,6.0118,6.0118,6.0118,6.0118,6.0118,6.0118,6.0232,6.0783,6.1719,6.1624,6.1796,6.149,6.1529,6.1624,6.1814,6.172,7.1291,7.1319,7.1622,7.174,7.191,7.2514,7.2829,7.2924,7.3564,7.3873,7.3938,7.42,7.4353,7.4353,7.4044,7.3539,7.2884,7.2787,7.2802,7.2734,7.2728,7.2341,7.1691,7.1616,7.1639,7.1564,7.1616,7.1953,7.2728,7.2705,7.3143,7.3815,7.3867,7.3477,7.2861,7.2705,7.1609,6.9664,6.9238,6.8414,6.6993,6.683,6.683,6.7263,6.9938,7.1639,7.1639,7.1616,7.1616,7.1616,7.1564,7.1616,7.1429,7.0141,6.8575,6.7068,6.6863,6.683,6.683,6.683,6.6884,6.6906,6.6884,6.683,6.6797,6.62,6.5839,6.573,6.4964,6.3937,6.3202,6.3772,6.4634,6.4689,6.4689,6.4434,6.3646,6.2944,6.1846,6.0816,6.0439,6.0156,6.0118,6.0118,6.0118,6.0118,6.0118,6.0118,6.0118,6.0118,6.0118,6.0118,6.0118,6.0099,6.0439,6.0269,6.0118,6.0269,6.0383,6.0156,6.0118,6.0118,6.0118,6.0118,6.0156,6.0213,6.0858,6.1935,6.2519,6.2837,6.2279,6.1736,6.2401,6.2701,6.2789,7.015,7.0187,7.054,7.0705,7.08,7.1471,7.1711,7.1855,7.2471,7.2706,7.2798,7.3091,7.3247,7.3247,7.2869,7.2342,7.1781,7.1758,7.2085,7.2697,7.274,7.2927,7.3231,7.3329,7.3441,7.382,7.3867,7.3867,7.3867,7.3867,7.3867,7.3867,7.3867,7.3867,7.3867,7.3867,7.3195,7.1766,7.1609,7.0933,6.9642,6.9429,6.8949,6.8513,7.1189,7.2767,7.2716,7.274,7.2716,7.274,7.2716,7.2767,7.2615,7.1315,6.9773,6.8499,6.829,6.829,6.829,6.8237,6.8268,6.829,6.829,6.8513,6.8602,6.8053,6.7779,6.7845,6.75,6.6481,6.5528,6.6495,6.7233,6.6579,6.6618,6.6472,6.6003,6.5258,6.462,6.3736,6.2126,6.0966,6.042,6.0118,6.0118,6.0118,6.0118,6.0118,6.0118,6.0118,6.0118,6.0118,6.0099,6.0383,6.0985,6.0759,6.0439,6.0665,6.0552,6.0326,6.0118,6.0118,6.0269,6.0269,6.0118,6.0194,6.0213,6.1215,6.1346,6.1702,6.1758,6.1616,6.2984,6.1711,6.2327,6.7714,6.7901,6.879,6.9164,6.9282,7.0269,7.0665,7.0671,7.0807,7.0805,7.0904,7.0995,7.0826,7.0685,7.0636,7.066,7.0683,7.0683,7.08,7.0963,7.0893,7.1337,7.2253,7.2299,7.2767,7.3422,7.3446,7.3516,7.3586,7.3679,7.375,7.3656,7.3562,7.3656,7.3562,7.3516,7.3628,7.3259,7.3259,7.3427,7.3427,7.3427,7.2342,7.0729,7.0823,7.094,7.0893,7.0823,7.0847,7.0823,7.0917,7.087,7.0847,7.0771,7.0745,7.0622,7.0649,7.0649,7.0596,7.0543,7.057,7.0622,7.0464,7.1021,7.1351,6.9947,6.9282,7.0243,6.8418,6.7417,6.7477,6.8317,6.8074,6.6445,6.6666,6.7929,6.9655,6.7607,6.8048,6.8176,6.5539,6.2782,6.0678,6.0231,6.0625,6.0571,6.0383,6.0269,6.0269,6.0118,6.0118,6.0118,6.0213,6.0872,6.2721,6.1585,6.1247,6.1641,6.1078,6.0533,6.0269,6.0213,6.0326,6.0439,6.0269,6.0118,6.0118,6.0213,6.0477,6.1078,6.1304,6.1734,6.3091,6.1212,6.1573,6.9149,6.8743,6.8228,6.8278,6.8681,6.9343,6.9604,6.9675,7.0434,7.0743,7.0766,7.1159,7.03,6.8673,6.8485,6.8928,6.9584,6.9606,7.0052,7.073,7.0776,7.0893,7.115,7.1174,7.1314,7.1548,7.1641,7.1618,7.1594,7.1618,7.1618,7.1594,7.1594,7.1618,7.1594,7.1594,7.1594,7.1618,7.1594,7.1594,7.1618,7.1594,7.1337,7.0847,7.0776,7.0776,7.0776,7.0776,7.0776,7.0776,7.0776,7.0776,7.0776,7.0776,7.0776,7.0776,7.0776,7.0776,7.0776,7.0776,7.0776,7.0776,7.0776,7.0893,7.1028,7.0603,7.0391,7.0517,7.009,6.9526,6.9788,7.0018,6.9979,6.9404,6.9435,6.9058,6.8359,6.7676,6.6894,6.5811,6.506,6.3518,6.3122,6.3315,6.3202,6.2629,6.2474,6.2182,6.0552,6.0175,6.025,6.0118,6.0137,6.1152,6.2888,6.188,6.0439,6.0966,6.233,6.2386,6.2609,6.2553,6.2553,6.233,6.0816,6.0383,6.0985,6.0703,6.0646,6.1958,6.2832,6.3313,6.4048,6.3368,6.3459,7.0132,6.9795,6.921,6.9098,6.9315,6.9224,6.9225,6.9201,6.9414,6.9485,6.9603,7.0926,7.0562,6.8952,6.8905,6.9209,6.9841,6.9865,6.9933,7.0122,7.0096,7.0145,7.0096,7.0145,7.0379,7.073,7.0776,7.0776,7.0776,7.0776,7.0776,7.0776,7.0776,7.0776,7.0776,7.0776,7.0776,7.0776,7.0776,7.0356,6.9631,6.9514,6.9466,6.9466,6.9514,6.9514,6.9466,6.9514,6.9466,6.9538,6.9466,6.9514,6.9466,6.9514,6.9466,6.9466,6.9466,6.9442,6.9442,6.9466,6.9514,6.9514,6.9466,6.9701,7.0075,7.0145,6.9935,6.9608,6.9514,6.9466,6.9417,6.9912,7.0145,7.0169,7.0543,7.0258,6.882,6.8692,6.829,6.6931,6.591,6.5294,6.5307,6.5042,6.449,6.3935,6.369,6.3434,6.2561,6.218,6.2375,6.2613,6.2081,6.2903,6.4955,6.3733,6.3298,6.3816,6.4068,6.4179,6.4344,6.4344,6.3958,6.4819,6.3937,6.3237,6.2625,6.2959,6.3146,6.4048,6.5018,6.5238,6.6601,6.5839,6.6112,7.0589,7.0613,7.0379,7.0473,7.0239,6.9538,6.9305,6.9354,6.8463,6.7925,6.7972,7.014,7.0795,7.0496,7.0423,7.0545,7.0641,7.0756,7.0384,6.966,6.9519,6.9519,6.9685,6.9566,7.0011,7.0857,7.081,7.0789,7.0789,7.0597,7.0475,7.0522,7.0496,7.0426,7.0426,7.0426,7.04,7.0473,7.0522,6.9658,6.7855,6.7691,6.7714,6.7644,6.7667,6.762,6.7574,6.7504,6.748,6.7387,6.7387,6.7387,6.7387,6.7387,6.7387,6.7387,6.7387,6.7387,6.7387,6.7387,6.7387,6.7387,6.748,6.7924,6.8742,6.8765,6.8344,6.762,6.7387,6.748,6.7503,6.8298,6.8858,6.9022,6.9818,7.0496,7.0185,7.0473,7.0423,7.0473,6.812,6.7277,6.6919,6.5881,6.4753,6.4955,6.4868,6.4552,6.4447,6.4487,6.4898,6.626,6.5505,6.5648,6.7165,6.663,6.575,6.7935,6.6231,6.5326,6.5741,6.5318,6.4484,6.6322,6.6435,6.6011,6.6258,6.683,6.658,6.6363,6.6851,6.7122,6.6851,6.6689,6.7716,6.9512,6.9491,6.8671,6.8344,6.8391,6.8928,6.9896,7.0918,7.0706,6.9525,6.7878,6.8229,6.844,6.8438,6.9234,6.985,7.0379,7.1014,7.1471,7.1769,7.1746,7.1746,7.1746,7.1769,7.1841,7.1984,7.1173,7.0768,7.0625,6.9555,6.8987,6.894,6.8535,6.8344,6.8368,6.8344,6.8344,6.8392,6.9154,6.9153,6.8304,6.821,6.8021,6.7691,6.762,6.727,6.6476,6.6429,6.6126,6.5447,6.54,6.5377,6.5377,6.5377,6.5377,6.5377,6.5377,6.5377,6.5377,6.5377,6.5377,6.54,6.6032,6.6546,6.6709,6.6172,6.5611,6.5424,6.547,6.5751,6.6359,6.6709,6.7083,6.7901,6.8251,6.8344,6.8344,6.8344,6.8344,6.8344,6.7891,6.753,6.7622,6.7812,6.783,6.7621,6.7142,6.5859,6.4547,6.4246,6.595,6.8075,6.7976,6.7048,6.7203,6.5833,6.503,6.5054,6.5851,6.6561,6.6902,6.6918,6.7042,6.7817,6.7054,6.6473,6.6801,6.6929,6.7048,6.7232,6.8358,6.8893,6.749,6.7114,6.8015,6.9886,6.9865,6.9279,6.9045,6.914,6.9653,7.0152,7.0442,7.0286,6.9389,6.8162,6.8068,6.7927,6.7714,6.8228,6.8957,6.9738,7.0231,7.0637,7.1025,7.1718,7.1816,7.1507,7.2132,7.2493,7.2469,7.1822,7.1582,7.1463,7.0698,7.0007,6.9485,6.9225,6.8823,6.8398,6.8351,6.8374,6.8351,6.8019,6.7666,6.7363,6.647,6.5909,6.5634,6.512,6.4606,6.4068,6.4045,6.3811,6.3341,6.3294,6.3551,6.3951,6.4021,6.4208,6.4676,6.4699,6.4699,6.4699,6.4699,6.4699,6.4723,6.5213,6.5261,6.4794,6.4746,6.4699,6.4699,6.4699,6.4933,6.5378,6.5448,6.5658,6.6312,6.6335,6.6335,6.6359,6.6639,6.6943,6.699,6.734,6.7644,6.7644,6.8158,6.8485,6.8412,6.7989,6.7291,6.6551,6.6012,6.6617,6.8671,6.8283,6.7686,6.8019,6.7041,6.6689,6.7039,6.7235,6.764,6.872,6.7764,6.8038,6.9171,6.8803,6.8156,6.8481,6.8629,6.8629,6.8785,6.9813,7.0019,6.9171,6.8681,6.9353,6.9865,6.9912,6.9912,6.9912,6.9912,7.0052,6.9608,6.8743,6.8233,6.8114,6.8043,6.809,6.7833,6.7341,6.7458,6.8043,6.8934,6.9121,6.9168,6.9384,7.0713,7.0908,7.0364,7.1559,7.2134,7.2134,7.187,7.1871,7.1919,7.1774,7.1391,7.0483,7.0507,7.0053,6.9266,6.9123,6.8955,6.8686,6.6978,6.6073,6.6144,6.4547,6.3588,6.3432,6.2539,6.186,6.163,6.1536,6.1442,6.1442,6.1376,6.1797,6.2666,6.2549,6.2829,6.3598,6.3528,6.3484,6.3554,6.3624,6.3715,6.3879,6.4091,6.3668,6.2315,6.3273,6.4113,6.4045,6.4091,6.4325,6.4489,6.4489,6.4559,6.4746,6.4746,6.4723,6.4839,6.5448,6.5915,6.5939,6.6709,6.713,6.706,6.713,6.72,6.7387,6.7314,6.7712,6.8124,6.7994,6.734,6.741,6.7527,6.8017,6.8501,6.8927,6.8844,7.0215,6.8396,6.7912,6.9513,6.8431,6.8147,7.0102,7.0099,7.0264,7.0573,7.0776,7.0543,7.049,7.0513,7.0715,7.0563,7.0096,7.0014,6.5774,6.5774,6.5774,6.582,6.5844,6.6593,6.6826,6.6593,6.5749,0.0,0.0,6.5758,6.5849,6.5805,6.663,6.7333,6.7962,6.8467,6.9128,6.9829,7.0115,7.0395,7.0621,7.0464,7.0445,7.0372,6.9112,6.875,6.9117,6.8706,6.8634,6.8838,6.9237,6.9385,6.9218,6.8796,6.7905,6.6518,6.6091,6.6125,6.6569,6.6234,6.5688,6.491,6.3964,6.2823,6.1653,6.0791,6.0366,6.0324,6.0366,6.0417,6.0581,5.9809,5.906,5.8365,5.7547,5.743,5.8248,5.8341,5.8692,5.9598,6.1189,6.0693,5.7032,5.9318,6.0885,6.0885,6.1657,6.2522,6.3367,6.3437,6.3788,6.4629,6.4699,6.4676,6.4699,6.4886,6.498,6.498,6.519,6.526,6.533,6.533,6.5517,6.6172,6.6406,6.671,6.7434,6.6476,6.5657,6.6312,6.6966,6.7597,6.7854,6.7877,6.7971,6.8204,6.7846,6.768,6.8038,6.7847,6.8124,6.9302,6.9491,6.9841,7.0543,7.0636,7.0776,7.0776,7.0776,7.0776,7.0636,6.9444,6.8344,6.488,6.4699,6.4699,6.4699,0.0,6.5237,6.4906,6.4078,6.3653,6.3617,6.3836,6.4031,6.4162,6.4166,6.464,6.532,6.6066,6.6412,6.7048,6.8049,6.8852,6.93,6.9598,7.0108,7.0398,7.0349,6.9564,6.9367,6.962,6.9346,6.8768,6.793,6.8215,6.7766,6.6752,6.6507,6.5713,6.4296,6.4937,6.5314,6.5534,6.4525,6.3807,6.333,6.2332,0.0,0.0,0.0,0.0,0.0,0.0,0.0,0.0,5.778,0.0,5.6324,5.544,5.4953,5.5105,5.5461,5.5925,5.6442,5.7222,5.6473,5.3613,5.5536,5.7336,5.8382,5.8967,5.9903,6.138,6.1567,6.2031,6.3013,6.3154,6.3154,6.3224,6.3645,6.3928,6.3975,6.4417,6.4699,6.4699,6.4699,6.4933,6.5354,6.5401,6.5565,6.5915,6.5307,6.4839,6.5354,6.5915,6.6172,6.6195,6.6149,6.6242,6.6756,6.6826,6.7036,6.755,6.7644,6.7784,6.8251,6.8415,6.8531,6.9069,6.9185,6.9162,6.9162,6.9162,6.9022,6.8438,6.8017,6.7644,6.4627,6.4272,6.4249,6.4249,6.4202,6.3762,6.2834,6.1643,6.1516,6.177,6.2131,6.2233,6.2275,6.2275,6.2383,6.2981,6.3936,6.3893,6.4553,6.5646,6.6933,6.7541,6.7703,6.8838,6.9408,6.9387,6.9342,6.9342,6.9387,6.9582,6.8802,6.7189,6.736,6.6506,6.4712,0.0,0.0,0.0,6.3576,6.429,6.4434,6.2869,6.194,6.1791,6.0819,0.0,5.9532,5.9342,5.9109,5.8744,5.7741,0.0,0.0,0.0,0.0,0.0,0.0,0.0,0.0,0.0,0.0,0.0,5.2235,5.1624,5.0579,5.179,5.3573,5.5661,5.6183,5.7096,5.8838,5.8938,5.9388,6.0557,6.0721,6.0815,6.1025,6.1961,6.2572,6.2596,6.346,6.4091,6.4066,6.4136,6.4206,6.4349,6.4419,6.4325,6.4206,6.4045,6.4206,6.4395,6.4465,6.4557,6.4676,6.4793,6.5167,6.5588,6.5845,6.6149,6.6803,6.699,6.706,6.7036,6.7083,6.7083,6.7083,6.7083,6.7083,6.7083,6.7247,6.706,6.6102,6.6523,6.7083,6.2978,6.2549,6.2525,6.2506,6.2388,6.0215,5.9407,5.9476,5.9149,5.9067,5.9084,5.9446,5.9609,5.9633,6.0047,6.0807,6.1786,6.1744,6.2479,6.3868,6.4098,6.4425,6.483,6.4613,6.4491,6.4448,6.4131,6.4107,6.4539,6.5367,6.5922,6.6159,6.6994,6.6872,6.5622,6.284,6.1409,6.1289,6.2295,6.3316,6.4349,6.413,6.3726,6.3283,6.227,6.1535,6.1165,6.0257,5.9739,5.9658,5.8577,5.7469,5.629,5.3482,5.131,0.0,4.8288,0.0,0.0,0.0,0.0,0.0,0.0,0.0,0.0,4.7966,4.9422,5.1841,5.3371,5.4444,5.5114,5.4824,5.5404,5.729,5.7523,5.7938,5.8827,5.9832,6.0487,6.0464,6.1395,6.2008,6.2051,6.2051,6.2405,6.318,6.3297,6.292,6.2262,6.2074,6.2405,6.3273,6.3367,6.3647,6.437,6.4606,6.4698,6.4816,6.491,6.4933,6.5212,6.5167,6.5143,6.5167,6.5237,6.519,6.5097,6.5167,6.5143,6.5237,6.5775,6.5869,6.519,6.512,6.5097,6.1271,6.0752,6.0569,6.007,5.9277,5.7968,5.7643,5.8059,5.861,5.8857,5.8832,5.9357,5.8997,5.8215,5.9192,5.9762,6.0061,6.0573,6.1497,6.265,6.249,6.2928,6.3879,6.3693,6.3735,6.3987,6.3843,6.3843,6.4011,6.4448,6.446,6.4084,6.4573,6.4328,6.345,6.0707,5.9887,6.101,6.1513,6.2571,6.4273,6.4346,6.4262,6.3962,6.3567,6.285,6.1792,6.1131,6.0097,5.8665,5.7305,5.5553,5.3167,5.064,4.8281,0.0,0.0,0.0,0.0,0.0,0.0,0.0,0.0,0.0,0.0,0.0,4.6157,4.7559,5.0383,5.2293,5.2679,5.3385,5.398,5.433,5.5082,5.5402,5.5092,5.6613,5.7379,5.6682,5.8569,5.9879,5.9903,6.0394,6.1185,6.2171,6.131,6.0525,6.0294,6.0543,6.0908,6.14,6.1961,6.2499,6.2896,6.299,6.3201,6.3694,6.3858,6.4068,6.4606,6.4699,6.4699,6.4699,6.4699,6.4699,6.4699,6.4699,6.4699,6.4699,6.4629,6.4349,6.3975,6.4302,6.4699,5.9845,5.9022,5.8266,5.7312,5.6336,5.5675,5.5515,5.5871,5.6895,5.7182,5.716,5.813,5.777,5.6348,5.7635,5.8188,5.8211,5.9092,5.9993,6.0896,6.0927,6.1456,6.245,6.2798,6.3168,6.3564,6.3911,6.3812,6.3198,6.3272,6.2991,6.24,6.2114,6.1566,6.0835,5.9442,5.9279,6.0277,6.1049,6.2246,6.384,6.4199,6.4346,6.4346,6.4077,6.3375,6.2203,6.1417,5.9876,5.7555,5.5455,5.3185,5.0683,4.7987,0.0,0.0,0.0,0.0,0.0,0.0,0.0,0.0,0.0,3.891,3.8281,0.0,4.3457,0.0,4.7316,4.9621,5.0175,5.1133,0.0,0.0,5.2476,5.2596,5.1555,5.3429,5.4351,5.308,5.5698,5.76,5.7543,5.8668,5.9799,6.074,5.9505,5.8604,5.896,5.9577,5.9996,5.9832,6.0347,6.0838,6.0904,6.1115,6.161,6.2619,6.285,6.304,6.3811,6.3996,6.3996,6.3996,6.3951,6.3951,6.3949,6.4019,6.3902,6.3577,6.3013,6.2546,6.2736,6.3411,6.3972,5.8907,5.7185,5.5388,5.4458,5.4161,5.2605,5.1849,5.1821,5.2051,5.1766,5.1399,5.3916,5.4364,5.3259,5.4226,0.0,5.6032,5.6493,5.7074,5.7782,5.9031,5.9541,5.9301,6.0641,6.1278,6.1318,6.2792,6.2214,5.9965,6.0241,6.0849,6.1697,6.0638,5.9589,5.8697,6.0285,6.0203,5.8241,6.101,6.2506,6.2767,6.3809,6.4346,6.4321,6.3279,6.2677,6.2466,6.0671,5.8934,5.733,5.3479,5.0996,5.014,0.0,0.0,0.0,0.0,0.0,0.0,0.0,0.0,0.0,0.0,0.0,0.0,0.0,0.0,4.2157,4.4224,0.0,4.6931,4.6259,0.0,0.0,0.0,4.9019,4.8896,5.0746,5.1602,5.0558,0.0,0.0,5.4803,5.6472,5.7995,5.868,5.8639,5.8523,5.8563,5.9294,5.9715,5.8827,5.8756,5.8762,5.9014,5.9645,6.0464,6.1283,6.1727,6.1657,6.1817,6.1864,6.1844,6.1867,6.1844,6.1844,6.1887,6.1774,6.1606,6.0581,6.0347,6.0581,6.1353,6.168,6.1817,5.4405,5.0395,4.9646,4.9305,4.9161,4.8519,4.8241,4.8337,4.9171,4.9806,5.0401,5.142,5.1641,5.1074,5.0433,0.0,0.0,0.0,5.4129,5.4356,5.6039,5.6824,5.6992,5.8135,5.8851,5.9144,5.909,5.8856,5.852,5.8005,5.7441,5.6697,0.0,5.4076,5.6465,5.6531,5.6633,5.6945,5.8788,6.0375,6.162,6.2083,6.2368,6.2343,6.2498,6.1717,5.9838,5.8667,5.6344,5.2562,5.0877,4.8133,0.0,0.0,0.0,0.0,0.0,0.0,0.0,0.0,0.0,0.0,0.0,3.456,3.1861,0.0,0.0,0.0,4.0804,4.204,4.2935,4.414,0.0,0.0,0.0,0.0,0.0,0.0,0.0,4.5747,4.9737,5.2611,5.2442,5.2124,5.2562,5.4315,5.4107,5.4388,5.5861,0.0,5.7587,5.8406,5.8482,5.8482,5.8505,5.8873,5.8827,5.8014,5.8341,5.8803,5.8827,5.9341,5.9715,5.9762,5.9739,5.9739,5.9739,5.871,5.7727,5.7313,5.7243,5.757,5.8616,5.8827,5.9014,4.9522,0.0,0.0,0.0,0.0,4.5128,4.4976,4.4997,4.6074,4.6997,4.7734,4.8484,0.0,0.0,0.0,0.0,0.0,0.0,5.1099,5.1018,5.3012,5.4111,5.4282,5.5278,5.6034,5.6498,5.5599,5.5315,5.5434,5.3738,5.2757,5.254,0.0,0.0,0.0,0.0,5.3658,5.4448,5.6749,5.8617,6.0146,6.0756,6.1049,6.1049,6.118,6.0019,5.7394,5.5848,5.3187,4.9285,4.7518,0.0,0.0,0.0,0.0,0.0,0.0,0.0,0.0,0.0,0.0,0.0,0.0,0.0,0.0,0.0,0.0,0.0,0.0,0.0,4.0446,4.2351,4.3403,0.0,0.0,0.0,0.0,0.0,0.0,0.0,0.0,0.0,4.869,4.8135,4.8708,0.0,0.0,5.2344,5.3778,5.492,5.5879,5.6786,5.6982,0.0,5.6903,5.7161,5.6817,5.5233,5.584,5.6518,5.6518,5.6635,5.6822,5.7126,5.7173,5.6846,5.6043,5.4602,5.3676,5.3667,5.3877,5.4321,5.5046,5.57,5.6191,0.0,0.0,0.0,0.0,4.3717,0.0,0.0,0.0,4.2291,4.2298,0.0,4.4484,0.0,0.0,0.0,0.0,4.6399,4.7685,0.0,0.0,5.0356,5.1435,5.1095,5.1991,5.2722,5.3176,5.2862,5.1694,4.9729,4.6537,0.0,0.0,0.0,0.0,0.0,0.0,5.2292,5.0283,5.5203,5.7935,5.807,5.996,6.0985,6.0952,5.9144,5.7408,5.5787,5.2103,4.9597,4.8735,4.3305,0.0,0.0,0.0,0.0,0.0,0.0,0.0,0.0,0.0,0.0,0.0,0.0,0.0,0.0,0.0,0.0,0.0,0.0,0.0,0.0,4.0644,0.0,0.0,0.0,0.0,0.0,0.0,0.0,0.0,0.0,4.4261,4.299,4.5113,4.7683,4.9912,0.0,0.0,0.0,0.0,5.5237,5.3471,5.3421,5.3541,5.319,5.3943,5.4421,5.3915,0.0,0.0,5.5381,5.3793,5.2798,5.3793,5.398,5.3022,5.0055,4.9436,4.9389,4.9413,5.0067,5.0792,5.1025,5.2264,5.3396,0.0,0.0,0.0,0.0,0.0,0.0,0.0,0.0,0.0,3.8169,3.8857,3.9777,0.0,0.0,0.0,0.0,0.0,0.0,0.0,0.0,4.7474,4.7994,4.5729,4.827,4.874,4.7421,4.736,4.6165,0.0,0.0,0.0,0.0,0.0,0.0,0.0,0.0,5.0273,4.8779,5.3367,5.6173,5.68,5.829,5.8984,5.896,5.7569,5.5252,5.1933,4.9183,4.6259,0.0,0.0,0.0,0.0,0.0,0.0,0.0,0.0,0.0,0.0,0.0,0.0,0.0,0.0,0.0,0.0,0.0,0.0,0.0,0.0,0.0,0.0,0.0,4.0711,0.0,0.0,0.0,0.0,0.0,0.0,0.0,0.0,0.0,4.1381,4.1936,4.3805,4.7523,4.8029,4.915,5.2058,0.0,0.0,0.0,0.0,0.0,0.0,0.0,5.228,5.0126,5.0639,5.1107,5.0453,4.9728,4.9378,4.9728,0.0,0.0,4.5065,4.4785,4.522,4.5229,4.4963,4.5003,4.5649,4.6944,4.7963,0.0,0.0,0.0,0.0,0.0,0.0,0.0,0.0,0.0,3.432,3.4775,0.0,0.0,0.0,0.0,0.0,0.0,0.0,0.0,0.0,0.0,0.0,4.2875,4.4997,0.0,0.0,0.0,0.0,0.0,0.0,0.0,0.0,0.0,0.0,0.0,0.0,4.8955,4.8212,5.2612,5.5429,5.6311,5.7066,5.7414,5.7362,5.5556,5.3078,4.9833,0.0,0.0,0.0,0.0,0.0,0.0,0.0,0.0,0.0,0.0,0.0,0.0,0.0,0.0,0.0,0.0,0.0,0.0,0.0,0.0,0.0,0.0,0.0,0.0,0.0,3.8704,0.0,0.0,0.0,0.0,0.0,0.0,0.0,0.0,0.0,0.0,4.0045,4.143,4.4471,4.5587,4.7115,4.996,5.1133,5.2321,0.0,0.0,0.0,0.0,0.0,0.0,0.0,0.0,0.0,0.0,0.0,0.0,0.0,4.529,4.4013,4.0647,4.0577,4.1073,4.1073,0.0,0.0,0.0,0.0,0.0,0.0,0.0,0.0,0.0,0.0,0.0,0.0,0.0,0.0,0.0,2.968,0.0,0.0,2.9736,0.0,0.0,0.0,0.0,0.0,0.0,0.0,0.0,0.0,0.0,0.0,0.0,0.0,0.0,0.0,0.0,0.0,0.0,0.0,0.0,0.0,0.0,4.8266,4.8164,5.2889,5.5753,5.6455,5.6555,5.6438,5.608,5.3147,5.0899,4.9677,0.0,0.0,0.0,0.0,0.0,0.0,0.0,0.0,0.0,0.0,0.0,0.0,0.0,0.0,0.0,0.0,0.0,0.0,0.0,0.0,0.0,0.0,0.0,0.0,0.0,0.0,3.4218,3.697,3.9688,0.0,0.0,0.0,0.0,0.0,0.0,0.0,0.0,0.0,4.1056,4.5413,4.8127,4.7004,4.8829,5.0335,5.0021,4.9414,4.911,4.9642,4.8866,4.8001,0.0,0.0,0.0,0.0,0.0,0.0,0.0,0.0,0.0,0.0,0.0,0.0,0.0,0.0,0.0,0.0,0.0,0.0,0.0,0.0,0.0,0.0,0.0,0.0,0.0,0.0,0.0,0.0,0.0,0.0,0.0,0.0,0.0,0.0,0.0,0.0,0.0,0.0,0.0,0.0,0.0,0.0,0.0,0.0,0.0,0.0,0.0,0.0,0.0,0.0,0.0,0.0,0.0,0.0,4.659,4.5674,5.2077,5.5446,5.5624,5.6244,5.6146,5.529,5.1327,4.8671,0.0,0.0,0.0,0.0,0.0,0.0,0.0,0.0,0.0,0.0,0.0,0.0,0.0,0.0,0.0,0.0,0.0,0.0,0.0,0.0,0.0,0.0,0.0,0.0,0.0,0.0,0.0,0.0,3.9593,4.0162,3.9744,0.0,0.0,0.0,0.0,0.0,0.0,0.0,0.0,0.0,0.0,4.508,4.7516,4.9296,5.048,5.0787,5.0747,4.9998,4.7896,4.7168,4.613,4.4007,0.0,0.0,0.0,0.0,0.0,0.0,0.0,0.0,0.0,0.0,0.0,0.0,0.0,0.0,0.0,0.0,0.0,0.0,0.0,0.0,0.0,0.0,0.0,0.0,0.0,0.0,0.0,0.0,0.0,0.0,0.0,0.0,0.0,0.0,0.0,0.0,0.0,0.0,0.0,0.0,0.0,0.0,0.0,0.0,0.0,0.0,0.0,0.0,0.0,0.0,0.0,0.0,0.0,4.6046,4.5357,5.2048,5.5706,5.5935,5.6609,5.6128,5.4441,5.009,4.6935,0.0,0.0,0.0,0.0,0.0,0.0,0.0,0.0,0.0,0.0,0.0,0.0,0.0,0.0,0.0,0.0,0.0,0.0,0.0,0.0,0.0,0.0,0.0,0.0,0.0,0.0,0.0,0.0,3.7571,3.8437,3.775,0.0,0.0,0.0,0.0,0.0,0.0,0.0,0.0,0.0,0.0,4.2671,4.5606,4.708,0.0,0.0,4.9136,4.8379,4.5974,4.5379,4.4329,4.1794,4.1362,0.0,0.0,0.0,0.0,0.0,0.0,0.0,0.0,0.0,0.0,0.0,0.0,0.0,0.0,0.0,0.0,0.0,0.0,0.0,0.0,0.0,0.0,0.0,0.0,0.0,0.0,0.0,0.0,0.0,0.0,0.0,0.0,0.0,0.0,0.0,0.0,0.0,0.0,0.0,0.0,0.0,0.0,0.0,0.0,0.0,0.0,0.0,0.0,0.0,0.0,0.0,0.0,4.6327,4.6548,5.256,5.6205,5.7015,5.7351,5.628,5.3639,4.9169,4.5713,0.0,0.0,0.0,0.0,0.0,0.0,0.0,0.0,0.0,0.0,0.0,0.0,0.0,0.0,0.0,0.0,0.0,0.0,0.0,0.0,0.0,0.0,0.0,0.0,0.0,0.0,0.0,0.0,0.0,0.0,0.0,0.0,0.0,0.0,0.0,0.0,0.0,0.0,0.0,0.0,0.0,4.092,4.1858,4.3151,4.4333,0.0,4.5337,4.5006,4.3897,4.3446,4.2571,4.0529,0.0,0.0,0.0,0.0,0.0,0.0,0.0,0.0,0.0,0.0,0.0,0.0,0.0,0.0,0.0,0.0,0.0,0.0,0.0,0.0,0.0,0.0,0.0,0.0,0.0,0.0,0.0,0.0,0.0,0.0,0.0,0.0,0.0,0.0,0.0,0.0,0.0,0.0,0.0,0.0,0.0,0.0,0.0,0.0,0.0,0.0,0.0,0.0,0.0,0.0,0.0,0.0,0.0,0.0,4.5154,5.2111,5.5895,5.6122,5.7036,5.6722,5.5001,4.8236,0.0,0.0,0.0,0.0,0.0,0.0,0.0,0.0,0.0,0.0,0.0,0.0,0.0,0.0,0.0,0.0,0.0,0.0,0.0,0.0,0.0,0.0,0.0,0.0,0.0,0.0,0.0,2.6157,0.0,0.0,0.0,0.0,0.0,0.0,0.0,0.0,0.0,0.0,0.0,0.0,0.0,0.0,3.9844,4.0077,4.2783,4.4372,0.0,0.0,4.3751,4.1789,4.0911,3.9866,0.0,0.0,0.0,0.0,0.0,0.0,0.0,0.0,0.0,0.0,0.0,0.0,0.0,0.0,0.0,0.0,0.0,0.0,0.0,0.0,0.0,0.0,0.0,0.0,0.0,0.0,0.0,0.0,0.0,0.0,0.0,0.0,0.0,0.0,0.0,0.0,0.0,0.0,0.0,0.0,0.0,0.0,0.0,0.0,0.0,0.0,0.0,0.0,0.0,0.0,0.0,0.0,0.0,0.0,4.3485,4.3992,5.0104,5.3887,5.4934,5.665,5.6681,5.4922,4.8592,4.5045,0.0,0.0,0.0,0.0,0.0,0.0,0.0,0.0,0.0,0.0,0.0,0.0,0.0,0.0,0.0,0.0,0.0,0.0,0.0,0.0,0.0,0.0,0.0,0.0,0.0,0.0,0.0,0.0,0.0,0.0,0.0,0.0,0.0,0.0,0.0,0.0,0.0,0.0,0.0,0.0,0.0,0.0,3.9999,4.1533,0.0,0.0,0.0,4.2701,4.0388,0.0,0.0,0.0,0.0,0.0,0.0,0.0,0.0,0.0,0.0,0.0,0.0,0.0,0.0,0.0,0.0,0.0,0.0,0.0,0.0,0.0,0.0,0.0,0.0,0.0,0.0,0.0,0.0,0.0,0.0,0.0,0.0,0.0,0.0,0.0,0.0,0.0,0.0,0.0,0.0,0.0,0.0,0.0,0.0,0.0,0.0,0.0,0.0,0.0,0.0,0.0,0.0,0.0,0.0,0.0,0.0,0.0,4.2927,4.779,5.1516,5.3808,5.6175,5.6346,5.4279,4.9549,4.5769,0.0,0.0,0.0,0.0,0.0,0.0,0.0,0.0,0.0,0.0,0.0,0.0,0.0,0.0,0.0,0.0,0.0,0.0,0.0,0.0,0.0,0.0,0.0,0.0,0.0,0.0,0.0,0.0,0.0,0.0,0.0,0.0,0.0,0.0,0.0,0.0,0.0,0.0,0.0,0.0,0.0,3.8121,4.0154,3.9816,3.9293,0.0,0.0,4.1553,3.9387,3.861,0.0,0.0,0.0,0.0,0.0,0.0,0.0,0.0,0.0,0.0,0.0,0.0,0.0,0.0,0.0,0.0,0.0,0.0,0.0,0.0,0.0,0.0,0.0,0.0,0.0,0.0,0.0,0.0,0.0,0.0,0.0,0.0,0.0,0.0,0.0,0.0,0.0,0.0,0.0,0.0,0.0,0.0,0.0,0.0,0.0,0.0,0.0,0.0,0.0,0.0,0.0,0.0,0.0,0.0,0.0,0.0,4.2984,4.8641,5.2393,5.3781,5.5356,5.5922,5.5364,4.9958,4.6149,0.0,0.0,0.0,0.0,0.0,0.0,0.0,0.0,0.0,0.0,0.0,0.0,0.0,0.0,0.0,0.0,0.0,0.0,0.0,0.0,0.0,0.0,0.0,0.0,0.0,0.0,0.0,0.0,0.0,0.0,0.0,0.0,0.0,0.0,0.0,0.0,0.0,0.0,0.0,0.0,0.0,3.7646,3.7189,3.8525,0.0,0.0,0.0,0.0,3.8019,3.736,0.0,0.0,0.0,0.0,0.0,0.0,0.0,0.0,0.0,0.0,0.0,0.0,0.0,0.0,0.0,0.0,0.0,0.0,0.0,0.0,0.0,0.0,0.0,0.0,0.0,0.0,0.0,0.0,0.0,0.0,0.0,0.0,0.0,0.0,0.0,0.0,0.0,0.0,0.0,0.0,0.0,0.0,0.0,0.0,0.0,0.0,0.0,0.0,0.0,0.0,0.0,0.0,0.0,0.0,0.0,0.0,4.2101,4.6802,5.0249,5.2055,5.3917,5.4566,5.3943,4.9905,4.6396,0.0,0.0,0.0,0.0,0.0,0.0,0.0,0.0,0.0,0.0,0.0,0.0,0.0,0.0,0.0,0.0,0.0,0.0,0.0,0.0,0.0,0.0,0.0,0.0,0.0,0.0,0.0,0.0,0.0,0.0,0.0,0.0,0.0,0.0,0.0,0.0,0.0,0.0,0.0,0.0,3.6718,3.6968,3.7479,0.0,0.0,0.0,0.0,0.0,0.0,3.6783,3.5886,0.0,0.0,0.0,0.0,0.0,0.0,0.0,0.0,0.0,0.0,0.0,0.0,0.0,0.0,0.0,0.0,0.0,0.0,0.0,0.0,0.0,0.0,0.0,0.0,0.0,0.0,0.0,0.0,0.0,0.0,0.0,0.0,0.0,0.0,0.0,0.0,0.0,0.0,0.0,0.0,0.0,0.0,0.0,0.0,0.0,0.0,0.0,0.0,0.0,0.0,0.0,0.0,0.0,0.0,0.0,4.0665,4.4385,4.7459,4.9769,5.2086,5.2875,5.2052,4.9483,4.6322,4.2575,0.0,0.0,0.0,0.0,0.0,0.0,0.0,0.0,0.0,0.0,0.0,0.0,0.0,0.0,0.0,0.0,0.0,0.0,0.0,0.0,0.0,0.0,0.0,0.0,0.0,0.0,0.0,0.0,0.0,0.0,0.0,0.0,0.0,0.0,0.0,0.0,0.0,0.0,0.0,3.5663,3.6096,0.0,0.0,0.0,0.0,0.0,0.0,0.0,0.0,3.4733,0.0,0.0,0.0,0.0,0.0,0.0,0.0,0.0,0.0,0.0,0.0,0.0,0.0,0.0,0.0,0.0,0.0,0.0,0.0,0.0,0.0,0.0,0.0,0.0,0.0,0.0,0.0,0.0,0.0,0.0,0.0,0.0,0.0,0.0,0.0,0.0,0.0,0.0,0.0,0.0,0.0,0.0,0.0,0.0,0.0,0.0,0.0,0.0,0.0,0.0,0.0,0.0,0.0,0.0,0.0,0.0,4.3734,4.6562,4.8472,4.9942,5.1177,5.1996,4.866,4.4967,4.1269,0.0,0.0,0.0,0.0,0.0,0.0,0.0,0.0,0.0,0.0,0.0,0.0,0.0,0.0,0.0,0.0,0.0,0.0,0.0,0.0,0.0,0.0,0.0,0.0,0.0,0.0,0.0,0.0,0.0,0.0,0.0,0.0,0.0,0.0,0.0,0.0,0.0,0.0,3.2261,3.335,0.0,0.0,0.0,0.0,0.0,0.0,0.0,0.0,3.4334,0.0,0.0,0.0,0.0,0.0,0.0,0.0,0.0,0.0,0.0,0.0,0.0,0.0,0.0,0.0,0.0,0.0,0.0,0.0,0.0,0.0,0.0,0.0,0.0,0.0,0.0,0.0,0.0,0.0,0.0,0.0,0.0,0.0,0.0,0.0,0.0,0.0,0.0,0.0,0.0,0.0,0.0,0.0,0.0,0.0,0.0,0.0,0.0,0.0,0.0,0.0,0.0,0.0,0.0,0.0,0.0,0.0,0.0,4.5707,4.6282,4.8166,4.9201,4.9003,4.6124,4.3076,0.0,0.0,0.0,0.0,0.0,0.0,0.0,0.0,0.0,0.0,0.0,0.0,0.0,0.0,0.0,0.0,0.0,0.0,0.0,0.0,0.0,0.0,0.0,0.0,0.0,0.0,0.0,0.0,0.0,0.0,0.0,0.0,0.0,0.0,0.0,0.0,0.0,0.0,0.0,0.0,0.0,0.0,0.0,0.0,0.0,0.0,0.0,0.0,0.0,0.0,0.0,0.0,0.0,0.0,0.0,0.0,0.0,0.0,0.0,0.0,0.0,0.0,0.0,0.0,0.0,0.0,0.0,0.0,0.0,0.0,0.0,0.0,0.0,0.0,0.0,0.0,0.0,0.0,0.0,0.0,0.0,0.0,0.0,0.0,0.0,0.0,0.0,0.0,0.0,0.0,0.0,0.0,0.0,0.0,0.0,0.0,0.0,0.0,0.0,0.0,0.0,0.0,0.0,0.0,0.0,0.0,0.0,0.0,4.4528,4.4196,4.6643,4.7484,4.6463,4.3534,4.091,0.0,0.0,0.0,0.0,0.0,0.0,0.0,0.0,0.0,0.0,0.0,0.0,0.0,0.0,0.0,0.0,0.0,0.0,0.0,0.0,0.0,0.0,0.0,0.0,0.0,0.0,0.0,0.0,0.0,0.0,0.0,0.0,0.0,0.0,0.0,0.0,0.0,0.0,0.0,0.0,0.0,0.0,0.0,0.0,0.0,0.0,0.0,0.0,3.2698,0.0,0.0,0.0,0.0,0.0,0.0,0.0,0.0,0.0,0.0,0.0,0.0,0.0,0.0,0.0,0.0,0.0,0.0,0.0,0.0,0.0,0.0,0.0,0.0,0.0,0.0,0.0,0.0,0.0,0.0,0.0,0.0,0.0,0.0,0.0,0.0,0.0,0.0,0.0,0.0,0.0,0.0,0.0,0.0,0.0,0.0,0.0,0.0,0.0,0.0,0.0,0.0,0.0,0.0,0.0,0.0,0.0,0.0,0.0,4.2423,4.2991,4.5368,4.6604,4.6327,4.1898,3.8794,0.0,0.0,0.0,0.0,0.0,0.0,0.0,0.0,0.0,0.0,0.0,0.0,0.0,0.0,0.0,0.0,0.0,0.0,0.0,0.0,0.0,0.0,0.0,0.0,0.0,0.0,0.0,0.0,0.0,0.0,0.0,0.0,0.0,0.0,0.0,0.0,0.0,0.0,0.0,0.0,0.0,0.0,0.0,0.0,0.0,0.0,0.0,0.0,0.0,0.0,0.0,0.0,0.0,0.0,0.0,0.0,0.0,0.0,0.0,0.0,0.0,0.0,0.0,0.0,0.0,0.0,0.0,0.0,0.0,0.0,0.0,0.0,0.0,0.0,0.0,0.0,0.0,0.0,0.0,0.0,0.0,0.0,0.0,0.0,0.0,0.0,0.0,0.0,0.0,0.0,0.0,0.0,0.0,0.0,0.0,0.0,0.0,0.0,0.0,0.0,0.0,0.0,0.0,0.0,0.0,0.0,0.0,0.0,4.1264,4.1636,4.3365,4.3273,4.11,3.8352,3.6311,0.0,0.0,0.0,0.0,0.0,0.0,0.0,0.0,0.0,0.0,0.0,0.0,0.0,0.0,0.0,0.0,0.0,0.0,0.0,0.0,0.0,0.0,0.0,0.0,0.0,0.0,0.0,0.0,0.0,0.0,0.0,0.0,0.0,0.0,0.0,0.0,0.0,0.0,0.0,0.0,0.0,0.0,0.0,0.0,0.0,0.0,0.0,0.0,0.0,0.0,0.0,0.0,0.0,0.0,0.0,0.0,0.0,0.0,0.0,0.0,0.0,0.0,0.0,0.0,0.0,0.0,0.0,0.0,0.0,0.0,0.0,0.0,0.0,0.0,0.0,0.0,0.0,0.0,0.0,0.0,0.0,0.0,0.0,0.0,0.0,0.0,0.0,0.0,0.0,0.0,0.0,0.0,0.0,0.0,0.0,0.0,0.0,0.0,0.0,0.0,0.0,0.0,0.0,0.0,0.0,0.0,0.0,0.0,0.0,3.9416,4.0346,3.95,3.6773,3.5493,3.428,0.0,0.0,0.0,0.0,0.0,0.0,0.0,0.0,0.0,0.0,0.0,0.0,0.0,0.0,0.0,0.0,0.0,0.0,0.0,0.0,0.0,0.0,0.0,0.0,0.0,0.0,0.0,0.0,0.0,0.0,0.0,0.0,0.0,0.0,0.0,0.0,0.0,0.0,0.0,0.0,0.0,0.0,0.0,0.0,0.0,0.0,0.0,0.0,0.0,0.0,0.0,0.0,0.0,0.0,0.0,0.0,0.0,0.0,0.0,0.0,0.0,0.0,0.0,0.0,0.0,0.0,0.0,0.0,0.0,0.0,0.0,0.0,0.0,0.0,0.0,0.0,0.0,0.0,0.0,0.0,0.0,0.0,0.0,0.0,0.0,0.0,0.0,0.0,0.0,0.0,0.0,0.0,0.0,0.0,0.0,0.0,0.0,0.0,0.0,0.0,0.0,0.0,0.0,0.0,0.0,0.0,0.0,0.0,0.0,3.5708,3.573,3.5673,3.5391,3.4195,3.2926,0.0,0.0,0.0,0.0,0.0,0.0,0.0,0.0,0.0,0.0,0.0,0.0,0.0,0.0,0.0,0.0,0.0,0.0,0.0,0.0,0.0,0.0,0.0,0.0,0.0,0.0,0.0,0.0,0.0,0.0,0.0,0.0,0.0,0.0,0.0,0.0,0.0,0.0,0.0,0.0,0.0,0.0,0.0,0.0,0.0,0.0,0.0,0.0,0.0,0.0,0.0,0.0,0.0,0.0,0.0,0.0,0.0,0.0,0.0,0.0,0.0,0.0,0.0,0.0,0.0,0.0,0.0,0.0,0.0,0.0,0.0,0.0,0.0,0.0,0.0,0.0,0.0,0.0,0.0,0.0,0.0,0.0,0.0,0.0,0.0,0.0,0.0,0.0,0.0,0.0,0.0,0.0,0.0,0.0,0.0,0.0,0.0,0.0,0.0,0.0,0.0,0.0,0.0,0.0,0.0,0.0,0.0,0.0,0.0,3.2314,3.2228,3.2103,3.1838,3.1343,3.0892,3.04,0.0,0.0,0.0,0.0,0.0,0.0,0.0,0.0,0.0,0.0,0.0,0.0,0.0,0.0,0.0,0.0,0.0,0.0,0.0,0.0,0.0,0.0,0.0,0.0,0.0,0.0,0.0,0.0,0.0,0.0,0.0,0.0,0.0,0.0,0.0,0.0,0.0,0.0,0.0,0.0,0.0,0.0,0.0,0.0,0.0,0.0,0.0,0.0,0.0,0.0,0.0,0.0,0.0,0.0,0.0,0.0,0.0,0.0,0.0,0.0,0.0,0.0,0.0,0.0,0.0,0.0,0.0,0.0,0.0,0.0,0.0,0.0,0.0,0.0,0.0,0.0,0.0,0.0,0.0,0.0,0.0,0.0,0.0,0.0,0.0,0.0,0.0,0.0,0.0,0.0,0.0,0.0,0.0,0.0,0.0,0.0,0.0,0.0,0.0,0.0,0.0,0.0,0.0,0.0,0.0,0.0,0.0,0.0,3.0225,3.0421,3.0371,2.997,2.9912,2.9868,0.0,0.0,0.0,0.0,0.0,0.0,0.0,0.0,0.0,0.0,0.0,0.0,0.0,0.0,0.0,0.0,0.0,0.0,0.0,0.0,0.0,0.0,0.0,0.0,0.0,0.0,0.0,0.0,0.0,0.0,0.0,0.0,0.0,0.0,0.0,0.0,0.0,0.0,0.0,0.0,0.0,0.0,0.0,0.0,0.0,0.0,0.0,0.0,0.0,0.0,0.0,0.0,0.0,0.0,0.0,0.0,0.0,0.0,0.0,0.0,0.0,0.0,0.0,0.0,0.0,0.0,0.0,0.0,0.0,0.0,0.0,0.0,0.0,0.0,0.0,0.0,0.0,0.0,0.0,0.0,0.0,0.0,0.0,0.0,0.0,0.0,0.0,0.0,0.0,0.0,0.0,0.0,0.0,0.0,0.0,0.0,0.0,0.0,0.0,0.0,0.0,0.0,0.0,0.0,0.0,0.0,0.0,0.0,2.8916,2.9714,3.0633,3.0791,3.0343,3.03,3.0114,0.0,0.0,0.0,0.0,0.0,0.0,0.0,0.0,0.0,0.0,0.0,0.0,0.0,0.0,0.0,0.0,0.0,0.0,0.0,0.0,0.0,0.0,0.0,0.0,0.0,0.0,0.0,0.0,0.0,0.0,0.0,0.0,0.0,0.0,0.0,0.0,0.0,0.0,0.0,0.0,0.0,0.0,0.0,0.0,0.0,0.0,0.0,0.0,0.0,0.0,0.0,0.0,0.0,0.0,0.0,0.0,0.0,0.0,0.0,0.0,0.0,0.0,0.0,0.0,0.0,0.0,0.0,0.0,0.0,0.0,0.0,0.0,0.0,0.0,0.0,0.0,0.0,0.0,0.0,0.0,0.0,0.0,0.0,0.0,0.0,0.0,0.0,0.0,0.0,0.0,0.0,0.0,0.0,0.0,0.0,0.0,0.0,0.0,0.0,0.0,0.0,0.0,0.0,0.0,0.0,0.0,0.0,0.0,0.0,2.9679,0.0,3.0737,2.997,3.0172,2.9699,0.0,0.0,0.0,0.0,0.0,0.0,0.0,0.0,0.0,0.0,0.0,0.0,0.0,0.0,0.0,0.0,0.0,0.0,0.0,0.0,0.0,0.0,0.0,0.0,0.0,0.0,0.0,0.0,0.0,0.0,0.0,0.0,0.0,0.0,0.0,0.0,0.0,0.0,0.0,0.0,0.0,0.0,0.0,0.0,0.0,0.0,0.0,0.0,0.0,0.0,0.0,0.0,0.0,0.0,0.0,0.0,0.0,0.0,0.0,0.0,0.0,0.0,0.0,0.0,0.0,0.0,0.0,0.0,0.0,0.0,0.0,0.0,0.0,0.0,0.0,0.0,0.0,0.0,0.0,0.0,0.0,0.0,0.0,0.0,0.0,0.0,0.0,0.0,0.0,0.0,0.0,0.0,0.0,0.0,0.0,0.0,0.0,0.0,0.0,0.0,0.0,0.0,0.0,0.0,0.0,0.0,0.0,0.0,0.0,2.8897,3.0174,3.0634,3.0272,3.0286,2.9771,0.0,0.0,0.0,0.0,0.0,0.0,0.0,0.0,0.0,0.0,0.0,0.0,0.0,0.0,0.0,0.0,0.0,0.0,0.0,0.0,0.0,0.0,0.0,0.0,0.0,0.0,0.0,0.0,0.0,0.0,0.0,0.0,0.0,0.0,0.0,0.0,0.0,0.0,0.0,0.0,0.0,0.0,0.0,0.0,0.0,0.0,0.0,0.0,0.0,0.0,0.0,0.0,0.0,0.0,0.0,0.0,0.0,0.0,0.0,0.0,0.0,0.0,0.0,0.0,0.0,0.0,0.0,0.0,0.0,0.0,0.0,0.0,0.0,0.0,0.0,0.0,0.0,0.0,0.0,0.0,0.0,0.0,0.0,0.0,0.0,0.0,0.0,0.0,0.0,0.0,0.0,0.0,0.0,0.0,0.0,0.0,0.0,0.0,0.0,0.0,0.0,0.0,0.0,0.0,0.0,0.0,0.0,0.0,0.0,2.7708,2.9343,3.0526,3.098,3.0554,3.01,0.0,0.0,0.0,0.0,0.0,0.0,0.0,0.0,0.0,0.0,0.0,0.0,0.0,0.0,0.0,0.0,0.0,0.0,0.0,0.0,0.0,0.0,0.0,0.0,0.0,0.0,0.0,0.0,0.0,0.0,0.0,0.0,0.0,0.0,0.0,0.0,0.0,0.0,0.0,0.0,0.0,0.0,0.0,0.0,0.0,0.0,0.0,0.0,0.0,0.0,0.0,0.0,0.0,0.0,0.0,0.0,0.0,0.0,0.0,0.0,0.0,0.0,0.0,0.0,0.0,0.0,0.0,0.0,0.0,0.0,0.0,0.0,0.0,0.0,0.0,0.0,0.0,0.0,0.0,0.0,0.0,0.0,0.0,0.0,0.0,0.0,0.0,0.0,0.0,0.0,0.0,0.0,0.0,0.0,0.0,0.0,0.0,0.0,0.0,0.0,0.0,0.0,0.0,0.0,0.0,0.0,0.0,0.0,0.0,0.0,2.8799,2.9421,3.0439,3.0428,2.9714,2.8383,0.0,0.0,0.0,0.0,0.0,0.0,0.0,0.0,0.0,0.0,0.0,0.0,0.0,0.0,0.0,0.0,0.0,0.0,0.0,0.0,0.0,0.0,0.0,0.0,0.0,0.0,0.0,0.0,0.0,0.0,0.0,0.0,0.0,0.0,0.0,0.0,0.0,0.0,0.0,0.0,0.0,0.0,0.0,0.0,0.0,0.0,0.0,0.0,0.0,0.0,0.0,0.0,0.0,0.0,0.0,0.0,0.0,0.0,0.0,0.0,0.0,0.0,0.0,0.0,0.0,0.0,0.0,0.0,0.0,0.0,0.0,0.0,0.0,0.0,0.0,0.0,0.0,0.0,0.0,0.0,0.0,0.0,0.0,0.0,0.0,0.0,0.0,0.0,0.0,0.0,0.0,0.0,0.0,0.0,0.0,0.0,0.0,0.0,0.0,0.0,0.0,0.0,0.0,0.0,0.0,0.0,0.0,0.0,0.0,0.0,2.9073,3.0043,3.0243,2.9757,0.0,0.0,0.0,0.0,0.0,0.0,0.0,0.0,0.0,0.0,0.0,0.0,0.0,0.0,0.0,0.0,0.0,0.0,0.0,0.0,0.0,0.0,0.0,0.0,0.0,0.0,0.0,0.0,0.0,0.0,0.0,0.0,0.0,0.0,0.0,0.0,0.0,0.0,0.0,0.0,0.0,0.0,0.0,0.0,0.0,0.0,0.0,0.0,0.0,0.0,0.0,0.0,0.0,0.0,0.0,0.0,0.0,0.0,0.0,0.0,0.0,0.0,0.0,0.0,0.0,0.0,0.0,0.0,0.0,0.0,0.0,0.0,0.0,0.0,0.0,0.0,0.0,0.0,0.0,0.0,0.0,0.0,0.0,0.0,0.0,0.0,0.0,0.0,0.0,0.0,0.0,0.0,0.0,0.0,0.0,0.0,0.0,0.0,0.0,0.0,0.0,0.0,0.0,0.0,0.0,0.0,0.0,0.0,0.0,0.0,0.0,2.9284,2.9724,3.0057,0.0,2.9752,0.0,0.0,0.0,0.0,0.0,0.0,0.0,0.0,0.0,0.0,0.0,0.0,0.0,0.0,0.0,0.0,0.0,0.0,0.0,0.0,0.0,0.0,0.0,0.0,0.0,0.0,0.0,0.0,0.0,0.0,0.0,0.0,0.0,0.0,0.0,0.0,0.0,0.0,0.0,0.0,0.0,0.0,0.0,0.0,0.0,0.0,0.0,0.0,0.0,0.0,0.0,0.0,0.0,0.0,0.0,0.0,0.0,0.0,0.0,0.0,0.0,0.0,0.0,0.0,0.0,0.0,0.0,0.0,0.0,0.0,0.0,0.0,0.0,0.0,0.0,0.0,0.0,0.0,0.0,0.0,0.0,0.0,0.0,0.0,0.0,0.0,0.0,0.0,0.0,0.0,0.0,0.0,0.0,0.0,0.0,0.0,0.0,0.0,0.0,0.0,0.0,0.0,0.0,0.0,0.0,0.0,0.0,0.0,0.0,0.0,0.0,0.0,2.9839,2.9796,2.9751,0.0,0.0,0.0,0.0,0.0,0.0,0.0,0.0,0.0,0.0,0.0,0.0,0.0,0.0,0.0,0.0,0.0,0.0,0.0,0.0,0.0,0.0,0.0,0.0,0.0,0.0,0.0,0.0,0.0,0.0,0.0,0.0,0.0,0.0,0.0,0.0,0.0,0.0,0.0,0.0,0.0,0.0,0.0,0.0,0.0,0.0,0.0,0.0,0.0,0.0,0.0,0.0,0.0,0.0,0.0,0.0,0.0,0.0,0.0,0.0,0.0,0.0,0.0,0.0,0.0,0.0,0.0,0.0,0.0,0.0,0.0,0.0,0.0,0.0,0.0,0.0,0.0,0.0,0.0,0.0,0.0,0.0,0.0,0.0,0.0,0.0,0.0,0.0,0.0,0.0,0.0,0.0,0.0,0.0,0.0,0.0,0.0,0.0,0.0,0.0,0.0,0.0,0.0,0.0,0.0,0.0,0.0,0.0,0.0,0.0,2.9843,2.8877,2.8877,2.8595,2.8073,0.0,0.0,0.0,0.0,0.0,0.0,0.0,0.0,0.0,0.0,0.0,0.0,0.0,0.0,0.0,0.0,0.0,0.0,0.0,0.0,0.0,0.0,0.0,0.0,0.0,0.0,0.0,0.0,0.0,0.0,0.0,0.0,0.0,0.0,0.0,0.0,0.0,0.0,0.0,0.0,0.0,0.0,0.0,0.0,0.0,0.0,0.0,0.0,0.0,0.0,0.0,0.0,0.0,0.0,0.0,0.0,0.0,0.0,0.0,0.0,0.0,0.0,0.0,0.0,0.0,0.0,0.0,0.0,0.0,0.0,0.0,0.0,0.0,0.0,0.0,0.0,0.0,0.0,0.0,0.0,0.0,0.0,0.0,0.0,0.0,0.0,0.0,0.0,0.0,0.0,0.0,0.0,0.0,0.0,0.0,0.0,0.0,0.0,0.0,0.0,0.0,0.0,0.0,0.0,0.0,0.0,0.0,0.0,0.0,0.0,0.0,0.0,0.0,0.0,2.6105,0.0,0.0,0.0,0.0,0.0,0.0,0.0,0.0,0.0,0.0,0.0,0.0,0.0,0.0,0.0,0.0,0.0,0.0,0.0,0.0,0.0,0.0,0.0,0.0,0.0,0.0,0.0,0.0,0.0,0.0,0.0,0.0,0.0,0.0,0.0,0.0,0.0,0.0,0.0,0.0,0.0,0.0,0.0,0.0,0.0,0.0,0.0,0.0,0.0,0.0,0.0,0.0,0.0,0.0,0.0,0.0,0.0,0.0,0.0,0.0,0.0,0.0,0.0,0.0,0.0,0.0,0.0,0.0,0.0,0.0,0.0,0.0,0.0,0.0,0.0,0.0,0.0,0.0,0.0,0.0,0.0,0.0,0.0,0.0,0.0,0.0,0.0,0.0,0.0,0.0,0.0,0.0,0.0,0.0,0.0,0.0,0.0,0.0,0.0,0.0,0.0,0.0,0.0,0.0,0.0,0.0,0.0,0.0,0.0,0.0,0.0,0.0,0.0,0.0,0.0,0.0,0.0,0.0,0.0,0.0,0.0,0.0,0.0,0.0,0.0,0.0,0.0,0.0,0.0,0.0,0.0,0.0,0.0,0.0,0.0,0.0,0.0,0.0,0.0,0.0,0.0,0.0,0.0,0.0,0.0,0.0,0.0,0.0,0.0,0.0,0.0,0.0,0.0,0.0,0.0,0.0,0.0,0.0,0.0,0.0,0.0,0.0,0.0,0.0,0.0,0.0,0.0,0.0,0.0,0.0,0.0,0.0,0.0,0.0,0.0,0.0,0.0,0.0,0.0,0.0,0.0,0.0,0.0,0.0,0.0,0.0,0.0,0.0,0.0,0.0,0.0,0.0,0.0,0.0,0.0,0.0,0.0,0.0,0.0,0.0,0.0,0.0,0.0,0.0,0.0,0.0,0.0,0.0,0.0,0.0,0.0,0.0,0.0,0.0,0.0,0.0,0.0,0.0,0.0,0.0,0.0,0.0,0.0,0.0,0.0,0.0,0.0,0.0,0.0,0.0,0.0,0.0,0.0,0.0,0.0,0.0,0.0,0.0,0.0,0.0,0.0,0.0,0.0,0.0,0.0,0.0,0.0,0.0,0.0,0.0,0.0,0.0,0.0,0.0,0.0,0.0,0.0,0.0,0.0,0.0,0.0,0.0,0.0,0.0,0.0,0.0,0.0,0.0,0.0,0.0,0.0,0.0,0.0,0.0,0.0,0.0,0.0,0.0,0.0,0.0,0.0,0.0,0.0,0.0,0.0,0.0,0.0,0.0,0.0,0.0,0.0,0.0,0.0,0.0,0.0,0.0,0.0,0.0,0.0,0.0,0.0,0.0,0.0,0.0,0.0,0.0,0.0,0.0,0.0,0.0,0.0,0.0,0.0,0.0,0.0,0.0,0.0,0.0,0.0,0.0,0.0,0.0,0.0,0.0,0.0,0.0,0.0,0.0,0.0,0.0,0.0,0.0,0.0,0.0,0.0,0.0,0.0,0.0,0.0,0.0,0.0,0.0,0.0,0.0,0.0,0.0,0.0,0.0,0.0,0.0,0.0,0.0,0.0,0.0,0.0,0.0,0.0,0.0,0.0,0.0,0.0,0.0,0.0,0.0,0.0,0.0,0.0,0.0,0.0,0.0,0.0,0.0,0.0,0.0,0.0,0.0,0.0,0.0,0.0,0.0,0.0,0.0,0.0,0.0,0.0,0.0,0.0,0.0,0.0,0.0,0.0,0.0,0.0,0.0,0.0,0.0,0.0,0.0,0.0,0.0,0.0,0.0,0.0,0.0,0.0,0.0,0.0,0.0,0.0,0.0,0.0,0.0,0.0,0.0,0.0,0.0,0.0,0.0,0.0,0.0,0.0,0.0,0.0,0.0,0.0,0.0,0.0,0.0,0.0,0.0,0.0,0.0,0.0,0.0,0.0,0.0,0.0,0.0,0.0,0.0,0.0,0.0,0.0,0.0,0.0,0.0,0.0,0.0,0.0,0.0,0.0,0.0,0.0,0.0,0.0,0.0,0.0,0.0,0.0,0.0,0.0,0.0,0.0,0.0,0.0,0.0,0.0,0.0,0.0,0.0,0.0,0.0,0.0,0.0,0.0,0.0,0.0,0.0,0.0,0.0,0.0,0.0,0.0,0.0,0.0,0.0,0.0,0.0,0.0,0.0,0.0,0.0,0.0,0.0,0.0,0.0,0.0,0.0,0.0,0.0,0.0,0.0,0.0,0.0,0.0,0.0,0.0,0.0,0.0,0.0,0.0,0.0,0.0,0.0,0.0,0.0,0.0,0.0,0.0,0.0,0.0,0.0,0.0,0.0,0.0,0.0,0.0,0.0,0.0,0.0,0.0,0.0,0.0,0.0,0.0,0.0,0.0,0.0,0.0,0.0,0.0,0.0,0.0,0.0,0.0,0.0,0.0,0.0,0.0,0.0,0.0,0.0,0.0,0.0,0.0,0.0,0.0,0.0,0.0,0.0,0.0,0.0,0.0,0.0,0.0,0.0,0.0,0.0,0.0,0.0,0.0,0.0,0.0,0.0,0.0,0.0,0.0,0.0,0.0,0.0,0.0,0.0,0.0,0.0,0.0,0.0,0.0,0.0,0.0,0.0,0.0,0.0,0.0,0.0,0.0,0.0,0.0,0.0,0.0,0.0,0.0,0.0,0.0,0.0,0.0,0.0,0.0,0.0,0.0,0.0,0.0,0.0,0.0,0.0,0.0,0.0,0.0,0.0,0.0,0.0,0.0,0.0,0.0,0.0,0.0,0.0,0.0,0.0,0.0,0.0,0.0,0.0,0.0,0.0,0.0,0.0,0.0,0.0,0.0,0.0,0.0,0.0,0.0,0.0,0.0,0.0,0.0,0.0,0.0,0.0,0.0,0.0,0.0,0.0,0.0,0.0,0.0,0.0,0.0,0.0,0.0,0.0,0.0,0.0,0.0,0.0,0.0,0.0,0.0,0.0,0.0,0.0,0.0,0.0,0.0,0.0,0.0,0.0,0.0,0.0,0.0,0.0,0.0,0.0,0.0,0.0,0.0,0.0,0.0,0.0,0.0,0.0,0.0,0.0,0.0,0.0,0.0,0.0,0.0,0.0,0.0,0.0,0.0,0.0,0.0,0.0,0.0,0.0,0.0,0.0,0.0,0.0,0.0,0.0,0.0,0.0,0.0,0.0,0.0,0.0,0.0,0.0,0.0,0.0,0.0,0.0,0.0,0.0,0.0,0.0,0.0,0.0,0.0,0.0,0.0,0.0,0.0,0.0,0.0,0.0,0.0,0.0,0.0,0.0,0.0,0.0,0.0,0.0,0.0,0.0,0.0,0.0,0.0,0.0,0.0,0.0,0.0,0.0,0.0,0.0,0.0,0.0,0.0,0.0,0.0,0.0,0.0,0.0,0.0,0.0,0.0,0.0,0.0,0.0,0.0,0.0,0.0,0.0,0.0,0.0,0.0,0.0,0.0,0.0,0.0,0.0,0.0,0.0,0.0,0.0,0.0,0.0,0.0,0.0,0.0,0.0,0.0,0.0,0.0,0.0,0.0,0.0,0.0,0.0,0.0,0.0,0.0,0.0,0.0,0.0,0.0,0.0,0.0,0.0,0.0,0.0,0.0,0.0,0.0,0.0,0.0,0.0,0.0,0.0,0.0,0.0,0.0,0.0,0.0,0.0,0.0,0.0,0.0,0.0,0.0,0.0,0.0,0.0,0.0,0.0,0.0,0.0,0.0,0.0,0.0,0.0,0.0,0.0,0.0,0.0,0.0,0.0,0.0,0.0,0.0,0.0,0.0,0.0,0.0,0.0,0.0,0.0,0.0,0.0,0.0,0.0,0.0,0.0,0.0,0.0,0.0,0.0,0.0,0.0,0.0,0.0,0.0,0.0,0.0,0.0,0.0,0.0,0.0,0.0,0.0,0.0,0.0,0.0,0.0,0.0,0.0,0.0,0.0,0.0,0.0,0.0,0.0,0.0,0.0,0.0,0.0,0.0,0.0,0.0,0.0,0.0,0.0,0.0,0.0,0.0,0.0,0.0,0.0,0.0,0.0,0.0,0.0,0.0,0.0,0.0,0.0,0.0,0.0,0.0,0.0,0.0,0.0,0.0,0.0,0.0,0.0,0.0,0.0,0.0,0.0,0.0,0.0,0.0,0.0,0.0,0.0,0.0,0.0,0.0,0.0,0.0,0.0,0.0,0.0,0.0,0.0,0.0,0.0,0.0,0.0,0.0,0.0,0.0,0.0,0.0,0.0,0.0,0.0,0.0,0.0,0.0,0.0,0.0,0.0,0.0,0.0,0.0,0.0,0.0,0.0,0.0,0.0,0.0,0.0,0.0,0.0,0.0,0.0,0.0,0.0,0.0,0.0,0.0]}],[{"header":{"parameterUnit":"kt","parameterCategory":2,"dx":1,"dy":1,"la1":29.587661999999998,"la2":31.0,"lo1":-88.76705300000003,"lo2":-86.6583820000003,"nx":115,"ny":88,"refTime":"2022-10-28T12:00:00:Z","depth":0,"parameterNumber":2,"parameterNumberName":"V-component_of_WINDS"},"data":[10.3997,10.3997,10.3997,10.3997,10.3997,10.3997,10.3997,10.3997,10.3997,10.3997,10.3997,10.3997,10.3997,10.3997,10.3997,10.3997,10.3997,10.3997,10.3997,10.4127,10.416,10.4257,10.4322,10.4386,10.4673,10.4641,10.4611,10.4802,10.5272,10.4831,10.4417,10.4482,10.445,10.4321,10.4029,10.3997,10.3997,10.3997,10.4128,10.416,10.403,10.403,10.3997,10.3997,10.3997,10.3997,10.3997,10.3997,10.3997,10.3997,10.3997,10.3997,10.3997,10.3997,10.3997,10.3997,10.3997,10.3997,10.3997,10.3997,10.3997,10.3997,10.3997,10.3997,10.3997,10.3997,10.4062,10.4257,10.4322,10.4515,10.4578,10.474,10.4866,10.4928,10.5182,10.5433,10.5713,10.5839,10.59,10.5931,10.5931,10.5931,10.5931,10.5962,10.5962,10.5962,10.5962,10.5962,10.5962,10.5962,10.5962,10.5962,10.5962,10.5962,10.5962,10.5962,10.5962,10.5962,10.5962,10.5962,10.5962,10.5962,10.5962,10.5962,10.5962,10.5962,10.5962,10.5962,10.5962,10.5962,10.5962,10.5962,10.5962,10.5962,10.5962,10.3997,10.3997,10.3997,10.3997,10.3997,10.3997,10.3997,10.3997,10.3997,10.3997,10.3997,10.3997,10.3997,10.3997,10.3997,10.3997,10.3997,10.3997,10.4643,10.4801,10.4354,10.4419,10.4482,10.4483,10.4355,10.4192,10.416,10.4355,10.4579,10.4418,10.4224,10.416,10.4159,10.4224,10.4062,10.3997,10.3997,10.3997,10.3997,10.3997,10.3997,10.3997,10.3997,10.3997,10.3997,10.3997,10.3997,10.3997,10.3997,10.3997,10.3997,10.3997,10.3997,10.3997,10.3997,10.3997,10.3997,10.3997,10.3997,10.3997,10.3997,10.3997,10.3997,10.3997,10.3997,10.3997,10.3997,10.4062,10.4062,10.4128,10.4192,10.4289,10.4386,10.4513,10.4834,10.5152,10.5435,10.5715,10.5808,10.5898,10.5898,10.5898,10.5931,10.5962,10.5962,10.5962,10.5962,10.5962,10.5962,10.5962,10.5962,10.5962,10.5962,10.5962,10.5962,10.5962,10.5962,10.5962,10.5962,10.5962,10.5962,10.5962,10.5962,10.5962,10.5962,10.5962,10.5962,10.5962,10.5962,10.5962,10.5962,10.5962,10.5962,10.5962,10.5962,10.3997,10.3997,10.3997,10.3997,10.3997,10.3997,10.3997,10.3997,10.3997,10.3997,10.3997,10.3997,10.3997,10.3997,10.3997,10.3997,10.3997,10.3997,10.4451,10.4611,10.4224,10.4483,10.4386,10.4192,10.403,10.3997,10.3997,10.3964,10.4128,10.4127,10.4127,10.4029,10.4062,10.4095,10.403,10.3997,10.3997,10.3997,10.3997,10.3997,10.3997,10.3997,10.3997,10.3997,10.3997,10.3997,10.3997,10.3997,10.3997,10.3997,10.3997,10.3997,10.3997,10.3997,10.3997,10.3997,10.3997,10.3997,10.3997,10.3997,10.3997,10.3997,10.3997,10.3997,10.3997,10.3997,10.3997,10.3997,10.3997,10.3997,10.4062,10.4062,10.4159,10.4224,10.4482,10.4706,10.4961,10.5245,10.5433,10.5558,10.562,10.5651,10.587,10.587,10.5931,10.5931,10.5962,10.5962,10.5962,10.5962,10.5962,10.5962,10.5962,10.5962,10.5962,10.5962,10.5962,10.5962,10.5962,10.5962,10.5962,10.5962,10.5962,10.5962,10.5962,10.5962,10.5962,10.5962,10.5962,10.5962,10.5962,10.5962,10.5962,10.5962,10.5962,10.3997,10.3997,10.3997,10.3997,10.3997,10.3997,10.3997,10.3997,10.3997,10.3997,10.3997,10.3997,10.3997,10.3997,10.3997,10.3997,10.3997,10.3997,10.3997,10.4062,10.4062,10.416,10.3997,10.4062,10.3997,10.3997,10.3997,10.3997,10.3997,10.3997,10.3997,10.3997,10.3997,10.403,10.3997,10.3997,10.3997,10.3997,10.3997,10.3997,10.3997,10.3997,10.3997,10.3997,10.3997,10.3997,10.3997,10.3997,10.3997,10.3997,10.3997,10.3997,10.3997,10.3997,10.3997,10.3997,10.3997,10.3997,10.3997,10.3997,10.3997,10.3997,10.3997,10.3997,10.3997,10.3997,10.3997,10.3997,10.3997,10.3997,10.3997,10.3997,10.403,10.4095,10.4192,10.4289,10.4417,10.4673,10.4961,10.5119,10.5245,10.5433,10.5715,10.5808,10.587,10.59,10.5931,10.5962,10.5962,10.5962,10.5962,10.5962,10.5962,10.5962,10.5962,10.5962,10.5962,10.5962,10.5962,10.5962,10.5962,10.5962,10.5962,10.5962,10.5962,10.5962,10.5962,10.5962,10.5962,10.5962,10.5962,10.5962,10.5962,10.5962,10.5962,10.3997,10.3997,10.3997,10.3997,10.3997,10.3997,10.3997,10.3997,10.3997,10.3997,10.3997,10.3997,10.3997,10.3997,10.3997,10.3997,10.3997,10.3997,10.3997,10.3997,10.3997,10.3997,10.3997,10.3997,10.3997,10.3997,10.3997,10.3997,10.3997,10.3997,10.3997,10.3997,10.3997,10.3997,10.3997,10.3997,10.3997,10.3997,10.3997,10.3997,10.3997,10.3997,10.3997,10.3997,10.3997,10.3997,10.3997,10.3997,10.3997,10.3997,10.3997,10.3997,10.3997,10.3997,10.3997,10.3997,10.3997,10.3997,10.3997,10.3997,10.3997,10.3997,10.3997,10.3997,10.3997,10.3997,10.3997,10.3997,10.3997,10.3997,10.3997,10.3997,10.3997,10.403,10.4062,10.4127,10.4224,10.4353,10.4612,10.4772,10.4898,10.5119,10.5404,10.5622,10.562,10.5839,10.59,10.5962,10.5962,10.5962,10.5962,10.5962,10.5962,10.5962,10.5962,10.5962,10.5962,10.5962,10.5962,10.5962,10.5962,10.5962,10.5962,10.5962,10.5962,10.5962,10.5962,10.5962,10.5962,10.5962,10.5962,10.5962,10.5962,10.5962,10.5962,10.3997,10.3997,10.3997,10.3997,10.3997,10.3997,10.3997,10.3997,10.3997,10.3997,10.3997,10.3997,10.3997,10.3997,10.3997,10.3997,10.3997,10.3997,10.3997,10.3997,10.3997,10.3997,10.3997,10.3997,10.3997,10.3997,10.3997,10.3997,10.3997,10.3997,10.3997,10.3997,10.3997,10.3997,10.3997,10.3997,10.3997,10.3997,10.3997,10.3997,10.3997,10.3997,10.3997,10.3997,10.3997,10.3997,10.3997,10.3997,10.3997,10.3997,10.3997,10.3997,10.3997,10.3997,10.3997,10.3997,10.3997,10.3997,10.3997,10.3997,10.3997,10.3997,10.3997,10.3997,10.3997,10.3997,10.3997,10.3997,10.3997,10.3997,10.3997,10.3997,10.3997,10.3997,10.403,10.4062,10.4095,10.416,10.4257,10.4386,10.4579,10.4802,10.5024,10.5245,10.5464,10.562,10.5744,10.5805,10.5836,10.5836,10.5839,10.5931,10.5962,10.5962,10.5962,10.5962,10.5962,10.5962,10.5962,10.5962,10.5962,10.5962,10.5962,10.5962,10.5962,10.5962,10.5962,10.5962,10.5962,10.5962,10.5962,10.5962,10.5962,10.5962,10.5962,10.3997,10.3997,10.3997,10.3997,10.3997,10.3997,10.3997,10.3997,10.3997,10.3997,10.3997,10.3997,10.3997,10.3997,10.3997,10.3997,10.3997,10.3997,10.3997,10.3997,10.3997,10.3997,10.3997,10.3997,10.3997,10.3997,10.3997,10.3997,10.3997,10.3997,10.3997,10.3997,10.3997,10.3997,10.3997,10.3997,10.3997,10.3997,10.3997,10.3997,10.3997,10.3997,10.3997,10.3997,10.3997,10.3997,10.3997,10.3997,10.3997,10.3997,10.3997,10.3997,10.3997,10.3997,10.3997,10.3997,10.3997,10.3997,10.3997,10.3997,10.3997,10.3997,10.3997,10.3997,10.3997,10.3997,10.3997,10.3997,10.3997,10.3997,10.3997,10.3997,10.3997,10.3997,10.3997,10.3997,10.403,10.4095,10.4095,10.4192,10.4225,10.4451,10.4675,10.4896,10.5151,10.537,10.5558,10.5617,10.5713,10.5682,10.5682,10.59,10.5962,10.5962,10.5962,10.5962,10.5962,10.5962,10.5962,10.5962,10.5962,10.5962,10.5962,10.5962,10.5962,10.5962,10.5962,10.5962,10.5962,10.5962,10.5962,10.5962,10.5962,10.5962,10.5962,10.3964,10.3997,10.3997,10.3997,10.3997,10.3997,10.3997,10.3997,10.3997,10.3997,10.3997,10.3997,10.3997,10.3997,10.3997,10.3997,10.3997,10.3997,10.3997,10.3997,10.3997,10.3997,10.3997,10.3997,10.3997,10.3997,10.3997,10.3997,10.3997,10.3997,10.3997,10.3997,10.3997,10.3997,10.3997,10.3997,10.3997,10.3997,10.3997,10.3997,10.3997,10.3997,10.3997,10.3997,10.3997,10.3997,10.3997,10.3997,10.3997,10.3997,10.3997,10.3997,10.3997,10.3997,10.3997,10.3997,10.3997,10.3997,10.3997,10.3997,10.3997,10.3997,10.3997,10.3997,10.3997,10.3997,10.3997,10.3997,10.3997,10.3997,10.3997,10.3997,10.3997,10.3997,10.3997,10.3997,10.3997,10.3997,10.3997,10.3997,10.4029,10.4127,10.4386,10.4578,10.477,10.4959,10.5117,10.5274,10.5493,10.5495,10.562,10.5805,10.5962,10.5962,10.5962,10.5962,10.5962,10.5962,10.5962,10.5962,10.5962,10.5962,10.5962,10.5962,10.5962,10.5962,10.5962,10.5962,10.5962,10.5962,10.5962,10.5962,10.5962,10.5962,10.5962,10.3043,10.3964,10.3997,10.3997,10.3997,10.3997,10.3997,10.3997,10.3997,10.3997,10.3997,10.3997,10.3997,10.3997,10.3997,10.3997,10.3997,10.3997,10.3997,10.3997,10.3997,10.3997,10.3997,10.3997,10.3997,10.3997,10.3997,10.3997,10.3997,10.3997,10.3997,10.3997,10.3997,10.3997,10.3997,10.3997,10.3997,10.3997,10.3997,10.3997,10.3997,10.3997,10.3997,10.3997,10.3997,10.3997,10.3997,10.3997,10.3997,10.3997,10.3997,10.3997,10.3997,10.3997,10.3997,10.3997,10.3997,10.3997,10.3997,10.3997,10.3997,10.3997,10.3997,10.3997,10.3997,10.3997,10.3997,10.3997,10.3997,10.3997,10.3997,10.3997,10.3997,10.3997,10.3997,10.3997,10.3997,10.3997,10.3997,10.3997,10.3997,10.4062,10.416,10.4322,10.445,10.4611,10.477,10.5023,10.5274,10.5368,10.5493,10.5774,10.5962,10.5962,10.5962,10.5962,10.5962,10.5962,10.5962,10.5962,10.5962,10.5962,10.5962,10.5962,10.5962,10.5962,10.5962,10.5962,10.5962,10.5962,10.5962,10.5962,10.5962,10.5962,10.5962,10.2551,10.3997,10.3997,10.3997,10.3997,10.3997,10.3997,10.3997,10.3997,10.3997,10.3997,10.3997,10.3997,10.3997,10.3997,10.3997,10.3997,10.3997,10.3997,10.3997,10.3997,10.3997,10.3997,10.3997,10.3997,10.3997,10.3997,10.3997,10.3997,10.3997,10.3997,10.3997,10.3997,10.3997,10.3997,10.3997,10.3997,10.3997,10.3997,10.3997,10.3997,10.3997,10.3997,10.3997,10.3997,10.3997,10.3997,10.3997,10.3997,10.3997,10.3997,10.3997,10.3997,10.3997,10.3997,10.3997,10.3997,10.3997,10.3997,10.3997,10.3997,10.3997,10.3997,10.3997,10.3997,10.3997,10.3997,10.3997,10.3997,10.3997,10.3997,10.3997,10.3997,10.3997,10.3997,10.3997,10.3997,10.3997,10.3997,10.3997,10.3997,10.3997,10.403,10.4192,10.4192,10.4322,10.4354,10.4612,10.5056,10.5214,10.5368,10.5682,10.5931,10.5931,10.5962,10.5962,10.5962,10.5962,10.5962,10.5962,10.5962,10.5962,10.5962,10.5962,10.5962,10.5962,10.5962,10.5962,10.5962,10.5962,10.5962,10.5962,10.5962,10.5962,10.5962,10.2484,10.3898,10.3964,10.3997,10.3997,10.3997,10.3997,10.3997,10.3997,10.3997,10.3997,10.3997,10.3997,10.3997,10.3997,10.3997,10.3997,10.3997,10.3997,10.3997,10.3997,10.3997,10.3997,10.3997,10.3997,10.3997,10.3997,10.3997,10.3997,10.3997,10.3997,10.3997,10.3997,10.3997,10.3997,10.3997,10.3997,10.3997,10.3997,10.3997,10.3997,10.3997,10.3997,10.3997,10.3997,10.3997,10.3997,10.3997,10.3997,10.3997,10.3997,10.3997,10.3997,10.3997,10.3997,10.3997,10.3997,10.3997,10.3997,10.3997,10.3997,10.3997,10.3997,10.3997,10.3997,10.3997,10.3997,10.3997,10.3997,10.3997,10.3997,10.3997,10.3997,10.3997,10.3997,10.3997,10.3997,10.3997,10.3997,10.3997,10.3997,10.3997,10.3997,10.3997,10.403,10.403,10.3997,10.429,10.4803,10.5056,10.5276,10.5558,10.587,10.59,10.5962,10.5962,10.5931,10.5962,10.5962,10.5962,10.5962,10.5962,10.5962,10.5962,10.5962,10.5962,10.5962,10.5962,10.5962,10.5962,10.5962,10.5962,10.5962,10.5962,10.5962,10.1038,10.2452,10.3569,10.3997,10.3997,10.3997,10.3997,10.3997,10.3997,10.3997,10.3997,10.3997,10.3997,10.3997,10.3997,10.3997,10.3997,10.3997,10.3997,10.3997,10.3997,10.3997,10.3997,10.3997,10.3997,10.3997,10.3997,10.3997,10.3997,10.3997,10.3997,10.3997,10.3997,10.3997,10.3997,10.3997,10.3997,10.3997,10.3997,10.3997,10.3997,10.3997,10.3997,10.3997,10.3997,10.3997,10.3997,10.3997,10.3997,10.3997,10.3997,10.3997,10.3997,10.3997,10.3997,10.3997,10.3997,10.3997,10.3997,10.3997,10.3997,10.3997,10.3997,10.3997,10.3997,10.3997,10.3997,10.3997,10.3997,10.3997,10.3997,10.3997,10.3997,10.3997,10.3997,10.3997,10.3997,10.3997,10.3997,10.3997,10.3997,10.3997,10.3997,10.3997,10.3997,10.3997,10.3997,10.4225,10.4612,10.4834,10.5088,10.5402,10.5682,10.5839,10.5931,10.59,10.587,10.59,10.5962,10.5962,10.5962,10.5962,10.5962,10.5962,10.5962,10.5962,10.5962,10.5962,10.5962,10.5962,10.5962,10.5962,10.5962,10.5962,10.5962,10.0349,10.1794,10.3372,10.3997,10.3997,10.3997,10.3997,10.3997,10.3997,10.3997,10.3997,10.3997,10.3997,10.3997,10.3997,10.3997,10.3997,10.3997,10.3997,10.3997,10.3997,10.3997,10.3997,10.3997,10.3997,10.3997,10.3997,10.3997,10.3997,10.3997,10.3997,10.3997,10.3997,10.3997,10.3997,10.3997,10.3997,10.3997,10.3997,10.3997,10.3997,10.3997,10.3997,10.3997,10.3997,10.3997,10.3997,10.3997,10.3997,10.3997,10.3997,10.3997,10.3997,10.3997,10.3997,10.3997,10.3997,10.3997,10.3997,10.3997,10.3997,10.3997,10.3997,10.3997,10.3997,10.3997,10.3997,10.3997,10.3997,10.3997,10.3997,10.3997,10.3997,10.3997,10.3997,10.3997,10.3997,10.3997,10.3997,10.3997,10.3997,10.3997,10.3997,10.3997,10.3997,10.4063,10.403,10.4128,10.4354,10.4611,10.4866,10.5151,10.5308,10.5402,10.562,10.5713,10.5774,10.587,10.5962,10.5962,10.5962,10.5962,10.5962,10.5962,10.5962,10.5962,10.5962,10.5962,10.5962,10.5962,10.5962,10.5962,10.5962,10.5962,10.5962,10.0349,10.1794,10.3339,10.3997,10.3997,10.3997,10.3997,10.3997,10.3997,10.3997,10.3997,10.3997,10.3997,10.3997,10.3997,10.3997,10.3997,10.3997,10.3997,10.3997,10.3997,10.3997,10.3997,10.3997,10.3997,10.3997,10.3997,10.3997,10.3997,10.3997,10.3997,10.3997,10.3997,10.3997,10.3997,10.3997,10.3997,10.3997,10.3997,10.3997,10.3997,10.3997,10.3997,10.3997,10.3997,10.3997,10.3997,10.3997,10.3997,10.3997,10.3997,10.3997,10.3997,10.3997,10.3997,10.3997,10.3997,10.3997,10.3997,10.3997,10.3997,10.3997,10.3997,10.3997,10.3997,10.3997,10.3997,10.3997,10.3997,10.3997,10.3997,10.3997,10.3997,10.3997,10.3997,10.3997,10.3997,10.3997,10.3997,10.3997,10.3997,10.3997,10.3997,10.3997,10.3997,10.4654,10.472,10.4391,10.4521,10.4616,10.484,10.4802,10.4929,10.5119,10.5308,10.5464,10.5558,10.5715,10.587,10.5931,10.5931,10.5962,10.5962,10.5962,10.5962,10.5962,10.5962,10.5962,10.5962,10.5962,10.5962,10.5962,10.5962,10.5962,10.5962,10.0349,10.1794,10.3372,10.3997,10.3997,10.3997,10.3997,10.3997,10.3997,10.3997,10.3997,10.3997,10.3997,10.3997,10.3997,10.3997,10.3997,10.3997,10.3997,10.3997,10.3997,10.3997,10.3997,10.3997,10.3997,10.3997,10.3997,10.3997,10.3997,10.3997,10.3997,10.3997,10.3997,10.3997,10.3997,10.3997,10.3997,10.3997,10.3997,10.3997,10.3997,10.3997,10.3997,10.3997,10.3997,10.3997,10.3997,10.3997,10.3997,10.3997,10.3997,10.3997,10.3997,10.3997,10.3997,10.3997,10.3997,10.3997,10.3997,10.3997,10.3997,10.3997,10.3997,10.3997,10.3997,10.3997,10.3997,10.3997,10.3997,10.3997,10.3997,10.3997,10.3997,10.3997,10.3997,10.3997,10.3997,10.3997,10.3997,10.3997,10.3997,10.3997,10.426,10.4128,10.4622,10.5246,10.5148,10.4753,10.4753,10.4817,10.4781,10.4482,10.4643,10.4931,10.5056,10.5214,10.537,10.556,10.5777,10.59,10.5805,10.5805,10.5839,10.59,10.5962,10.5962,10.5962,10.5962,10.5962,10.5962,10.5962,10.5962,10.5962,10.5962,10.5962,10.1334,10.2747,10.3603,10.3997,10.3997,10.3997,10.3997,10.3997,10.3997,10.3997,10.3997,10.3997,10.3997,10.3997,10.3997,10.3997,10.3997,10.3997,10.3997,10.3997,10.3997,10.3997,10.3997,10.3997,10.3997,10.3997,10.3997,10.3997,10.3997,10.3997,10.3997,10.3997,10.3997,10.3997,10.3997,10.3997,10.3997,10.3997,10.3997,10.3997,10.3997,10.3997,10.3997,10.3997,10.3997,10.3997,10.3997,10.3997,10.3997,10.3997,10.3997,10.3997,10.3997,10.3997,10.3997,10.3997,10.3997,10.3997,10.3997,10.3997,10.3997,10.3997,10.3997,10.3997,10.3997,10.3997,10.3997,10.3997,10.3997,10.3997,10.3997,10.3997,10.3997,10.3997,10.3997,10.3997,10.3997,10.3997,10.3997,10.3997,10.403,10.4622,10.5049,10.5575,10.6528,10.666,10.6167,10.5641,10.5346,10.4983,10.4456,10.4257,10.4451,10.4644,10.477,10.4898,10.5024,10.5214,10.5497,10.5526,10.5558,10.562,10.562,10.5651,10.5777,10.587,10.5962,10.5931,10.5931,10.5931,10.5962,10.5962,10.5962,10.5962,10.5962,10.2583,10.3964,10.3964,10.3997,10.3997,10.3997,10.3997,10.3997,10.3997,10.3997,10.3997,10.3997,10.3997,10.3997,10.3997,10.3997,10.3997,10.3997,10.3997,10.3997,10.3997,10.3997,10.3997,10.3997,10.3997,10.3997,10.3997,10.3997,10.3997,10.3997,10.3997,10.3997,10.3997,10.3997,10.3997,10.3997,10.3997,10.3997,10.3997,10.3997,10.3997,10.3997,10.3997,10.3997,10.3997,10.3997,10.3997,10.3997,10.3997,10.3997,10.3997,10.3997,10.3997,10.3997,10.3997,10.3997,10.3997,10.3997,10.3997,10.3997,10.3997,10.3997,10.3997,10.3997,10.3997,10.3997,10.3997,10.3997,10.3997,10.3997,10.3997,10.3997,10.3997,10.3997,10.3997,10.3997,10.3997,10.3997,10.3997,10.4063,10.5312,10.5772,10.62,10.7317,10.8237,10.7745,10.7186,10.6463,10.5839,10.4753,10.4095,10.4062,10.4258,10.4322,10.4386,10.4514,10.4675,10.4834,10.4993,10.5088,10.5182,10.5308,10.5339,10.5464,10.5558,10.5684,10.5715,10.5777,10.587,10.59,10.5931,10.5962,10.5931,10.5962,10.5962,10.2583,10.3997,10.3997,10.3997,10.3997,10.3997,10.3997,10.3997,10.3997,10.3997,10.3997,10.3997,10.3997,10.3997,10.3997,10.3997,10.3997,10.3997,10.3997,10.3997,10.3997,10.3997,10.3997,10.3997,10.3997,10.3997,10.3997,10.3997,10.3997,10.3997,10.3997,10.3997,10.3997,10.3997,10.3997,10.3997,10.3997,10.3997,10.3997,10.3997,10.3997,10.3997,10.3997,10.3997,10.3997,10.3997,10.3997,10.3997,10.3997,10.3997,10.3997,10.3997,10.3997,10.3997,10.3997,10.3997,10.3997,10.3997,10.3997,10.3997,10.3997,10.3997,10.3997,10.3997,10.3997,10.3997,10.3997,10.3997,10.3997,10.3997,10.3997,10.3997,10.3997,10.3997,10.3997,10.403,10.4096,10.4227,10.4326,10.5246,10.6528,10.7251,10.7645,10.8599,10.8763,10.837,10.7186,10.6562,10.597,10.4852,10.3997,10.3997,10.3997,10.4029,10.4127,10.4289,10.4419,10.4547,10.4644,10.4708,10.4835,10.4961,10.5119,10.5243,10.5339,10.5308,10.5433,10.5495,10.5591,10.5715,10.587,10.5931,10.5839,10.5839,10.587,10.3274,10.3964,10.3997,10.3997,10.3997,10.3997,10.3997,10.3997,10.3997,10.3997,10.3997,10.3997,10.3997,10.3997,10.3997,10.3997,10.3997,10.3997,10.3997,10.3997,10.3997,10.3997,10.3997,10.3997,10.3997,10.3997,10.3997,10.3997,10.3997,10.3997,10.3997,10.3997,10.3997,10.3997,10.3997,10.3997,10.3997,10.3997,10.3997,10.3997,10.3997,10.3997,10.3997,10.3997,10.3997,10.3997,10.3997,10.3997,10.3997,10.3997,10.3997,10.3997,10.3997,10.3997,10.3997,10.3997,10.3997,10.3997,10.3997,10.3997,10.3997,10.3997,10.3997,10.3997,10.3997,10.3997,10.3997,10.3997,10.3997,10.3997,10.3997,10.3997,10.3997,10.3997,10.3997,10.4359,10.4852,10.5016,10.5641,10.6462,10.7777,10.8697,10.9125,10.896,10.9225,10.8468,10.7252,10.6661,10.6167,10.5082,10.3997,10.3997,10.403,10.403,10.4062,10.4127,10.4225,10.4225,10.4257,10.4355,10.4419,10.4612,10.477,10.5029,10.4929,10.4898,10.5059,10.5417,10.5376,10.5435,10.5598,10.5693,10.5689,10.5746,10.5777,10.3403,10.3602,10.3602,10.3734,10.3964,10.3997,10.3997,10.3997,10.3997,10.3997,10.3997,10.3997,10.3997,10.3997,10.3997,10.3997,10.3997,10.3997,10.3997,10.3997,10.3997,10.3997,10.3997,10.3997,10.3997,10.3997,10.3997,10.3997,10.3997,10.3997,10.3997,10.3997,10.3997,10.3997,10.3997,10.3997,10.3997,10.3997,10.3997,10.3997,10.3997,10.3997,10.3997,10.3997,10.3997,10.3997,10.3997,10.3997,10.3997,10.3997,10.3997,10.3997,10.3997,10.3997,10.3997,10.3997,10.3997,10.3997,10.3997,10.3997,10.3997,10.3997,10.3997,10.3997,10.3997,10.3997,10.3997,10.3997,10.3997,10.3997,10.3997,10.3997,10.403,10.4359,10.4622,10.5049,10.6167,10.6825,10.7449,10.8205,10.9225,11.0178,10.9521,10.9092,10.8699,10.7679,10.6792,10.6331,10.5608,10.4654,10.3997,10.3997,10.3997,10.3997,10.3997,10.3997,10.403,10.4062,10.4095,10.4127,10.4192,10.4257,10.4553,10.4947,10.498,10.4944,10.5106,10.5366,10.5426,10.5317,10.5385,10.5422,10.5445,10.5464,10.5558,10.0808,10.202,10.202,10.2802,10.3866,10.3997,10.3997,10.3997,10.3997,10.3997,10.3997,10.3997,10.3997,10.3997,10.3997,10.3997,10.3997,10.3997,10.3997,10.3997,10.3997,10.3997,10.3997,10.3997,10.3997,10.3997,10.3997,10.3997,10.3997,10.3997,10.3997,10.3997,10.3997,10.3997,10.3997,10.3997,10.3997,10.3997,10.3997,10.3997,10.3997,10.3997,10.3997,10.3997,10.3997,10.3997,10.3997,10.3997,10.3997,10.3997,10.3997,10.3997,10.3997,10.3997,10.3997,10.3997,10.3997,10.3997,10.3997,10.3997,10.3997,10.3997,10.3997,10.3997,10.3997,10.3997,10.3997,10.3997,10.3997,10.3997,10.3997,10.3997,10.4556,10.5378,10.5707,10.6496,10.7744,10.9093,10.9258,10.9849,10.9817,10.9618,10.919,10.8633,10.7778,10.6989,10.6463,10.5805,10.4819,10.3997,10.3997,10.3997,10.3997,10.3997,10.3997,10.403,10.403,10.403,10.3997,10.403,10.4062,10.4193,10.4391,10.4819,10.5115,10.5411,10.5509,10.5375,10.5272,10.5296,10.5328,10.5465,10.5426,10.528,10.5308,9.9776,10.0489,10.1332,10.2089,10.2868,10.3635,10.3997,10.3997,10.3997,10.3997,10.3997,10.3997,10.3997,10.3997,10.3997,10.3997,10.3997,10.3997,10.3997,10.3997,10.3997,10.3997,10.3997,10.3997,10.3997,10.3997,10.3997,10.3997,10.3997,10.3997,10.3997,10.3997,10.3997,10.3997,10.3997,10.3997,10.3997,10.3997,10.3997,10.3997,10.3997,10.3997,10.3997,10.3997,10.3997,10.3997,10.3997,10.3997,10.3997,10.3997,10.3997,10.3997,10.3997,10.3997,10.3997,10.3997,10.3997,10.3997,10.3997,10.3997,10.3997,10.3997,10.3997,10.3997,10.3997,10.3997,10.3997,10.3997,10.3997,10.3997,10.3997,10.3997,10.472,10.5739,10.6102,10.712,10.8797,10.929,10.929,10.929,10.9323,10.8796,10.8237,10.7548,10.6792,10.6266,10.5772,10.5016,10.3997,10.3997,10.3997,10.3997,10.3997,10.3997,10.3997,10.3997,10.3997,10.3997,10.3997,10.3997,10.3997,10.4128,10.4326,10.4359,10.449,10.4984,10.5972,10.5148,10.4949,10.5575,10.597,10.5705,10.5571,10.5333,10.5293,9.8498,9.8942,10.0136,10.0808,10.1332,10.2431,10.2936,10.2936,10.327,10.337,10.3536,10.3898,10.3997,10.3997,10.3997,10.3997,10.3997,10.3997,10.3997,10.3997,10.3997,10.3997,10.3997,10.3997,10.3997,10.3997,10.3997,10.3997,10.3997,10.3997,10.3997,10.3997,10.3997,10.3997,10.3997,10.3997,10.3997,10.3997,10.3997,10.3997,10.3997,10.3997,10.3997,10.3997,10.3997,10.3997,10.3997,10.3997,10.3997,10.3997,10.3997,10.3997,10.3997,10.3997,10.3997,10.3997,10.3997,10.3997,10.3997,10.3997,10.3997,10.3997,10.3997,10.3997,10.3997,10.3997,10.3997,10.3997,10.3997,10.3997,10.3997,10.3997,10.472,10.5707,10.62,10.7088,10.9026,10.8927,10.827,10.7941,10.7844,10.7678,10.7251,10.6101,10.5805,10.5542,10.4918,10.4161,10.3997,10.3997,10.3997,10.3997,10.3997,10.3997,10.3997,10.3997,10.3997,10.3997,10.3997,10.3997,10.3997,10.4128,10.4556,10.4523,10.426,10.5411,10.6859,10.63,10.63,10.6628,10.7023,10.696,10.6665,10.5607,10.5307,9.5849,9.7212,9.7271,9.8207,9.9491,9.978,10.014,10.014,10.1367,10.1919,10.2157,10.3337,10.347,10.3997,10.3602,10.3899,10.3899,10.3931,10.3964,10.3997,10.3997,10.3997,10.3997,10.3997,10.3997,10.3997,10.3997,10.3997,10.3997,10.3997,10.3997,10.3997,10.3997,10.3997,10.3997,10.3997,10.3997,10.3997,10.3997,10.3997,10.3997,10.3997,10.3997,10.3997,10.3997,10.3997,10.3997,10.3997,10.3997,10.3997,10.3997,10.3997,10.3997,10.3997,10.3997,10.3997,10.3997,10.3997,10.3997,10.3997,10.3997,10.3997,10.3997,10.3997,10.3997,10.3997,10.3997,10.3997,10.3997,10.3997,10.3997,10.3997,10.4687,10.5739,10.6069,10.6792,10.8007,10.8369,10.7744,10.6627,10.6364,10.5674,10.4918,10.4326,10.4293,10.4687,10.4457,10.3997,10.3997,10.3997,10.3997,10.3997,10.3997,10.3997,10.3997,10.3997,10.3997,10.3997,10.3997,10.3997,10.3997,10.4161,10.4687,10.4918,10.4622,10.5411,10.6956,10.8041,10.8468,10.8467,10.7548,10.7845,10.7912,10.6071,10.4982,9.488,9.5604,9.652,9.7364,9.8044,9.8942,9.9313,9.9454,10.0064,10.0315,10.0453,10.1055,10.13,10.1437,10.226,10.26,10.2768,10.3602,10.3931,10.3964,10.3931,10.3997,10.3997,10.3997,10.3997,10.3997,10.3997,10.3997,10.3931,10.3997,10.3997,10.3866,10.3997,10.3997,10.3899,10.3997,10.3997,10.3997,10.3997,10.3997,10.3997,10.3997,10.3997,10.3997,10.3997,10.3997,10.3997,10.3997,10.3997,10.3997,10.3997,10.3997,10.3997,10.3997,10.3997,10.3997,10.3997,10.3997,10.3997,10.3997,10.3997,10.3997,10.3997,10.3997,10.3997,10.3997,10.3997,10.3997,10.3997,10.3997,10.3997,10.3997,10.4687,10.5674,10.5345,10.5148,10.5674,10.5936,10.5509,10.5148,10.4885,10.4589,10.4194,10.403,10.3997,10.3997,10.3997,10.3997,10.3997,10.3997,10.3997,10.3997,10.3997,10.3997,10.3997,10.3997,10.3997,10.3997,10.3997,10.3997,10.3997,10.403,10.4326,10.4457,10.4687,10.5246,10.6496,10.7646,10.873,10.9192,10.8107,10.7549,10.6726,10.5379,10.4819,9.4439,9.4559,9.584,9.6348,9.6512,9.7485,9.7982,9.8057,9.8461,9.8752,9.8868,9.9126,9.9527,9.9423,10.0596,10.1052,10.1402,10.2633,10.337,10.3403,10.3403,10.3536,10.3931,10.3997,10.3997,10.3997,10.3997,10.38,10.3436,10.327,10.307,10.2769,10.2532,10.2836,10.3337,10.3303,10.3569,10.3931,10.3997,10.3997,10.3997,10.3997,10.3997,10.3997,10.3997,10.3997,10.3997,10.3997,10.3997,10.3997,10.3997,10.3997,10.3997,10.3997,10.3997,10.3997,10.3997,10.3997,10.3997,10.3997,10.3997,10.3997,10.3997,10.3997,10.3997,10.3997,10.3997,10.3997,10.3997,10.3997,10.3997,10.3997,10.4424,10.5246,10.4687,10.4128,10.4161,10.3997,10.3997,10.3997,10.4063,10.4096,10.3997,10.3997,10.3997,10.3997,10.3997,10.3997,10.3997,10.3997,10.3997,10.3997,10.3997,10.3997,10.3997,10.3997,10.3997,10.3997,10.3997,10.3997,10.3997,10.3997,10.3997,10.4096,10.4622,10.5805,10.6825,10.7646,10.883,11.0145,10.9192,10.8304,10.7055,10.5575,10.5049,9.4439,9.4509,9.46,9.472,9.476,9.489,9.5129,9.5169,9.6434,9.7128,9.7402,9.8312,9.8984,9.9199,9.9235,9.9486,9.9776,10.1087,10.1746,10.1608,10.1815,10.2362,10.3304,10.3404,10.3403,10.3569,10.3602,10.3036,10.185,10.1781,10.1087,10.0068,10.0104,10.035,10.1541,10.1781,10.2465,10.3569,10.3833,10.3899,10.3997,10.3997,10.3997,10.3997,10.3997,10.3997,10.3931,10.3668,10.3668,10.3899,10.3602,10.3569,10.3899,10.3997,10.3899,10.3997,10.3997,10.3997,10.3997,10.3997,10.3997,10.3997,10.3997,10.3997,10.3997,10.3997,10.3997,10.3997,10.3997,10.3997,10.3997,10.3997,10.403,10.4161,10.4128,10.3997,10.3997,10.3997,10.3997,10.3997,10.3997,10.3997,10.3997,10.3997,10.3997,10.3997,10.3997,10.3997,10.3997,10.3997,10.3997,10.3997,10.3997,10.3997,10.3997,10.3997,10.3997,10.3997,10.3997,10.3997,10.3997,10.3997,10.3997,10.4326,10.4885,10.6364,10.7515,10.8205,10.9192,10.9356,10.9258,10.9455,10.8337,10.666,10.5937,9.4105,9.4145,9.4388,9.4439,9.4439,9.4439,9.4439,9.4589,9.5129,9.5407,9.5525,9.6054,9.6287,9.6481,9.7402,9.7819,9.8013,9.9454,9.9667,9.8937,9.9631,10.0457,10.0949,10.109,10.1055,10.109,10.109,10.0741,10.0207,10.0172,9.992,9.9418,9.9313,9.9636,10.01,10.0243,10.0949,10.2294,10.2532,10.3003,10.38,10.3997,10.3997,10.3964,10.3997,10.3997,10.3866,10.2056,10.1055,10.109,10.109,10.1576,10.2431,10.2565,10.3003,10.3734,10.3997,10.3931,10.3997,10.3833,10.3997,10.3997,10.3997,10.3931,10.3964,10.3997,10.3997,10.3997,10.3997,10.3997,10.3997,10.3997,10.3997,10.3997,10.3997,10.3997,10.3997,10.3997,10.3997,10.3997,10.3997,10.3997,10.3997,10.3997,10.3997,10.3997,10.3997,10.3997,10.3997,10.3997,10.3997,10.3997,10.3997,10.3997,10.3997,10.3997,10.3997,10.3997,10.3997,10.3997,10.3997,10.3997,10.3997,10.4293,10.4391,10.5706,10.6857,10.7844,10.8304,10.7778,10.7383,10.7482,10.7351,10.6233,10.6332,9.2843,9.2943,9.3581,9.3881,9.391,9.4319,9.4439,9.4439,9.4439,9.4439,9.4439,9.4439,9.4439,9.48,9.5644,9.6231,9.6279,9.725,9.7554,9.7319,9.8119,9.8868,9.9308,9.935,9.9313,9.9313,9.9313,9.9126,9.8721,9.861,9.8275,9.7901,9.775,9.8088,9.8536,9.8647,9.9376,10.0738,10.0914,10.1402,10.2398,10.2532,10.2532,10.25,10.2534,10.2566,10.2432,10.0493,9.9381,9.9386,9.9345,9.9812,10.0702,10.0949,10.1404,10.2364,10.2532,10.2532,10.2532,10.2466,10.2398,10.2499,10.2499,10.2566,10.2534,10.2903,10.3204,10.3236,10.3701,10.3997,10.3997,10.3997,10.3997,10.3997,10.3997,10.3833,10.3304,10.3635,10.3931,10.3997,10.3997,10.3997,10.3997,10.3997,10.3997,10.3997,10.3997,10.3997,10.3997,10.3997,10.3997,10.3997,10.3997,10.3997,10.3997,10.3997,10.3997,10.3997,10.3997,10.3997,10.3997,10.3997,10.3997,10.4063,10.4063,10.472,10.5772,10.6496,10.6727,10.6463,10.6264,10.5968,10.5608,10.5641,10.5937,9.0611,9.0901,9.1996,9.2495,9.2605,9.3551,9.4279,9.4089,9.4179,9.4109,9.4109,9.4398,9.4398,9.4439,9.464,9.458,9.454,9.4719,9.5492,9.6666,9.6936,9.7705,9.8868,9.8763,9.88,9.8837,9.9126,9.835,9.7051,9.6974,9.6279,9.493,9.493,9.5731,9.6944,9.7051,9.7781,9.9016,9.9345,9.9423,9.935,9.974,9.9749,9.9672,9.9418,9.9345,9.9345,9.9162,9.8905,9.8984,9.8984,9.9272,9.9089,9.9308,9.9418,9.9672,9.9563,9.9459,9.9563,9.9676,9.9852,9.9852,9.9568,9.9852,10.014,10.0984,10.1677,10.185,10.2768,10.38,10.3734,10.3635,10.3503,10.3931,10.3469,10.297,10.2429,10.307,10.3997,10.3997,10.3997,10.3997,10.3997,10.3997,10.3997,10.3997,10.3997,10.3997,10.3997,10.3997,10.3997,10.3997,10.3997,10.3997,10.3997,10.3997,10.3997,10.3997,10.3964,10.3997,10.3997,10.3997,10.3997,10.3997,10.3997,10.4194,10.5279,10.4909,10.5141,10.504,10.5439,10.5241,10.4877,10.4677,10.5173,8.8826,9.0163,9.0649,9.0798,9.0809,9.0959,9.1048,9.1167,9.1967,9.2352,9.2641,9.3596,9.4105,9.4105,9.4347,9.402,9.3183,9.3163,9.392,9.5218,9.5318,9.5565,9.6006,9.6014,9.6045,9.6054,9.6014,9.581,9.5318,9.5288,9.5,9.4479,9.4439,9.479,9.5169,9.5288,9.6114,9.744,9.7743,9.8275,9.9204,9.9313,9.9313,9.9021,9.715,9.6045,9.6045,9.6014,9.6014,9.6014,9.6054,9.6014,9.6201,9.7097,9.8163,9.9199,9.9245,9.9313,9.9313,9.9313,9.9277,9.9308,9.9277,9.9313,9.9381,9.978,10.0064,10.0136,10.0635,10.1335,10.1884,10.1439,10.0847,10.0812,10.0812,10.102,10.1608,10.2089,10.2802,10.3503,10.3767,10.3931,10.3997,10.3997,10.3997,10.3997,10.3997,10.3997,10.3997,10.3997,10.3997,10.3997,10.3997,10.3964,10.3767,10.3866,10.3997,10.3866,10.38,10.3931,10.3997,10.3997,10.3997,10.3997,10.4063,10.4293,10.4094,10.3589,10.3282,10.3045,10.3649,10.4547,10.424,10.3838,10.4627,8.7503,8.8832,8.9279,8.9487,8.9508,8.9751,8.9851,8.9931,9.0702,9.1098,9.1315,9.2198,9.2705,9.2705,9.2954,9.2594,9.1876,9.1846,9.2265,9.2943,9.3103,9.3342,9.3731,9.3751,9.4,9.4379,9.4439,9.4439,9.4439,9.4439,9.4439,9.4439,9.4439,9.4439,9.4439,9.4439,9.496,9.5997,9.6114,9.652,9.7409,9.7561,9.711,9.6163,9.4151,9.3033,9.3073,9.3103,9.3073,9.3103,9.3073,9.3033,9.3152,9.4103,9.5158,9.6032,9.6182,9.6182,9.6182,9.6219,9.6151,9.6182,9.6182,9.6163,9.6845,9.7416,9.7931,9.8485,9.8905,9.8679,9.8768,9.812,9.7938,9.8475,9.8998,9.9599,9.9956,10.0489,10.0946,10.1506,10.2633,10.337,10.3734,10.3997,10.3997,10.3997,10.3997,10.3997,10.3997,10.3997,10.3997,10.3997,10.3964,10.38,10.3403,10.3536,10.3767,10.3635,10.3701,10.3833,10.3997,10.3997,10.3866,10.3866,10.3997,10.4128,10.4161,10.3664,10.3498,10.3198,10.3165,10.3824,10.3667,10.3856,10.4373,8.6767,8.7007,8.8047,8.8525,8.8577,8.9637,9.0243,8.9948,9.0324,9.0423,9.0345,9.0563,9.0551,9.0372,9.041,9.044,9.047,9.047,9.062,9.0829,9.0739,9.1308,9.2375,9.2435,9.3033,9.387,9.39,9.399,9.408,9.4199,9.4289,9.4169,9.405,9.4169,9.405,9.399,9.424,9.419,9.419,9.43,9.43,9.43,9.322,9.1348,9.0649,9.0799,9.0739,9.0649,9.0679,9.0649,9.0769,9.0709,9.0679,9.0787,9.0855,9.0902,9.0834,9.0834,9.0971,9.1108,9.1039,9.0902,9.1313,9.1313,9.2882,9.3991,9.514,9.646,9.7485,9.6842,9.4056,9.4246,9.5216,9.6452,9.7912,9.7919,9.698,9.7911,9.8206,9.7932,9.9489,10.1207,10.3011,10.3669,10.3307,10.3602,10.38,10.3866,10.3866,10.3997,10.3997,10.3997,10.3899,10.3469,10.2226,10.3003,10.3204,10.2969,10.3304,10.3668,10.3866,10.3899,10.3833,10.3767,10.3866,10.3997,10.3997,10.3899,10.3701,10.3304,10.317,10.2869,10.2578,10.3401,10.3496,8.7813,8.7987,8.7426,8.7097,8.6828,8.6884,8.6919,8.7008,8.7956,8.8341,8.8469,8.966,8.9275,8.7897,8.7755,8.8324,8.9064,8.9192,8.9662,9.053,9.059,9.0739,9.1068,9.1098,9.1278,9.1577,9.1697,9.1667,9.1637,9.1667,9.1667,9.1637,9.1637,9.1667,9.1637,9.1637,9.1637,9.1667,9.1637,9.1637,9.1667,9.1637,9.1308,9.0679,9.059,9.059,9.059,9.059,9.059,9.059,9.059,9.059,9.059,9.059,9.059,9.059,9.059,9.059,9.059,9.059,9.059,9.059,9.059,9.0739,9.1116,9.1494,9.1943,9.2421,9.2697,9.2789,9.1258,9.1559,9.1923,9.2311,9.2668,9.3327,9.3981,9.4334,9.4983,9.5644,9.6569,9.7228,9.7666,9.8671,10.0048,10.1703,10.2199,10.2599,10.3701,10.3833,10.3833,10.3997,10.3898,10.3172,10.2123,10.2604,10.3767,10.337,10.2465,10.2431,10.2294,10.2328,10.2328,10.2465,10.3503,10.38,10.3403,10.3569,10.3602,10.2734,10.2157,10.1815,10.1265,10.1781,10.168,8.9262,8.9333,8.8585,8.8143,8.7827,8.7124,8.6833,8.6803,8.707,8.7159,8.7405,8.9166,8.9407,8.8354,8.8294,8.8683,8.9393,8.9423,8.9611,8.9752,8.982,8.9782,8.982,8.9782,9.0081,9.053,9.059,9.059,9.059,9.059,9.059,9.059,9.059,9.059,9.059,9.059,9.059,9.059,9.059,9.0051,8.9124,8.8974,8.9012,8.9012,8.8974,8.8974,8.9012,8.8974,8.9012,8.9004,8.9012,8.8974,8.9012,8.8974,8.9012,8.9012,8.9012,8.8982,8.8982,8.9012,8.8974,8.8974,8.9012,8.9213,8.9692,8.9782,8.9513,8.9094,8.8974,8.9012,8.905,8.9483,8.9782,8.9812,9.029,9.0944,9.1847,9.199,9.2289,9.3187,9.3911,9.4341,9.447,9.5527,9.7088,9.8451,9.9017,9.9451,10.0852,10.1221,10.1414,10.1802,10.1059,10.0057,9.9191,10.0161,10.093,10.1142,10.1297,10.1227,10.1122,10.1122,10.1367,10.0773,10.1335,10.1818,10.2195,10.199,10.1919,10.1265,10.0599,10.0457,9.9558,10.0064,9.9884,9.035,9.038,9.0081,9.0201,8.9902,8.9004,8.8607,8.8569,8.7531,8.694,8.6903,8.8772,8.9803,9.0231,9.0239,9.0192,9.0213,9.0461,8.9885,8.886,8.8681,8.8681,8.8792,8.8741,8.9308,9.0286,9.0226,9.0098,9.0098,9.0055,9.0102,9.0162,9.0231,9.0141,9.0141,9.0141,9.0209,9.0201,9.0162,8.8958,8.6753,8.6641,8.667,8.6677,8.6707,8.6648,8.6588,8.6498,8.6468,8.6348,8.6348,8.6348,8.6348,8.6348,8.6348,8.6348,8.6348,8.6348,8.6348,8.6348,8.6348,8.6348,8.6468,8.7037,8.8084,8.8114,8.7575,8.6648,8.6348,8.6468,8.6595,8.7516,8.8234,8.8443,8.9363,9.0231,9.0136,9.0201,9.0239,9.0201,9.1328,9.228,9.2212,9.3328,9.4437,9.462,9.5048,9.6041,9.7253,9.7545,9.7819,9.7774,9.6773,9.5296,9.5257,9.6047,9.7249,9.736,9.9121,9.9402,9.8854,9.9271,10.0492,9.8557,9.9076,9.9496,9.9514,9.9313,9.9527,9.9672,9.9345,9.9162,9.9345,9.9454,9.8527,8.9072,8.8944,8.7994,8.7575,8.7635,8.8324,8.9061,8.9657,8.9389,8.829,8.688,8.7232,8.7501,8.7695,8.8615,8.8904,8.8777,8.9678,8.9751,8.9124,8.9094,8.9094,8.9094,8.9124,8.9212,8.939,8.858,8.8175,8.8095,8.7443,8.7118,8.7156,8.7426,8.7575,8.7605,8.7575,8.7575,8.7538,8.6938,8.655,8.6255,8.6233,8.6381,8.6641,8.6648,8.6199,8.5277,8.5217,8.4732,8.3769,8.3709,8.3679,8.3679,8.3679,8.3679,8.3679,8.3679,8.3679,8.3679,8.3679,8.3679,8.3709,8.4612,8.5271,8.548,8.4696,8.3978,8.3739,8.3798,8.4157,8.5031,8.548,8.6056,8.7007,8.7456,8.7575,8.7575,8.7575,8.7575,8.7575,8.788,8.8205,8.8326,8.9279,9.0217,9.0658,9.2096,9.3947,9.5358,9.5698,9.4625,9.3483,9.3133,9.3243,9.3458,9.4567,9.5397,9.5656,9.5479,9.517,9.4884,9.4687,9.4972,9.5958,9.677,9.7629,9.8921,9.911,9.8937,9.8628,9.7852,9.7708,9.8544,9.8801,9.8044,8.9551,8.9423,8.8773,8.8473,8.8495,8.9251,8.9488,8.9356,8.856,8.7527,8.6464,8.6441,8.6552,8.6767,8.7426,8.7964,8.8364,8.9087,8.9202,8.8991,8.9359,8.9281,8.8798,8.9075,8.9222,8.9193,8.8593,8.8298,8.8249,8.7793,8.7228,8.677,8.693,8.6716,8.6181,8.6121,8.6151,8.6121,8.5512,8.5259,8.545,8.4317,8.3793,8.4008,8.335,8.2691,8.2003,8.1973,8.1674,8.0982,8.0922,8.1251,8.1854,8.1944,8.2183,8.2781,8.2811,8.2811,8.2811,8.2811,8.2811,8.2841,8.3469,8.3625,8.3026,8.2871,8.2811,8.2811,8.2811,8.311,8.3774,8.3864,8.4133,8.4875,8.4905,8.4905,8.4935,8.539,8.578,8.5839,8.6288,8.6677,8.6677,8.7336,8.7755,8.786,8.8906,9.0525,9.1916,9.1696,9.0646,8.9292,8.9493,9.0231,9.0882,9.1747,9.2425,9.3015,9.2967,9.2673,9.1923,9.263,9.2899,9.3054,9.3515,9.4457,9.5017,9.5332,9.5332,9.522,9.4563,9.441,9.4987,9.5295,9.4477,8.9423,8.9483,8.9483,8.9483,8.9483,8.9662,8.9094,8.7987,8.6359,8.5631,8.5638,8.5601,8.5756,8.6095,8.6245,8.6895,8.7934,8.8173,8.8233,8.8112,8.8899,8.8646,8.7574,8.8269,8.8584,8.8584,8.8456,8.8358,8.8319,8.8338,8.7867,8.6942,8.7069,8.6605,8.5631,8.5551,8.5248,8.4537,8.4108,8.4001,8.4187,8.2062,8.0933,8.1007,7.9777,7.8911,7.8705,7.8586,7.8466,7.8466,7.847,7.9008,8.0208,8.0059,8.0418,8.1311,8.1221,8.1255,8.1345,8.1435,8.146,8.1669,8.2033,8.14,7.976,8.0986,8.1968,8.1973,8.2033,8.2332,8.2542,8.2542,8.2632,8.2871,8.2871,8.2841,8.2991,8.3864,8.4463,8.4493,8.548,8.6019,8.5929,8.6019,8.6109,8.6348,8.6742,8.7058,8.8083,8.7126,8.6288,8.6378,8.6528,8.7156,8.8271,8.8421,8.9014,8.9872,9.1074,9.1152,9.0081,9.081,9.126,9.0537,9.0636,9.0748,9.0941,9.059,9.1108,9.1245,9.1275,9.1022,9.1236,9.0734,9.0221,8.4187,8.4187,8.4187,8.4151,8.4277,8.5331,8.563,8.5331,8.3966,0.0,0.0,8.3041,8.2969,8.31,8.4142,8.4554,8.4585,8.5883,8.6132,8.5467,8.5625,8.5396,8.4912,8.5289,8.5551,8.5463,8.4778,8.424,8.3939,8.4374,8.4285,8.3972,8.5215,8.5779,8.5572,8.5814,8.3949,7.9979,7.9643,8.0305,8.1658,8.1247,8.1299,8.1969,8.0684,7.9602,7.8735,7.7722,7.7091,7.7124,7.7091,7.7243,7.7453,7.6466,7.5509,7.4704,7.3656,7.3507,7.4554,7.4674,7.5122,7.6197,7.823,7.7509,7.2998,7.5838,7.7842,7.7842,7.8828,7.9935,8.1106,8.1196,8.1644,8.2721,8.2811,8.2781,8.2811,8.305,8.317,8.317,8.3439,8.3529,8.3619,8.3619,8.3858,8.4792,8.5091,8.5577,8.6408,8.5085,8.4038,8.4971,8.5809,8.6618,8.6947,8.6977,8.7096,8.7396,8.7723,8.7706,8.7477,8.7626,8.8083,8.8802,8.8944,8.9393,9.029,9.041,9.059,9.059,9.059,9.059,9.041,8.8884,8.7575,8.267,8.2811,8.2811,8.2811,0.0,8.3499,8.289,8.1465,8.0834,8.0426,8.0253,8.0049,7.9944,8.0038,8.063,8.1205,8.1676,8.247,8.2982,8.3195,8.3617,8.3788,8.359,8.4203,8.4456,8.4398,8.4014,8.3683,8.3523,8.375,8.3145,8.1768,8.2567,8.2298,8.1067,8.1219,8.025,7.8171,7.8775,7.9497,8.0299,7.9063,7.862,7.8907,7.7664,0.0,0.0,0.0,0.0,0.0,0.0,0.0,0.0,7.3956,0.0,7.1769,7.0484,6.9708,6.9588,7.0274,7.102,7.1676,7.2994,7.2038,6.8008,7.0843,7.3387,7.4642,7.5389,7.6586,7.8563,7.8802,7.9307,8.0563,8.0742,8.0742,8.0832,8.137,8.1824,8.1884,8.2357,8.2811,8.2811,8.2811,8.311,8.3649,8.3804,8.4014,8.4463,8.3589,8.2991,8.3649,8.4367,8.4696,8.4726,8.4762,8.4882,8.554,8.5726,8.5996,8.6558,8.6677,8.6857,8.7456,8.7665,8.7815,8.8503,8.8653,8.8623,8.8623,8.8623,8.8443,8.7695,8.7156,8.6677,8.1612,8.1988,8.1958,8.1958,8.1898,8.152,7.9883,7.7582,7.7683,7.7482,7.7241,7.711,7.7076,7.7076,7.7037,7.7775,7.8955,7.899,7.9628,8.0795,8.1558,8.1843,8.1857,8.2494,8.2809,8.2876,8.2914,8.2914,8.2876,8.3109,8.2177,8.0161,8.0365,7.9347,7.7036,0.0,0.0,0.0,7.8074,7.8863,7.904,7.7034,7.5979,7.6051,7.4688,0.0,7.4507,7.427,7.431,7.4599,7.3408,0.0,0.0,0.0,0.0,0.0,0.0,0.0,0.0,0.0,0.0,0.0,6.6484,6.5853,6.3728,6.5916,6.857,7.1083,7.1831,7.2997,7.5056,7.5268,7.5928,7.7423,7.7632,7.7752,7.8021,7.9217,8.0089,8.0119,8.1226,8.2033,8.1909,8.1998,8.2088,8.2362,8.2452,8.2332,8.2088,8.1973,8.2088,8.2422,8.2512,8.2537,8.2781,8.2931,8.3409,8.4044,8.4373,8.4762,8.56,8.5839,8.5929,8.5899,8.5959,8.5959,8.5959,8.5959,8.5959,8.5959,8.6169,8.5929,8.4702,8.5241,8.5959,7.8557,7.8899,7.8869,7.8933,7.8785,7.6726,7.5527,7.494,7.5198,7.5263,7.5201,7.4818,7.4688,7.4718,7.4483,7.509,7.6299,7.6333,7.6812,7.7737,7.7843,7.7721,7.7432,7.7861,7.806,7.8095,7.8405,7.8376,7.8119,7.9208,7.9438,7.8845,7.9929,7.9783,7.8205,7.489,7.3265,7.3366,7.4653,7.5877,7.6944,7.6682,7.6623,7.694,7.5708,7.5231,7.5532,7.4411,7.3854,7.3919,7.2742,7.1685,7.0925,6.7386,6.4941,0.0,6.1667,0.0,0.0,0.0,0.0,0.0,0.0,0.0,0.0,6.105,6.3045,6.5392,6.8005,6.9528,6.9677,6.9857,7.0994,7.3327,7.3627,7.4074,7.521,7.6496,7.7333,7.7303,7.8406,7.9277,7.9243,7.9243,7.9785,8.0867,8.1016,8.0443,7.9512,7.9273,7.9785,8.0986,8.1106,8.1465,8.2297,8.2691,8.2716,8.2961,8.308,8.311,8.3374,8.3409,8.338,8.3409,8.3499,8.3439,8.332,8.3409,8.338,8.3499,8.4283,8.4499,8.3439,8.335,8.332,7.5495,7.5865,7.606,7.5097,7.3446,7.255,7.1983,7.1697,7.1099,7.0846,7.0817,7.0427,7.0779,7.157,7.2046,7.2659,7.3347,7.4056,7.5017,7.6085,7.6314,7.6593,7.6891,7.7094,7.7059,7.685,7.7019,7.7019,7.688,7.7405,7.7247,7.6373,7.6955,7.582,7.3071,7.1473,7.1371,7.2708,7.3227,7.457,7.6512,7.66,7.667,7.6821,7.6261,7.5821,7.5462,7.5071,7.4296,7.3013,7.1961,7.0153,6.7442,6.4309,6.1382,0.0,0.0,0.0,0.0,0.0,0.0,0.0,0.0,0.0,0.0,0.0,5.8222,6.026,6.427,6.6632,6.6375,6.7946,6.9168,6.9617,7.0186,7.0514,7.0515,7.2218,7.3113,7.255,7.4881,7.6556,7.6586,7.7214,7.8137,7.9486,7.8473,7.7207,7.6568,7.7145,7.7871,7.8499,7.9217,7.9905,8.0413,8.0533,8.0802,8.1525,8.1734,8.2003,8.2691,8.2811,8.2811,8.2811,8.2811,8.2811,8.2811,8.2811,8.2811,8.2811,8.2721,8.2362,8.1884,8.2303,8.2811,7.2196,7.2724,7.1235,6.9217,6.7065,6.7614,6.7795,6.7551,6.6542,6.6144,6.6264,6.5921,6.6237,6.7153,6.7706,6.8582,6.9605,7.0501,7.1974,7.3791,7.4405,7.5051,7.5757,7.6011,7.5951,7.5669,7.5327,7.5212,7.5233,7.4575,7.3916,7.3223,7.2968,7.1137,6.7936,6.8607,6.9946,7.1836,7.2675,7.41,7.6082,7.6425,7.66,7.66,7.628,7.5779,7.5124,7.4837,7.3694,7.1713,6.9795,6.7088,6.3646,6.0599,0.0,0.0,0.0,0.0,0.0,0.0,0.0,0.0,0.0,4.6993,4.7116,0.0,5.3965,0.0,5.9484,6.2452,6.3079,6.4935,0.0,0.0,6.6342,6.6344,6.5618,6.7622,6.8635,6.7558,7.0812,7.3229,7.3322,7.4755,7.6281,7.7569,7.6077,7.4757,7.4622,7.5828,7.6705,7.6496,7.7154,7.7782,7.7778,7.8047,7.8769,8.0149,8.0354,8.0687,8.1674,8.1819,8.1819,8.1819,8.1854,8.1854,8.1759,8.1849,8.1699,8.1375,8.0563,7.9965,8.0298,8.1071,8.1789,6.8516,6.9371,6.2467,5.9626,5.9692,6.1118,6.186,6.2032,6.169,6.183,6.2283,6.2092,6.1447,6.0397,5.9633,0.0,6.4529,6.4277,6.6238,6.9863,7.0898,7.1511,7.1858,7.267,7.3028,7.2995,7.168,7.1177,7.1305,6.8767,6.8026,6.905,6.8163,6.6911,6.5621,6.7766,6.9103,6.9332,7.2708,7.4575,7.4802,7.596,7.66,7.657,7.5413,7.4778,7.4609,7.2546,7.0782,6.9547,6.4947,6.1384,5.9228,0.0,0.0,0.0,0.0,0.0,0.0,0.0,0.0,0.0,0.0,0.0,0.0,0.0,0.0,5.0019,5.2646,0.0,5.8868,5.8286,0.0,0.0,0.0,6.0941,6.0991,6.3158,6.4223,6.3065,0.0,0.0,6.9052,7.1314,7.3401,7.4939,7.4971,7.4821,7.4789,7.5808,7.6346,7.521,7.512,7.5212,7.5449,7.6257,7.7303,7.835,7.8918,7.8828,7.8944,7.9004,7.9068,7.9098,7.9068,7.9068,7.9034,7.8978,7.8675,7.7453,7.7154,7.7453,7.844,7.8858,7.8944,5.9829,5.6899,5.3943,5.2758,5.2892,5.3533,5.4647,5.5975,5.5091,5.5133,5.5976,5.587,5.4836,5.3121,5.373,0.0,0.0,0.0,6.1047,6.4066,6.6123,6.7795,6.9137,7.0211,7.0604,7.0408,6.911,6.8911,6.9742,6.784,6.4146,5.8775,0.0,5.7548,5.8471,6.1693,6.4153,6.5797,6.9367,7.1952,7.3435,7.3988,7.4245,7.4216,7.4482,7.3552,7.1312,7.0461,6.8047,6.3834,6.1582,5.7938,0.0,0.0,0.0,0.0,0.0,0.0,0.0,0.0,0.0,0.0,0.0,3.9932,3.7594,0.0,0.0,0.0,4.607,4.7258,4.9554,5.4145,0.0,0.0,0.0,0.0,0.0,0.0,0.0,5.6556,6.1971,6.5993,6.6224,6.5749,6.608,6.813,6.8634,6.9379,7.078,0.0,7.3625,7.4672,7.4853,7.4853,7.4883,7.527,7.521,7.4255,7.4674,7.518,7.521,7.5868,7.6346,7.6406,7.6376,7.6376,7.6376,7.506,7.3804,7.3357,7.3268,7.3686,7.4941,7.521,7.5449,5.0394,0.0,0.0,0.0,0.0,4.6936,4.8073,4.9756,4.8604,4.8667,4.9538,4.9445,0.0,0.0,0.0,0.0,0.0,0.0,5.601,5.7919,6.1117,6.3077,6.3979,6.5225,6.5679,6.528,6.3748,6.3492,6.4193,6.2297,5.789,5.1238,0.0,0.0,0.0,0.0,5.8815,6.1474,6.5716,6.9164,7.16,7.2326,7.2675,7.2675,7.2912,7.1607,6.8704,6.7225,6.445,6.0187,5.7708,0.0,0.0,0.0,0.0,0.0,0.0,0.0,0.0,0.0,0.0,0.0,0.0,0.0,0.0,0.0,0.0,0.0,0.0,0.0,4.2901,4.9205,5.1898,0.0,0.0,0.0,0.0,0.0,0.0,0.0,0.0,0.0,6.0329,5.9508,6.0216,0.0,0.0,6.6398,6.7684,6.9588,7.1201,7.2275,7.2362,0.0,7.2425,7.2753,7.2396,7.0695,7.1472,7.234,7.234,7.249,7.2729,7.3118,7.3178,7.2759,7.1651,6.9887,6.8779,6.869,6.8959,6.9528,7.0455,7.1293,7.1921,0.0,0.0,0.0,0.0,4.1351,0.0,0.0,0.0,4.2755,4.2855,0.0,4.324,0.0,0.0,0.0,0.0,4.5895,4.911,0.0,0.0,5.5864,5.6936,5.5396,5.6738,5.7097,5.6466,5.4561,5.3472,5.3037,4.9524,0.0,0.0,0.0,0.0,0.0,0.0,5.3738,5.6337,6.2327,6.6647,6.9129,7.1458,7.2679,7.2559,7.0408,6.8643,6.7375,6.2439,5.9832,6.0048,5.2767,0.0,0.0,0.0,0.0,0.0,0.0,0.0,0.0,0.0,0.0,0.0,0.0,0.0,0.0,0.0,0.0,0.0,0.0,0.0,0.0,4.2923,0.0,0.0,0.0,0.0,0.0,0.0,0.0,0.0,0.0,5.3159,5.0058,5.2938,5.7078,6.1636,0.0,0.0,0.0,0.0,6.9676,6.7298,6.6561,6.6561,6.6794,6.7892,6.8724,6.893,0.0,0.0,7.0964,6.8929,6.7731,6.8929,6.9168,6.7941,6.414,6.3275,6.3215,6.3245,6.4083,6.501,6.531,6.6895,6.842,0.0,0.0,0.0,0.0,0.0,0.0,0.0,0.0,0.0,3.8127,3.8942,3.8876,0.0,0.0,0.0,0.0,0.0,0.0,0.0,0.0,4.868,5.0026,4.8825,5.1594,5.2039,5.0465,4.9581,4.6773,0.0,0.0,0.0,0.0,0.0,0.0,0.0,0.0,5.088,5.2884,5.9335,6.4406,6.7617,6.939,7.0294,7.0265,6.8608,6.5992,6.2235,5.8744,5.5497,0.0,0.0,0.0,0.0,0.0,0.0,0.0,0.0,0.0,0.0,0.0,0.0,0.0,0.0,0.0,0.0,0.0,0.0,0.0,0.0,0.0,0.0,0.0,3.9659,0.0,0.0,0.0,0.0,0.0,0.0,0.0,0.0,0.0,4.3845,4.7452,5.2205,5.7014,5.9642,6.2486,6.6333,0.0,0.0,0.0,0.0,0.0,0.0,0.0,6.669,6.423,6.4888,6.5487,6.4649,6.3721,6.3272,6.3721,0.0,0.0,5.7681,5.7322,5.7945,5.789,5.7615,5.7536,5.8429,6.0018,6.139,0.0,0.0,0.0,0.0,0.0,0.0,0.0,0.0,0.0,3.3106,3.3399,0.0,0.0,0.0,0.0,0.0,0.0,0.0,0.0,0.0,0.0,0.0,4.3298,4.5739,0.0,0.0,0.0,0.0,0.0,0.0,0.0,0.0,0.0,0.0,0.0,0.0,4.7899,4.9816,5.5746,6.1156,6.5642,6.6595,6.7446,6.8286,6.6282,6.3256,5.9388,0.0,0.0,0.0,0.0,0.0,0.0,0.0,0.0,0.0,0.0,0.0,0.0,0.0,0.0,0.0,0.0,0.0,0.0,0.0,0.0,0.0,0.0,0.0,0.0,0.0,3.5817,0.0,0.0,0.0,0.0,0.0,0.0,0.0,0.0,0.0,0.0,4.2756,4.7138,5.1839,5.5118,5.877,6.3588,6.4935,6.6368,0.0,0.0,0.0,0.0,0.0,0.0,0.0,0.0,0.0,0.0,0.0,0.0,0.0,5.8034,5.6334,5.2026,5.1936,5.2512,5.2512,0.0,0.0,0.0,0.0,0.0,0.0,0.0,0.0,0.0,0.0,0.0,0.0,0.0,0.0,0.0,2.6783,0.0,0.0,2.6834,0.0,0.0,0.0,0.0,0.0,0.0,0.0,0.0,0.0,0.0,0.0,0.0,0.0,0.0,0.0,0.0,0.0,0.0,0.0,0.0,0.0,0.0,4.4714,4.697,5.1804,5.7045,6.2838,6.3156,6.4426,6.6685,6.3198,6.0525,5.9072,0.0,0.0,0.0,0.0,0.0,0.0,0.0,0.0,0.0,0.0,0.0,0.0,0.0,0.0,0.0,0.0,0.0,0.0,0.0,0.0,0.0,0.0,0.0,0.0,0.0,0.0,3.1047,3.3325,3.6487,0.0,0.0,0.0,0.0,0.0,0.0,0.0,0.0,0.0,4.6405,5.253,5.7102,5.8566,6.0704,6.2367,6.2814,6.15,6.0917,6.2339,6.1501,6.0685,0.0,0.0,0.0,0.0,0.0,0.0,0.0,0.0,0.0,0.0,0.0,0.0,0.0,0.0,0.0,0.0,0.0,0.0,0.0,0.0,0.0,0.0,0.0,0.0,0.0,0.0,0.0,0.0,0.0,0.0,0.0,0.0,0.0,0.0,0.0,0.0,0.0,0.0,0.0,0.0,0.0,0.0,0.0,0.0,0.0,0.0,0.0,0.0,0.0,0.0,0.0,0.0,0.0,0.0,4.3115,4.4737,5.0897,5.5749,5.9324,6.1852,6.3114,6.2908,6.0163,5.7239,0.0,0.0,0.0,0.0,0.0,0.0,0.0,0.0,0.0,0.0,0.0,0.0,0.0,0.0,0.0,0.0,0.0,0.0,0.0,0.0,0.0,0.0,0.0,0.0,0.0,0.0,0.0,0.0,3.5689,3.6361,3.6538,0.0,0.0,0.0,0.0,0.0,0.0,0.0,0.0,0.0,0.0,5.3016,5.7069,5.8748,6.0628,6.3563,6.218,6.0585,5.9944,5.9698,5.8582,5.576,0.0,0.0,0.0,0.0,0.0,0.0,0.0,0.0,0.0,0.0,0.0,0.0,0.0,0.0,0.0,0.0,0.0,0.0,0.0,0.0,0.0,0.0,0.0,0.0,0.0,0.0,0.0,0.0,0.0,0.0,0.0,0.0,0.0,0.0,0.0,0.0,0.0,0.0,0.0,0.0,0.0,0.0,0.0,0.0,0.0,0.0,0.0,0.0,0.0,0.0,0.0,0.0,0.0,4.2193,4.3042,4.9284,5.3972,5.692,5.907,6.0256,6.0463,5.7117,5.3874,0.0,0.0,0.0,0.0,0.0,0.0,0.0,0.0,0.0,0.0,0.0,0.0,0.0,0.0,0.0,0.0,0.0,0.0,0.0,0.0,0.0,0.0,0.0,0.0,0.0,0.0,0.0,0.0,3.3792,3.4647,3.3991,0.0,0.0,0.0,0.0,0.0,0.0,0.0,0.0,0.0,0.0,4.8979,5.3516,5.5002,0.0,0.0,5.9474,5.7783,5.7154,5.7241,5.6231,5.2718,5.2527,0.0,0.0,0.0,0.0,0.0,0.0,0.0,0.0,0.0,0.0,0.0,0.0,0.0,0.0,0.0,0.0,0.0,0.0,0.0,0.0,0.0,0.0,0.0,0.0,0.0,0.0,0.0,0.0,0.0,0.0,0.0,0.0,0.0,0.0,0.0,0.0,0.0,0.0,0.0,0.0,0.0,0.0,0.0,0.0,0.0,0.0,0.0,0.0,0.0,0.0,0.0,0.0,4.1713,4.1866,4.7274,5.1898,5.524,5.5384,5.6526,5.8729,5.4071,5.0491,0.0,0.0,0.0,0.0,0.0,0.0,0.0,0.0,0.0,0.0,0.0,0.0,0.0,0.0,0.0,0.0,0.0,0.0,0.0,0.0,0.0,0.0,0.0,0.0,0.0,0.0,0.0,0.0,0.0,0.0,0.0,0.0,0.0,0.0,0.0,0.0,0.0,0.0,0.0,0.0,0.0,4.5099,4.8578,4.9969,5.1907,0.0,5.4091,5.2929,5.3608,5.4072,5.3459,5.0668,0.0,0.0,0.0,0.0,0.0,0.0,0.0,0.0,0.0,0.0,0.0,0.0,0.0,0.0,0.0,0.0,0.0,0.0,0.0,0.0,0.0,0.0,0.0,0.0,0.0,0.0,0.0,0.0,0.0,0.0,0.0,0.0,0.0,0.0,0.0,0.0,0.0,0.0,0.0,0.0,0.0,0.0,0.0,0.0,0.0,0.0,0.0,0.0,0.0,0.0,0.0,0.0,0.0,0.0,4.0746,4.6921,5.0605,5.1596,5.4066,5.5377,5.5121,5.1053,0.0,0.0,0.0,0.0,0.0,0.0,0.0,0.0,0.0,0.0,0.0,0.0,0.0,0.0,0.0,0.0,0.0,0.0,0.0,0.0,0.0,0.0,0.0,0.0,0.0,0.0,0.0,2.3603,0.0,0.0,0.0,0.0,0.0,0.0,0.0,0.0,0.0,0.0,0.0,0.0,0.0,0.0,4.3151,4.58,4.7049,4.8529,0.0,0.0,4.8324,4.682,4.8487,4.8468,0.0,0.0,0.0,0.0,0.0,0.0,0.0,0.0,0.0,0.0,0.0,0.0,0.0,0.0,0.0,0.0,0.0,0.0,0.0,0.0,0.0,0.0,0.0,0.0,0.0,0.0,0.0,0.0,0.0,0.0,0.0,0.0,0.0,0.0,0.0,0.0,0.0,0.0,0.0,0.0,0.0,0.0,0.0,0.0,0.0,0.0,0.0,0.0,0.0,0.0,0.0,0.0,0.0,0.0,3.8684,3.9654,4.5065,4.8467,4.9517,5.2367,5.3612,5.298,4.8751,4.5638,0.0,0.0,0.0,0.0,0.0,0.0,0.0,0.0,0.0,0.0,0.0,0.0,0.0,0.0,0.0,0.0,0.0,0.0,0.0,0.0,0.0,0.0,0.0,0.0,0.0,0.0,0.0,0.0,0.0,0.0,0.0,0.0,0.0,0.0,0.0,0.0,0.0,0.0,0.0,0.0,0.0,0.0,4.28,4.3911,0.0,0.0,0.0,4.6042,4.4659,0.0,0.0,0.0,0.0,0.0,0.0,0.0,0.0,0.0,0.0,0.0,0.0,0.0,0.0,0.0,0.0,0.0,0.0,0.0,0.0,0.0,0.0,0.0,0.0,0.0,0.0,0.0,0.0,0.0,0.0,0.0,0.0,0.0,0.0,0.0,0.0,0.0,0.0,0.0,0.0,0.0,0.0,0.0,0.0,0.0,0.0,0.0,0.0,0.0,0.0,0.0,0.0,0.0,0.0,0.0,0.0,0.0,3.8567,4.2983,4.6334,4.8555,5.0635,5.1688,5.1621,4.7174,4.3766,0.0,0.0,0.0,0.0,0.0,0.0,0.0,0.0,0.0,0.0,0.0,0.0,0.0,0.0,0.0,0.0,0.0,0.0,0.0,0.0,0.0,0.0,0.0,0.0,0.0,0.0,0.0,0.0,0.0,0.0,0.0,0.0,0.0,0.0,0.0,0.0,0.0,0.0,0.0,0.0,0.0,4.0083,4.0329,4.114,4.1588,0.0,0.0,4.4414,4.413,4.4661,0.0,0.0,0.0,0.0,0.0,0.0,0.0,0.0,0.0,0.0,0.0,0.0,0.0,0.0,0.0,0.0,0.0,0.0,0.0,0.0,0.0,0.0,0.0,0.0,0.0,0.0,0.0,0.0,0.0,0.0,0.0,0.0,0.0,0.0,0.0,0.0,0.0,0.0,0.0,0.0,0.0,0.0,0.0,0.0,0.0,0.0,0.0,0.0,0.0,0.0,0.0,0.0,0.0,0.0,0.0,0.0,3.8618,4.3796,4.7175,4.8584,4.9843,5.0518,5.0455,4.674,4.3365,0.0,0.0,0.0,0.0,0.0,0.0,0.0,0.0,0.0,0.0,0.0,0.0,0.0,0.0,0.0,0.0,0.0,0.0,0.0,0.0,0.0,0.0,0.0,0.0,0.0,0.0,0.0,0.0,0.0,0.0,0.0,0.0,0.0,0.0,0.0,0.0,0.0,0.0,0.0,0.0,0.0,4.0062,4.0897,4.1267,0.0,0.0,0.0,0.0,3.8436,3.8814,0.0,0.0,0.0,0.0,0.0,0.0,0.0,0.0,0.0,0.0,0.0,0.0,0.0,0.0,0.0,0.0,0.0,0.0,0.0,0.0,0.0,0.0,0.0,0.0,0.0,0.0,0.0,0.0,0.0,0.0,0.0,0.0,0.0,0.0,0.0,0.0,0.0,0.0,0.0,0.0,0.0,0.0,0.0,0.0,0.0,0.0,0.0,0.0,0.0,0.0,0.0,0.0,0.0,0.0,0.0,0.0,3.7783,4.2094,4.5244,4.687,4.8547,4.9131,4.8518,4.568,4.2654,0.0,0.0,0.0,0.0,0.0,0.0,0.0,0.0,0.0,0.0,0.0,0.0,0.0,0.0,0.0,0.0,0.0,0.0,0.0,0.0,0.0,0.0,0.0,0.0,0.0,0.0,0.0,0.0,0.0,0.0,0.0,0.0,0.0,0.0,0.0,0.0,0.0,0.0,0.0,0.0,3.6678,3.766,3.8222,0.0,0.0,0.0,0.0,0.0,0.0,3.7841,3.7283,0.0,0.0,0.0,0.0,0.0,0.0,0.0,0.0,0.0,0.0,0.0,0.0,0.0,0.0,0.0,0.0,0.0,0.0,0.0,0.0,0.0,0.0,0.0,0.0,0.0,0.0,0.0,0.0,0.0,0.0,0.0,0.0,0.0,0.0,0.0,0.0,0.0,0.0,0.0,0.0,0.0,0.0,0.0,0.0,0.0,0.0,0.0,0.0,0.0,0.0,0.0,0.0,0.0,0.0,0.0,3.6256,3.9615,4.2499,4.4813,4.695,4.7661,4.6817,4.4506,4.1663,3.8335,0.0,0.0,0.0,0.0,0.0,0.0,0.0,0.0,0.0,0.0,0.0,0.0,0.0,0.0,0.0,0.0,0.0,0.0,0.0,0.0,0.0,0.0,0.0,0.0,0.0,0.0,0.0,0.0,0.0,0.0,0.0,0.0,0.0,0.0,0.0,0.0,0.0,0.0,0.0,3.3843,3.4819,0.0,0.0,0.0,0.0,0.0,0.0,0.0,0.0,3.6441,0.0,0.0,0.0,0.0,0.0,0.0,0.0,0.0,0.0,0.0,0.0,0.0,0.0,0.0,0.0,0.0,0.0,0.0,0.0,0.0,0.0,0.0,0.0,0.0,0.0,0.0,0.0,0.0,0.0,0.0,0.0,0.0,0.0,0.0,0.0,0.0,0.0,0.0,0.0,0.0,0.0,0.0,0.0,0.0,0.0,0.0,0.0,0.0,0.0,0.0,0.0,0.0,0.0,0.0,0.0,0.0,3.7767,4.0878,4.3644,4.5018,4.6029,4.6766,4.3718,4.0444,3.7118,0.0,0.0,0.0,0.0,0.0,0.0,0.0,0.0,0.0,0.0,0.0,0.0,0.0,0.0,0.0,0.0,0.0,0.0,0.0,0.0,0.0,0.0,0.0,0.0,0.0,0.0,0.0,0.0,0.0,0.0,0.0,0.0,0.0,0.0,0.0,0.0,0.0,0.0,2.908,3.1648,0.0,0.0,0.0,0.0,0.0,0.0,0.0,0.0,3.3961,0.0,0.0,0.0,0.0,0.0,0.0,0.0,0.0,0.0,0.0,0.0,0.0,0.0,0.0,0.0,0.0,0.0,0.0,0.0,0.0,0.0,0.0,0.0,0.0,0.0,0.0,0.0,0.0,0.0,0.0,0.0,0.0,0.0,0.0,0.0,0.0,0.0,0.0,0.0,0.0,0.0,0.0,0.0,0.0,0.0,0.0,0.0,0.0,0.0,0.0,0.0,0.0,0.0,0.0,0.0,0.0,0.0,0.0,3.9952,4.1764,4.3416,4.4252,4.4075,4.1485,3.8743,0.0,0.0,0.0,0.0,0.0,0.0,0.0,0.0,0.0,0.0,0.0,0.0,0.0,0.0,0.0,0.0,0.0,0.0,0.0,0.0,0.0,0.0,0.0,0.0,0.0,0.0,0.0,0.0,0.0,0.0,0.0,0.0,0.0,0.0,0.0,0.0,0.0,0.0,0.0,0.0,0.0,0.0,0.0,0.0,0.0,0.0,0.0,0.0,0.0,0.0,0.0,0.0,0.0,0.0,0.0,0.0,0.0,0.0,0.0,0.0,0.0,0.0,0.0,0.0,0.0,0.0,0.0,0.0,0.0,0.0,0.0,0.0,0.0,0.0,0.0,0.0,0.0,0.0,0.0,0.0,0.0,0.0,0.0,0.0,0.0,0.0,0.0,0.0,0.0,0.0,0.0,0.0,0.0,0.0,0.0,0.0,0.0,0.0,0.0,0.0,0.0,0.0,0.0,0.0,0.0,0.0,0.0,0.0,3.8879,3.9882,4.2044,4.2755,4.179,3.9198,3.6836,0.0,0.0,0.0,0.0,0.0,0.0,0.0,0.0,0.0,0.0,0.0,0.0,0.0,0.0,0.0,0.0,0.0,0.0,0.0,0.0,0.0,0.0,0.0,0.0,0.0,0.0,0.0,0.0,0.0,0.0,0.0,0.0,0.0,0.0,0.0,0.0,0.0,0.0,0.0,0.0,0.0,0.0,0.0,0.0,0.0,0.0,0.0,0.0,3.1888,0.0,0.0,0.0,0.0,0.0,0.0,0.0,0.0,0.0,0.0,0.0,0.0,0.0,0.0,0.0,0.0,0.0,0.0,0.0,0.0,0.0,0.0,0.0,0.0,0.0,0.0,0.0,0.0,0.0,0.0,0.0,0.0,0.0,0.0,0.0,0.0,0.0,0.0,0.0,0.0,0.0,0.0,0.0,0.0,0.0,0.0,0.0,0.0,0.0,0.0,0.0,0.0,0.0,0.0,0.0,0.0,0.0,0.0,0.0,3.696,3.8667,4.085,4.1917,4.1713,3.7725,3.493,0.0,0.0,0.0,0.0,0.0,0.0,0.0,0.0,0.0,0.0,0.0,0.0,0.0,0.0,0.0,0.0,0.0,0.0,0.0,0.0,0.0,0.0,0.0,0.0,0.0,0.0,0.0,0.0,0.0,0.0,0.0,0.0,0.0,0.0,0.0,0.0,0.0,0.0,0.0,0.0,0.0,0.0,0.0,0.0,0.0,0.0,0.0,0.0,0.0,0.0,0.0,0.0,0.0,0.0,0.0,0.0,0.0,0.0,0.0,0.0,0.0,0.0,0.0,0.0,0.0,0.0,0.0,0.0,0.0,0.0,0.0,0.0,0.0,0.0,0.0,0.0,0.0,0.0,0.0,0.0,0.0,0.0,0.0,0.0,0.0,0.0,0.0,0.0,0.0,0.0,0.0,0.0,0.0,0.0,0.0,0.0,0.0,0.0,0.0,0.0,0.0,0.0,0.0,0.0,0.0,0.0,0.0,0.0,3.5282,3.7448,3.9046,3.8921,3.6966,3.457,3.2695,0.0,0.0,0.0,0.0,0.0,0.0,0.0,0.0,0.0,0.0,0.0,0.0,0.0,0.0,0.0,0.0,0.0,0.0,0.0,0.0,0.0,0.0,0.0,0.0,0.0,0.0,0.0,0.0,0.0,0.0,0.0,0.0,0.0,0.0,0.0,0.0,0.0,0.0,0.0,0.0,0.0,0.0,0.0,0.0,0.0,0.0,0.0,0.0,0.0,0.0,0.0,0.0,0.0,0.0,0.0,0.0,0.0,0.0,0.0,0.0,0.0,0.0,0.0,0.0,0.0,0.0,0.0,0.0,0.0,0.0,0.0,0.0,0.0,0.0,0.0,0.0,0.0,0.0,0.0,0.0,0.0,0.0,0.0,0.0,0.0,0.0,0.0,0.0,0.0,0.0,0.0,0.0,0.0,0.0,0.0,0.0,0.0,0.0,0.0,0.0,0.0,0.0,0.0,0.0,0.0,0.0,0.0,0.0,0.0,3.5374,3.6328,3.5566,3.3147,3.1958,3.0866,0.0,0.0,0.0,0.0,0.0,0.0,0.0,0.0,0.0,0.0,0.0,0.0,0.0,0.0,0.0,0.0,0.0,0.0,0.0,0.0,0.0,0.0,0.0,0.0,0.0,0.0,0.0,0.0,0.0,0.0,0.0,0.0,0.0,0.0,0.0,0.0,0.0,0.0,0.0,0.0,0.0,0.0,0.0,0.0,0.0,0.0,0.0,0.0,0.0,0.0,0.0,0.0,0.0,0.0,0.0,0.0,0.0,0.0,0.0,0.0,0.0,0.0,0.0,0.0,0.0,0.0,0.0,0.0,0.0,0.0,0.0,0.0,0.0,0.0,0.0,0.0,0.0,0.0,0.0,0.0,0.0,0.0,0.0,0.0,0.0,0.0,0.0,0.0,0.0,0.0,0.0,0.0,0.0,0.0,0.0,0.0,0.0,0.0,0.0,0.0,0.0,0.0,0.0,0.0,0.0,0.0,0.0,0.0,0.0,3.2117,3.2206,3.2155,3.1901,3.079,2.9646,0.0,0.0,0.0,0.0,0.0,0.0,0.0,0.0,0.0,0.0,0.0,0.0,0.0,0.0,0.0,0.0,0.0,0.0,0.0,0.0,0.0,0.0,0.0,0.0,0.0,0.0,0.0,0.0,0.0,0.0,0.0,0.0,0.0,0.0,0.0,0.0,0.0,0.0,0.0,0.0,0.0,0.0,0.0,0.0,0.0,0.0,0.0,0.0,0.0,0.0,0.0,0.0,0.0,0.0,0.0,0.0,0.0,0.0,0.0,0.0,0.0,0.0,0.0,0.0,0.0,0.0,0.0,0.0,0.0,0.0,0.0,0.0,0.0,0.0,0.0,0.0,0.0,0.0,0.0,0.0,0.0,0.0,0.0,0.0,0.0,0.0,0.0,0.0,0.0,0.0,0.0,0.0,0.0,0.0,0.0,0.0,0.0,0.0,0.0,0.0,0.0,0.0,0.0,0.0,0.0,0.0,0.0,0.0,0.0,2.8276,2.8201,2.8402,2.8698,2.8283,2.7876,2.7402,0.0,0.0,0.0,0.0,0.0,0.0,0.0,0.0,0.0,0.0,0.0,0.0,0.0,0.0,0.0,0.0,0.0,0.0,0.0,0.0,0.0,0.0,0.0,0.0,0.0,0.0,0.0,0.0,0.0,0.0,0.0,0.0,0.0,0.0,0.0,0.0,0.0,0.0,0.0,0.0,0.0,0.0,0.0,0.0,0.0,0.0,0.0,0.0,0.0,0.0,0.0,0.0,0.0,0.0,0.0,0.0,0.0,0.0,0.0,0.0,0.0,0.0,0.0,0.0,0.0,0.0,0.0,0.0,0.0,0.0,0.0,0.0,0.0,0.0,0.0,0.0,0.0,0.0,0.0,0.0,0.0,0.0,0.0,0.0,0.0,0.0,0.0,0.0,0.0,0.0,0.0,0.0,0.0,0.0,0.0,0.0,0.0,0.0,0.0,0.0,0.0,0.0,0.0,0.0,0.0,0.0,0.0,0.0,2.511,2.5526,2.5997,2.6573,2.6581,2.6687,0.0,0.0,0.0,0.0,0.0,0.0,0.0,0.0,0.0,0.0,0.0,0.0,0.0,0.0,0.0,0.0,0.0,0.0,0.0,0.0,0.0,0.0,0.0,0.0,0.0,0.0,0.0,0.0,0.0,0.0,0.0,0.0,0.0,0.0,0.0,0.0,0.0,0.0,0.0,0.0,0.0,0.0,0.0,0.0,0.0,0.0,0.0,0.0,0.0,0.0,0.0,0.0,0.0,0.0,0.0,0.0,0.0,0.0,0.0,0.0,0.0,0.0,0.0,0.0,0.0,0.0,0.0,0.0,0.0,0.0,0.0,0.0,0.0,0.0,0.0,0.0,0.0,0.0,0.0,0.0,0.0,0.0,0.0,0.0,0.0,0.0,0.0,0.0,0.0,0.0,0.0,0.0,0.0,0.0,0.0,0.0,0.0,0.0,0.0,0.0,0.0,0.0,0.0,0.0,0.0,0.0,0.0,0.0,2.1494,2.2955,2.4367,2.5438,2.603,2.6079,2.6294,0.0,0.0,0.0,0.0,0.0,0.0,0.0,0.0,0.0,0.0,0.0,0.0,0.0,0.0,0.0,0.0,0.0,0.0,0.0,0.0,0.0,0.0,0.0,0.0,0.0,0.0,0.0,0.0,0.0,0.0,0.0,0.0,0.0,0.0,0.0,0.0,0.0,0.0,0.0,0.0,0.0,0.0,0.0,0.0,0.0,0.0,0.0,0.0,0.0,0.0,0.0,0.0,0.0,0.0,0.0,0.0,0.0,0.0,0.0,0.0,0.0,0.0,0.0,0.0,0.0,0.0,0.0,0.0,0.0,0.0,0.0,0.0,0.0,0.0,0.0,0.0,0.0,0.0,0.0,0.0,0.0,0.0,0.0,0.0,0.0,0.0,0.0,0.0,0.0,0.0,0.0,0.0,0.0,0.0,0.0,0.0,0.0,0.0,0.0,0.0,0.0,0.0,0.0,0.0,0.0,0.0,0.0,0.0,0.0,2.2876,0.0,2.5563,2.6515,2.6228,2.5903,0.0,0.0,0.0,0.0,0.0,0.0,0.0,0.0,0.0,0.0,0.0,0.0,0.0,0.0,0.0,0.0,0.0,0.0,0.0,0.0,0.0,0.0,0.0,0.0,0.0,0.0,0.0,0.0,0.0,0.0,0.0,0.0,0.0,0.0,0.0,0.0,0.0,0.0,0.0,0.0,0.0,0.0,0.0,0.0,0.0,0.0,0.0,0.0,0.0,0.0,0.0,0.0,0.0,0.0,0.0,0.0,0.0,0.0,0.0,0.0,0.0,0.0,0.0,0.0,0.0,0.0,0.0,0.0,0.0,0.0,0.0,0.0,0.0,0.0,0.0,0.0,0.0,0.0,0.0,0.0,0.0,0.0,0.0,0.0,0.0,0.0,0.0,0.0,0.0,0.0,0.0,0.0,0.0,0.0,0.0,0.0,0.0,0.0,0.0,0.0,0.0,0.0,0.0,0.0,0.0,0.0,0.0,0.0,0.0,2.2274,2.3416,2.4669,2.6112,2.6096,2.5936,0.0,0.0,0.0,0.0,0.0,0.0,0.0,0.0,0.0,0.0,0.0,0.0,0.0,0.0,0.0,0.0,0.0,0.0,0.0,0.0,0.0,0.0,0.0,0.0,0.0,0.0,0.0,0.0,0.0,0.0,0.0,0.0,0.0,0.0,0.0,0.0,0.0,0.0,0.0,0.0,0.0,0.0,0.0,0.0,0.0,0.0,0.0,0.0,0.0,0.0,0.0,0.0,0.0,0.0,0.0,0.0,0.0,0.0,0.0,0.0,0.0,0.0,0.0,0.0,0.0,0.0,0.0,0.0,0.0,0.0,0.0,0.0,0.0,0.0,0.0,0.0,0.0,0.0,0.0,0.0,0.0,0.0,0.0,0.0,0.0,0.0,0.0,0.0,0.0,0.0,0.0,0.0,0.0,0.0,0.0,0.0,0.0,0.0,0.0,0.0,0.0,0.0,0.0,0.0,0.0,0.0,0.0,0.0,0.0,2.1453,2.1937,2.3081,2.5087,2.5723,2.6252,0.0,0.0,0.0,0.0,0.0,0.0,0.0,0.0,0.0,0.0,0.0,0.0,0.0,0.0,0.0,0.0,0.0,0.0,0.0,0.0,0.0,0.0,0.0,0.0,0.0,0.0,0.0,0.0,0.0,0.0,0.0,0.0,0.0,0.0,0.0,0.0,0.0,0.0,0.0,0.0,0.0,0.0,0.0,0.0,0.0,0.0,0.0,0.0,0.0,0.0,0.0,0.0,0.0,0.0,0.0,0.0,0.0,0.0,0.0,0.0,0.0,0.0,0.0,0.0,0.0,0.0,0.0,0.0,0.0,0.0,0.0,0.0,0.0,0.0,0.0,0.0,0.0,0.0,0.0,0.0,0.0,0.0,0.0,0.0,0.0,0.0,0.0,0.0,0.0,0.0,0.0,0.0,0.0,0.0,0.0,0.0,0.0,0.0,0.0,0.0,0.0,0.0,0.0,0.0,0.0,0.0,0.0,0.0,0.0,0.0,2.3556,2.4415,2.5683,2.593,2.5887,2.5556,0.0,0.0,0.0,0.0,0.0,0.0,0.0,0.0,0.0,0.0,0.0,0.0,0.0,0.0,0.0,0.0,0.0,0.0,0.0,0.0,0.0,0.0,0.0,0.0,0.0,0.0,0.0,0.0,0.0,0.0,0.0,0.0,0.0,0.0,0.0,0.0,0.0,0.0,0.0,0.0,0.0,0.0,0.0,0.0,0.0,0.0,0.0,0.0,0.0,0.0,0.0,0.0,0.0,0.0,0.0,0.0,0.0,0.0,0.0,0.0,0.0,0.0,0.0,0.0,0.0,0.0,0.0,0.0,0.0,0.0,0.0,0.0,0.0,0.0,0.0,0.0,0.0,0.0,0.0,0.0,0.0,0.0,0.0,0.0,0.0,0.0,0.0,0.0,0.0,0.0,0.0,0.0,0.0,0.0,0.0,0.0,0.0,0.0,0.0,0.0,0.0,0.0,0.0,0.0,0.0,0.0,0.0,0.0,0.0,0.0,2.4886,2.6318,2.6145,2.5953,0.0,0.0,0.0,0.0,0.0,0.0,0.0,0.0,0.0,0.0,0.0,0.0,0.0,0.0,0.0,0.0,0.0,0.0,0.0,0.0,0.0,0.0,0.0,0.0,0.0,0.0,0.0,0.0,0.0,0.0,0.0,0.0,0.0,0.0,0.0,0.0,0.0,0.0,0.0,0.0,0.0,0.0,0.0,0.0,0.0,0.0,0.0,0.0,0.0,0.0,0.0,0.0,0.0,0.0,0.0,0.0,0.0,0.0,0.0,0.0,0.0,0.0,0.0,0.0,0.0,0.0,0.0,0.0,0.0,0.0,0.0,0.0,0.0,0.0,0.0,0.0,0.0,0.0,0.0,0.0,0.0,0.0,0.0,0.0,0.0,0.0,0.0,0.0,0.0,0.0,0.0,0.0,0.0,0.0,0.0,0.0,0.0,0.0,0.0,0.0,0.0,0.0,0.0,0.0,0.0,0.0,0.0,0.0,0.0,0.0,0.0,2.4873,2.6734,2.6359,0.0,2.676,0.0,0.0,0.0,0.0,0.0,0.0,0.0,0.0,0.0,0.0,0.0,0.0,0.0,0.0,0.0,0.0,0.0,0.0,0.0,0.0,0.0,0.0,0.0,0.0,0.0,0.0,0.0,0.0,0.0,0.0,0.0,0.0,0.0,0.0,0.0,0.0,0.0,0.0,0.0,0.0,0.0,0.0,0.0,0.0,0.0,0.0,0.0,0.0,0.0,0.0,0.0,0.0,0.0,0.0,0.0,0.0,0.0,0.0,0.0,0.0,0.0,0.0,0.0,0.0,0.0,0.0,0.0,0.0,0.0,0.0,0.0,0.0,0.0,0.0,0.0,0.0,0.0,0.0,0.0,0.0,0.0,0.0,0.0,0.0,0.0,0.0,0.0,0.0,0.0,0.0,0.0,0.0,0.0,0.0,0.0,0.0,0.0,0.0,0.0,0.0,0.0,0.0,0.0,0.0,0.0,0.0,0.0,0.0,0.0,0.0,0.0,0.0,2.672,2.6711,2.6817,0.0,0.0,0.0,0.0,0.0,0.0,0.0,0.0,0.0,0.0,0.0,0.0,0.0,0.0,0.0,0.0,0.0,0.0,0.0,0.0,0.0,0.0,0.0,0.0,0.0,0.0,0.0,0.0,0.0,0.0,0.0,0.0,0.0,0.0,0.0,0.0,0.0,0.0,0.0,0.0,0.0,0.0,0.0,0.0,0.0,0.0,0.0,0.0,0.0,0.0,0.0,0.0,0.0,0.0,0.0,0.0,0.0,0.0,0.0,0.0,0.0,0.0,0.0,0.0,0.0,0.0,0.0,0.0,0.0,0.0,0.0,0.0,0.0,0.0,0.0,0.0,0.0,0.0,0.0,0.0,0.0,0.0,0.0,0.0,0.0,0.0,0.0,0.0,0.0,0.0,0.0,0.0,0.0,0.0,0.0,0.0,0.0,0.0,0.0,0.0,0.0,0.0,0.0,0.0,0.0,0.0,0.0,0.0,0.0,0.0,2.6028,2.6029,2.6029,2.5775,2.5277,0.0,0.0,0.0,0.0,0.0,0.0,0.0,0.0,0.0,0.0,0.0,0.0,0.0,0.0,0.0,0.0,0.0,0.0,0.0,0.0,0.0,0.0,0.0,0.0,0.0,0.0,0.0,0.0,0.0,0.0,0.0,0.0,0.0,0.0,0.0,0.0,0.0,0.0,0.0,0.0,0.0,0.0,0.0,0.0,0.0,0.0,0.0,0.0,0.0,0.0,0.0,0.0,0.0,0.0,0.0,0.0,0.0,0.0,0.0,0.0,0.0,0.0,0.0,0.0,0.0,0.0,0.0,0.0,0.0,0.0,0.0,0.0,0.0,0.0,0.0,0.0,0.0,0.0,0.0,0.0,0.0,0.0,0.0,0.0,0.0,0.0,0.0,0.0,0.0,0.0,0.0,0.0,0.0,0.0,0.0,0.0,0.0,0.0,0.0,0.0,0.0,0.0,0.0,0.0,0.0,0.0,0.0,0.0,0.0,0.0,0.0,0.0,0.0,0.0,2.3377,0.0,0.0,0.0,0.0,0.0,0.0,0.0,0.0,0.0,0.0,0.0,0.0,0.0,0.0,0.0,0.0,0.0,0.0,0.0,0.0,0.0,0.0,0.0,0.0,0.0,0.0,0.0,0.0,0.0,0.0,0.0,0.0,0.0,0.0,0.0,0.0,0.0,0.0,0.0,0.0,0.0,0.0,0.0,0.0,0.0,0.0,0.0,0.0,0.0,0.0,0.0,0.0,0.0,0.0,0.0,0.0,0.0,0.0,0.0,0.0,0.0,0.0,0.0,0.0,0.0,0.0,0.0,0.0,0.0,0.0,0.0,0.0,0.0,0.0,0.0,0.0,0.0,0.0,0.0,0.0,0.0,0.0,0.0,0.0,0.0,0.0,0.0,0.0,0.0,0.0,0.0,0.0,0.0,0.0,0.0,0.0,0.0,0.0,0.0,0.0,0.0,0.0,0.0,0.0,0.0,0.0,0.0,0.0,0.0,0.0,0.0,0.0,0.0,0.0,0.0,0.0,0.0,0.0,0.0,0.0,0.0,0.0,0.0,0.0,0.0,0.0,0.0,0.0,0.0,0.0,0.0,0.0,0.0,0.0,0.0,0.0,0.0,0.0,0.0,0.0,0.0,0.0,0.0,0.0,0.0,0.0,0.0,0.0,0.0,0.0,0.0,0.0,0.0,0.0,0.0,0.0,0.0,0.0,0.0,0.0,0.0,0.0,0.0,0.0,0.0,0.0,0.0,0.0,0.0,0.0,0.0,0.0,0.0,0.0,0.0,0.0,0.0,0.0,0.0,0.0,0.0,0.0,0.0,0.0,0.0,0.0,0.0,0.0,0.0,0.0,0.0,0.0,0.0,0.0,0.0,0.0,0.0,0.0,0.0,0.0,0.0,0.0,0.0,0.0,0.0,0.0,0.0,0.0,0.0,0.0,0.0,0.0,0.0,0.0,0.0,0.0,0.0,0.0,0.0,0.0,0.0,0.0,0.0,0.0,0.0,0.0,0.0,0.0,0.0,0.0,0.0,0.0,0.0,0.0,0.0,0.0,0.0,0.0,0.0,0.0,0.0,0.0,0.0,0.0,0.0,0.0,0.0,0.0,0.0,0.0,0.0,0.0,0.0,0.0,0.0,0.0,0.0,0.0,0.0,0.0,0.0,0.0,0.0,0.0,0.0,0.0,0.0,0.0,0.0,0.0,0.0,0.0,0.0,0.0,0.0,0.0,0.0,0.0,0.0,0.0,0.0,0.0,0.0,0.0,0.0,0.0,0.0,0.0,0.0,0.0,0.0,0.0,0.0,0.0,0.0,0.0,0.0,0.0,0.0,0.0,0.0,0.0,0.0,0.0,0.0,0.0,0.0,0.0,0.0,0.0,0.0,0.0,0.0,0.0,0.0,0.0,0.0,0.0,0.0,0.0,0.0,0.0,0.0,0.0,0.0,0.0,0.0,0.0,0.0,0.0,0.0,0.0,0.0,0.0,0.0,0.0,0.0,0.0,0.0,0.0,0.0,0.0,0.0,0.0,0.0,0.0,0.0,0.0,0.0,0.0,0.0,0.0,0.0,0.0,0.0,0.0,0.0,0.0,0.0,0.0,0.0,0.0,0.0,0.0,0.0,0.0,0.0,0.0,0.0,0.0,0.0,0.0,0.0,0.0,0.0,0.0,0.0,0.0,0.0,0.0,0.0,0.0,0.0,0.0,0.0,0.0,0.0,0.0,0.0,0.0,0.0,0.0,0.0,0.0,0.0,0.0,0.0,0.0,0.0,0.0,0.0,0.0,0.0,0.0,0.0,0.0,0.0,0.0,0.0,0.0,0.0,0.0,0.0,0.0,0.0,0.0,0.0,0.0,0.0,0.0,0.0,0.0,0.0,0.0,0.0,0.0,0.0,0.0,0.0,0.0,0.0,0.0,0.0,0.0,0.0,0.0,0.0,0.0,0.0,0.0,0.0,0.0,0.0,0.0,0.0,0.0,0.0,0.0,0.0,0.0,0.0,0.0,0.0,0.0,0.0,0.0,0.0,0.0,0.0,0.0,0.0,0.0,0.0,0.0,0.0,0.0,0.0,0.0,0.0,0.0,0.0,0.0,0.0,0.0,0.0,0.0,0.0,0.0,0.0,0.0,0.0,0.0,0.0,0.0,0.0,0.0,0.0,0.0,0.0,0.0,0.0,0.0,0.0,0.0,0.0,0.0,0.0,0.0,0.0,0.0,0.0,0.0,0.0,0.0,0.0,0.0,0.0,0.0,0.0,0.0,0.0,0.0,0.0,0.0,0.0,0.0,0.0,0.0,0.0,0.0,0.0,0.0,0.0,0.0,0.0,0.0,0.0,0.0,0.0,0.0,0.0,0.0,0.0,0.0,0.0,0.0,0.0,0.0,0.0,0.0,0.0,0.0,0.0,0.0,0.0,0.0,0.0,0.0,0.0,0.0,0.0,0.0,0.0,0.0,0.0,0.0,0.0,0.0,0.0,0.0,0.0,0.0,0.0,0.0,0.0,0.0,0.0,0.0,0.0,0.0,0.0,0.0,0.0,0.0,0.0,0.0,0.0,0.0,0.0,0.0,0.0,0.0,0.0,0.0,0.0,0.0,0.0,0.0,0.0,0.0,0.0,0.0,0.0,0.0,0.0,0.0,0.0,0.0,0.0,0.0,0.0,0.0,0.0,0.0,0.0,0.0,0.0,0.0,0.0,0.0,0.0,0.0,0.0,0.0,0.0,0.0,0.0,0.0,0.0,0.0,0.0,0.0,0.0,0.0,0.0,0.0,0.0,0.0,0.0,0.0,0.0,0.0,0.0,0.0,0.0,0.0,0.0,0.0,0.0,0.0,0.0,0.0,0.0,0.0,0.0,0.0,0.0,0.0,0.0,0.0,0.0,0.0,0.0,0.0,0.0,0.0,0.0,0.0,0.0,0.0,0.0,0.0,0.0,0.0,0.0,0.0,0.0,0.0,0.0,0.0,0.0,0.0,0.0,0.0,0.0,0.0,0.0,0.0,0.0,0.0,0.0,0.0,0.0,0.0,0.0,0.0,0.0,0.0,0.0,0.0,0.0,0.0,0.0,0.0,0.0,0.0,0.0,0.0,0.0,0.0,0.0,0.0,0.0,0.0,0.0,0.0,0.0,0.0,0.0,0.0,0.0,0.0,0.0,0.0,0.0,0.0,0.0,0.0,0.0,0.0,0.0,0.0,0.0,0.0,0.0,0.0,0.0,0.0,0.0,0.0,0.0,0.0,0.0,0.0,0.0,0.0,0.0,0.0,0.0,0.0,0.0,0.0,0.0,0.0,0.0,0.0,0.0,0.0,0.0,0.0,0.0,0.0,0.0,0.0,0.0,0.0,0.0,0.0,0.0,0.0,0.0,0.0,0.0,0.0,0.0,0.0,0.0,0.0,0.0,0.0,0.0,0.0,0.0,0.0,0.0,0.0,0.0,0.0,0.0,0.0,0.0,0.0,0.0,0.0,0.0,0.0,0.0,0.0,0.0,0.0,0.0,0.0,0.0,0.0,0.0,0.0,0.0,0.0,0.0,0.0,0.0,0.0,0.0,0.0,0.0,0.0,0.0,0.0,0.0,0.0,0.0,0.0,0.0,0.0,0.0,0.0,0.0,0.0,0.0,0.0,0.0,0.0,0.0,0.0,0.0,0.0,0.0,0.0,0.0,0.0,0.0,0.0,0.0,0.0,0.0,0.0,0.0,0.0,0.0,0.0,0.0,0.0,0.0,0.0,0.0,0.0,0.0,0.0,0.0,0.0,0.0,0.0,0.0,0.0,0.0,0.0,0.0,0.0,0.0,0.0,0.0,0.0,0.0,0.0,0.0,0.0,0.0,0.0,0.0,0.0,0.0,0.0,0.0,0.0,0.0,0.0,0.0,0.0,0.0,0.0,0.0,0.0,0.0,0.0,0.0,0.0,0.0,0.0,0.0,0.0,0.0,0.0,0.0,0.0,0.0,0.0,0.0,0.0,0.0,0.0,0.0,0.0,0.0,0.0,0.0,0.0,0.0,0.0,0.0,0.0,0.0,0.0,0.0,0.0,0.0,0.0,0.0,0.0,0.0,0.0,0.0,0.0,0.0,0.0,0.0,0.0,0.0,0.0,0.0,0.0,0.0,0.0,0.0,0.0,0.0,0.0,0.0,0.0,0.0,0.0,0.0,0.0,0.0,0.0,0.0,0.0,0.0,0.0,0.0,0.0,0.0,0.0,0.0,0.0,0.0,0.0,0.0,0.0,0.0,0.0,0.0,0.0,0.0,0.0,0.0,0.0,0.0,0.0,0.0,0.0,0.0,0.0,0.0,0.0,0.0,0.0,0.0,0.0,0.0,0.0,0.0,0.0,0.0,0.0,0.0,0.0,0.0,0.0]}]]]